Wetterdaten: Montag, 02.01.2023
Datum Zeit Temp. 2m Temp +5 cm Feuchte A. Luftdruck Regen Wind Richtung Richtung Sonnenschein UV Solar Taupunkt Windchill Windben
02.01.2023 00:00 11,6 C 10,6 C 77 % 1015,5 hPa 0,0 l/m 12,9 km/h (3 Bft) S 180 0 min 0,0 UV-I 0 W/m 7,7 C 7,9 C 20,9 km/h (4 Bft)
02.01.2023 00:01 11,6 C 10,6 C 78 % 1015,5 hPa 0,0 l/m 14,5 km/h (3 Bft) S 180 0 min 0,0 UV-I 0 W/m 7,9 C 7,3 C 25,7 km/h (4 Bft)
02.01.2023 00:02 11,5 C 10,6 C 78 % 1015,5 hPa 0,0 l/m 17,7 km/h (3 Bft) S-SW 202 0 min 0,0 UV-I 0 W/m 7,8 C 6,0 C 25,7 km/h (4 Bft)
02.01.2023 00:03 11,4 C 10,6 C 78 % 1015,5 hPa 0,0 l/m 22,5 km/h (4 Bft) S 180 0 min 0,0 UV-I 0 W/m 7,7 C 4,4 C 29,0 km/h (5 Bft)
02.01.2023 00:04 11,4 C 10,6 C 78 % 1015,5 hPa 0,0 l/m 17,7 km/h (3 Bft) S 180 0 min 0,0 UV-I 0 W/m 7,7 C 5,8 C 25,7 km/h (4 Bft)
02.01.2023 00:05 11,4 C 10,6 C 78 % 1015,4 hPa 0,0 l/m 20,9 km/h (4 Bft) S 180 0 min 0,0 UV-I 0 W/m 7,7 C 4,8 C 33,8 km/h (5 Bft)
02.01.2023 00:06 11,4 C 10,6 C 78 % 1015,3 hPa 0,0 l/m 24,1 km/h (4 Bft) S 180 0 min 0,0 UV-I 0 W/m 7,7 C 4,0 C 38,6 km/h (5 Bft)
02.01.2023 00:07 11,4 C 10,6 C 78 % 1015,4 hPa 0,0 l/m 19,3 km/h (3 Bft) S 180 0 min 0,0 UV-I 0 W/m 7,7 C 5,3 C 30,6 km/h (5 Bft)
02.01.2023 00:08 11,4 C 10,6 C 78 % 1015,5 hPa 0,0 l/m 12,9 km/h (3 Bft) S 180 0 min 0,0 UV-I 0 W/m 7,7 C 7,7 C 20,9 km/h (4 Bft)
02.01.2023 00:09 11,4 C 10,6 C 78 % 1015,3 hPa 0,0 l/m 16,1 km/h (3 Bft) S 180 0 min 0,0 UV-I 0 W/m 7,7 C 6,4 C 25,7 km/h (4 Bft)
02.01.2023 00:10 11,4 C 10,6 C 78 % 1015,3 hPa 0,0 l/m 19,3 km/h (3 Bft) S 180 0 min 0,0 UV-I 0 W/m 7,7 C 5,3 C 25,7 km/h (4 Bft)
02.01.2023 00:11 11,4 C 10,6 C 78 % 1015,3 hPa 0,0 l/m 12,9 km/h (3 Bft) S-SO 157 0 min 0,0 UV-I 0 W/m 7,7 C 7,7 C 19,3 km/h (3 Bft)
02.01.2023 00:12 11,4 C 10,6 C 78 % 1015,3 hPa 0,0 l/m 14,5 km/h (3 Bft) S 180 0 min 0,0 UV-I 0 W/m 7,7 C 7,0 C 19,3 km/h (3 Bft)
02.01.2023 00:13 11,4 C 10,6 C 78 % 1015,3 hPa 0,0 l/m 16,1 km/h (3 Bft) S 180 0 min 0,0 UV-I 0 W/m 7,7 C 6,4 C 20,9 km/h (4 Bft)
02.01.2023 00:14 11,4 C 10,6 C 78 % 1015,3 hPa 0,0 l/m 11,3 km/h (2 Bft) S 180 0 min 0,0 UV-I 0 W/m 7,7 C 8,5 C 17,7 km/h (3 Bft)
02.01.2023 00:15 11,3 C 10,6 C 78 % 1015,3 hPa 0,0 l/m 12,9 km/h (3 Bft) S-SO 157 0 min 0,0 UV-I 0 W/m 7,6 C 7,6 C 17,7 km/h (3 Bft)
02.01.2023 00:16 11,3 C 10,6 C 78 % 1015,3 hPa 0,0 l/m 14,5 km/h (3 Bft) S-SO 157 0 min 0,0 UV-I 0 W/m 7,6 C 6,9 C 20,9 km/h (4 Bft)
02.01.2023 00:17 11,3 C 10,6 C 78 % 1015,3 hPa 0,0 l/m 19,3 km/h (3 Bft) S-SO 157 0 min 0,0 UV-I 0 W/m 7,6 C 5,2 C 29,0 km/h (5 Bft)
02.01.2023 00:18 11,3 C 10,6 C 78 % 1015,4 hPa 0,0 l/m 16,1 km/h (3 Bft) S 180 0 min 0,0 UV-I 0 W/m 7,6 C 6,3 C 20,9 km/h (4 Bft)
02.01.2023 00:19 11,3 C 10,6 C 79 % 1015,4 hPa 0,0 l/m 16,1 km/h (3 Bft) S-SO 157 0 min 0,0 UV-I 0 W/m 7,8 C 6,3 C 24,1 km/h (4 Bft)
02.01.2023 00:20 11,2 C 10,6 C 79 % 1015,4 hPa 0,0 l/m 16,1 km/h (3 Bft) S 180 0 min 0,0 UV-I 0 W/m 7,7 C 6,2 C 25,7 km/h (4 Bft)
02.01.2023 00:21 11,3 C 10,6 C 79 % 1015,4 hPa 0,0 l/m 20,9 km/h (4 Bft) S 180 0 min 0,0 UV-I 0 W/m 7,8 C 4,7 C 30,6 km/h (5 Bft)
02.01.2023 00:22 11,2 C 10,6 C 79 % 1015,3 hPa 0,0 l/m 16,1 km/h (3 Bft) S 180 0 min 0,0 UV-I 0 W/m 7,7 C 6,2 C 20,9 km/h (4 Bft)
02.01.2023 00:23 11,2 C 10,0 C 79 % 1015,3 hPa 0,0 l/m 17,7 km/h (3 Bft) S 180 0 min 0,0 UV-I 0 W/m 7,7 C 5,6 C 25,7 km/h (4 Bft)
02.01.2023 00:24 11,2 C 10,0 C 79 % 1015,3 hPa 0,0 l/m 17,7 km/h (3 Bft) S 180 0 min 0,0 UV-I 0 W/m 7,7 C 5,6 C 24,1 km/h (4 Bft)
02.01.2023 00:25 11,2 C 10,0 C 79 % 1015,2 hPa 0,0 l/m 17,7 km/h (3 Bft) S 180 0 min 0,0 UV-I 0 W/m 7,7 C 5,6 C 25,7 km/h (4 Bft)
02.01.2023 00:26 11,2 C 10,6 C 79 % 1015,3 hPa 0,0 l/m 16,1 km/h (3 Bft) S 180 0 min 0,0 UV-I 0 W/m 7,7 C 6,2 C 20,9 km/h (4 Bft)
02.01.2023 00:27 11,2 C 10,6 C 79 % 1015,2 hPa 0,0 l/m 17,7 km/h (3 Bft) S-SO 157 0 min 0,0 UV-I 0 W/m 7,7 C 5,6 C 22,5 km/h (4 Bft)
02.01.2023 00:28 11,2 C 10,6 C 79 % 1015,1 hPa 0,0 l/m 17,7 km/h (3 Bft) S-SO 157 0 min 0,0 UV-I 0 W/m 7,7 C 5,6 C 30,6 km/h (5 Bft)
02.01.2023 00:29 11,2 C 10,6 C 79 % 1015,2 hPa 0,0 l/m 16,1 km/h (3 Bft) S 180 0 min 0,0 UV-I 0 W/m 7,7 C 6,2 C 27,4 km/h (4 Bft)
02.01.2023 00:30 11,2 C 10,6 C 79 % 1015,1 hPa 0,0 l/m 16,1 km/h (3 Bft) S 180 0 min 0,0 UV-I 0 W/m 7,7 C 6,2 C 22,5 km/h (4 Bft)
02.01.2023 00:31 11,2 C 10,6 C 79 % 1015,1 hPa 0,0 l/m 19,3 km/h (3 Bft) S 180 0 min 0,0 UV-I 0 W/m 7,7 C 5,1 C 29,0 km/h (5 Bft)
02.01.2023 00:32 11,2 C 10,6 C 79 % 1015,3 hPa 0,0 l/m 20,9 km/h (4 Bft) S 180 0 min 0,0 UV-I 0 W/m 7,7 C 4,6 C 32,2 km/h (5 Bft)
02.01.2023 00:33 11,2 C 10,6 C 79 % 1015,1 hPa 0,0 l/m 19,3 km/h (3 Bft) S 180 0 min 0,0 UV-I 0 W/m 7,7 C 5,1 C 29,0 km/h (5 Bft)
02.01.2023 00:34 11,2 C 10,6 C 79 % 1014,9 hPa 0,0 l/m 20,9 km/h (4 Bft) S-SW 202 0 min 0,0 UV-I 0 W/m 7,7 C 4,6 C 30,6 km/h (5 Bft)
02.01.2023 00:35 11,3 C 10,6 C 78 % 1015,1 hPa 0,0 l/m 16,1 km/h (3 Bft) S 180 0 min 0,0 UV-I 0 W/m 7,6 C 6,3 C 24,1 km/h (4 Bft)
02.01.2023 00:36 11,3 C 10,6 C 78 % 1015,1 hPa 0,0 l/m 19,3 km/h (3 Bft) S-SO 157 0 min 0,0 UV-I 0 W/m 7,6 C 5,2 C 27,4 km/h (4 Bft)
02.01.2023 00:37 11,3 C 10,6 C 78 % 1015,0 hPa 0,0 l/m 19,3 km/h (3 Bft) S-SO 157 0 min 0,0 UV-I 0 W/m 7,6 C 5,2 C 29,0 km/h (5 Bft)
02.01.2023 00:38 11,3 C 10,6 C 78 % 1015,0 hPa 0,0 l/m 19,3 km/h (3 Bft) S-SW 202 0 min 0,0 UV-I 0 W/m 7,6 C 5,2 C 32,2 km/h (5 Bft)
02.01.2023 00:39 11,3 C 10,6 C 78 % 1015,0 hPa 0,0 l/m 20,9 km/h (4 Bft) S 180 0 min 0,0 UV-I 0 W/m 7,6 C 4,7 C 30,6 km/h (5 Bft)
02.01.2023 00:40 11,4 C 10,6 C 78 % 1015,1 hPa 0,0 l/m 17,7 km/h (3 Bft) S 180 0 min 0,0 UV-I 0 W/m 7,7 C 5,8 C 33,8 km/h (5 Bft)
02.01.2023 00:41 11,4 C 10,6 C 78 % 1015,0 hPa 0,0 l/m 19,3 km/h (3 Bft) S 180 0 min 0,0 UV-I 0 W/m 7,7 C 5,3 C 27,4 km/h (4 Bft)
02.01.2023 00:42 11,4 C 10,6 C 78 % 1014,9 hPa 0,0 l/m 20,9 km/h (4 Bft) S 180 0 min 0,0 UV-I 0 W/m 7,7 C 4,8 C 30,6 km/h (5 Bft)
02.01.2023 00:43 11,4 C 10,6 C 78 % 1015,1 hPa 0,0 l/m 17,7 km/h (3 Bft) S 180 0 min 0,0 UV-I 0 W/m 7,7 C 5,8 C 24,1 km/h (4 Bft)
02.01.2023 00:44 11,4 C 10,0 C 77 % 1015,1 hPa 0,0 l/m 19,3 km/h (3 Bft) S 180 0 min 0,0 UV-I 0 W/m 7,5 C 5,3 C 27,4 km/h (4 Bft)
02.01.2023 00:45 11,3 C 10,0 C 77 % 1015,1 hPa 0,0 l/m 17,7 km/h (3 Bft) S 180 0 min 0,0 UV-I 0 W/m 7,4 C 5,7 C 24,1 km/h (4 Bft)
02.01.2023 00:46 11,3 C 10,0 C 77 % 1015,0 hPa 0,0 l/m 17,7 km/h (3 Bft) S 180 0 min 0,0 UV-I 0 W/m 7,4 C 5,7 C 24,1 km/h (4 Bft)
02.01.2023 00:47 11,3 C 10,0 C 77 % 1015,0 hPa 0,0 l/m 17,7 km/h (3 Bft) S 180 0 min 0,0 UV-I 0 W/m 7,4 C 5,7 C 22,5 km/h (4 Bft)
02.01.2023 00:48 11,3 C 10,0 C 77 % 1015,2 hPa 0,0 l/m 17,7 km/h (3 Bft) S 180 0 min 0,0 UV-I 0 W/m 7,4 C 5,7 C 25,7 km/h (4 Bft)
02.01.2023 00:49 11,3 C 10,0 C 77 % 1015,1 hPa 0,0 l/m 19,3 km/h (3 Bft) S 180 0 min 0,0 UV-I 0 W/m 7,4 C 5,2 C 25,7 km/h (4 Bft)
02.01.2023 00:50 11,3 C 10,0 C 78 % 1015,0 hPa 0,0 l/m 17,7 km/h (3 Bft) S 180 0 min 0,0 UV-I 0 W/m 7,6 C 5,7 C 24,1 km/h (4 Bft)
02.01.2023 00:51 11,2 C 10,0 C 78 % 1015,2 hPa 0,0 l/m 17,7 km/h (3 Bft) S 180 0 min 0,0 UV-I 0 W/m 7,5 C 5,6 C 29,0 km/h (5 Bft)
02.01.2023 00:52 11,2 C 10,0 C 78 % 1015,1 hPa 0,0 l/m 16,1 km/h (3 Bft) S 180 0 min 0,0 UV-I 0 W/m 7,5 C 6,2 C 29,0 km/h (5 Bft)
02.01.2023 00:53 11,2 C 10,0 C 78 % 1015,1 hPa 0,0 l/m 16,1 km/h (3 Bft) S 180 0 min 0,0 UV-I 0 W/m 7,5 C 6,2 C 25,7 km/h (4 Bft)
02.01.2023 00:54 11,2 C 10,0 C 78 % 1015,4 hPa 0,0 l/m 19,3 km/h (3 Bft) S 180 0 min 0,0 UV-I 0 W/m 7,5 C 5,1 C 33,8 km/h (5 Bft)
02.01.2023 00:55 11,1 C 10,0 C 78 % 1015,0 hPa 0,0 l/m 17,7 km/h (3 Bft) S 180 0 min 0,0 UV-I 0 W/m 7,4 C 5,5 C 24,1 km/h (4 Bft)
02.01.2023 00:56 11,1 C 10,0 C 78 % 1015,0 hPa 0,0 l/m 12,9 km/h (3 Bft) S-SO 157 0 min 0,0 UV-I 0 W/m 7,4 C 7,4 C 17,7 km/h (3 Bft)
02.01.2023 00:57 11,1 C 10,0 C 78 % 1015,0 hPa 0,0 l/m 12,9 km/h (3 Bft) S 180 0 min 0,0 UV-I 0 W/m 7,4 C 7,4 C 20,9 km/h (4 Bft)
02.01.2023 00:58 11,1 C 10,0 C 78 % 1015,0 hPa 0,0 l/m 17,7 km/h (3 Bft) S 180 0 min 0,0 UV-I 0 W/m 7,4 C 5,5 C 24,1 km/h (4 Bft)
02.01.2023 00:59 11,1 C 10,0 C 78 % 1015,1 hPa 0,0 l/m 16,1 km/h (3 Bft) S 180 0 min 0,0 UV-I 0 W/m 7,4 C 6,0 C 22,5 km/h (4 Bft)
02.01.2023 01:00 11,1 C 10,0 C 78 % 1015,1 hPa 0,0 l/m 17,7 km/h (3 Bft) S 180 0 min 0,0 UV-I 0 W/m 7,4 C 5,5 C 25,7 km/h (4 Bft)
02.01.2023 01:01 11,1 C 10,0 C 78 % 1015,1 hPa 0,0 l/m 14,5 km/h (3 Bft) S 180 0 min 0,0 UV-I 0 W/m 7,4 C 6,7 C 22,5 km/h (4 Bft)
02.01.2023 01:02 11,1 C 10,0 C 78 % 1015,0 hPa 0,0 l/m 17,7 km/h (3 Bft) S-SW 202 0 min 0,0 UV-I 0 W/m 7,4 C 5,5 C 29,0 km/h (5 Bft)
02.01.2023 01:03 11,0 C 10,0 C 78 % 1015,1 hPa 0,0 l/m 17,7 km/h (3 Bft) S 180 0 min 0,0 UV-I 0 W/m 7,3 C 5,3 C 25,7 km/h (4 Bft)
02.01.2023 01:04 11,0 C 10,0 C 78 % 1015,0 hPa 0,0 l/m 14,5 km/h (3 Bft) S 180 0 min 0,0 UV-I 0 W/m 7,3 C 6,5 C 24,1 km/h (4 Bft)
02.01.2023 01:05 11,1 C 10,0 C 78 % 1015,0 hPa 0,0 l/m 16,1 km/h (3 Bft) S 180 0 min 0,0 UV-I 0 W/m 7,4 C 6,0 C 20,9 km/h (4 Bft)
02.01.2023 01:06 11,0 C 10,0 C 78 % 1015,2 hPa 0,0 l/m 24,1 km/h (4 Bft) S 180 0 min 0,0 UV-I 0 W/m 7,3 C 3,4 C 38,6 km/h (5 Bft)
02.01.2023 01:07 11,1 C 10,6 C 78 % 1015,1 hPa 0,0 l/m 20,9 km/h (4 Bft) S-SO 157 0 min 0,0 UV-I 0 W/m 7,4 C 4,4 C 35,4 km/h (5 Bft)
02.01.2023 01:08 11,1 C 10,6 C 78 % 1015,0 hPa 0,0 l/m 14,5 km/h (3 Bft) S-SO 157 0 min 0,0 UV-I 0 W/m 7,4 C 6,7 C 35,4 km/h (5 Bft)
02.01.2023 01:09 11,1 C 10,6 C 79 % 1015,0 hPa 0,0 l/m 12,9 km/h (3 Bft) S-SO 157 0 min 0,0 UV-I 0 W/m 7,6 C 7,4 C 19,3 km/h (3 Bft)
02.01.2023 01:10 11,1 C 10,6 C 79 % 1015,1 hPa 0,0 l/m 14,5 km/h (3 Bft) S 180 0 min 0,0 UV-I 0 W/m 7,6 C 6,7 C 19,3 km/h (3 Bft)
02.01.2023 01:11 11,1 C 10,6 C 79 % 1015,1 hPa 0,0 l/m 12,9 km/h (3 Bft) S 180 0 min 0,0 UV-I 0 W/m 7,6 C 7,4 C 19,3 km/h (3 Bft)
02.01.2023 01:12 11,1 C 10,0 C 79 % 1015,0 hPa 0,0 l/m 14,5 km/h (3 Bft) S 180 0 min 0,0 UV-I 0 W/m 7,6 C 6,7 C 29,0 km/h (5 Bft)
02.01.2023 01:13 11,1 C 10,0 C 79 % 1015,2 hPa 0,0 l/m 20,9 km/h (4 Bft) S 180 0 min 0,0 UV-I 0 W/m 7,6 C 4,4 C 25,7 km/h (4 Bft)
02.01.2023 01:14 11,1 C 10,0 C 79 % 1015,1 hPa 0,0 l/m 14,5 km/h (3 Bft) S 180 0 min 0,0 UV-I 0 W/m 7,6 C 6,7 C 22,5 km/h (4 Bft)
02.01.2023 01:15 11,1 C 10,0 C 79 % 1015,1 hPa 0,0 l/m 14,5 km/h (3 Bft) S-SO 157 0 min 0,0 UV-I 0 W/m 7,6 C 6,7 C 20,9 km/h (4 Bft)
02.01.2023 01:16 11,1 C 10,0 C 79 % 1015,1 hPa 0,0 l/m 20,9 km/h (4 Bft) S 180 0 min 0,0 UV-I 0 W/m 7,6 C 4,4 C 32,2 km/h (5 Bft)
02.01.2023 01:17 11,1 C 10,6 C 78 % 1015,1 hPa 0,0 l/m 14,5 km/h (3 Bft) S 180 0 min 0,0 UV-I 0 W/m 7,4 C 6,7 C 20,9 km/h (4 Bft)
02.01.2023 01:18 11,1 C 10,6 C 78 % 1015,0 hPa 0,0 l/m 14,5 km/h (3 Bft) S-SO 157 0 min 0,0 UV-I 0 W/m 7,4 C 6,7 C 22,5 km/h (4 Bft)
02.01.2023 01:19 11,1 C 10,6 C 78 % 1015,0 hPa 0,0 l/m 16,1 km/h (3 Bft) S 180 0 min 0,0 UV-I 0 W/m 7,4 C 6,0 C 24,1 km/h (4 Bft)
02.01.2023 01:20 11,1 C 10,0 C 78 % 1015,0 hPa 0,0 l/m 16,1 km/h (3 Bft) S-SO 157 0 min 0,0 UV-I 0 W/m 7,4 C 6,0 C 19,3 km/h (3 Bft)
02.01.2023 01:21 11,1 C 10,0 C 78 % 1014,9 hPa 0,0 l/m 17,7 km/h (3 Bft) S 180 0 min 0,0 UV-I 0 W/m 7,4 C 5,5 C 25,7 km/h (4 Bft)
02.01.2023 01:22 11,1 C 10,6 C 78 % 1014,9 hPa 0,0 l/m 16,1 km/h (3 Bft) S 180 0 min 0,0 UV-I 0 W/m 7,4 C 6,0 C 25,7 km/h (4 Bft)
02.01.2023 01:23 11,1 C 10,0 C 78 % 1014,9 hPa 0,0 l/m 11,3 km/h (2 Bft) S 180 0 min 0,0 UV-I 0 W/m 7,4 C 8,1 C 16,1 km/h (3 Bft)
02.01.2023 01:24 11,1 C 10,0 C 78 % 1014,8 hPa 0,0 l/m 11,3 km/h (2 Bft) S 180 0 min 0,0 UV-I 0 W/m 7,4 C 8,1 C 16,1 km/h (3 Bft)
02.01.2023 01:25 11,0 C 10,0 C 78 % 1014,8 hPa 0,0 l/m 14,5 km/h (3 Bft) S 180 0 min 0,0 UV-I 0 W/m 7,3 C 6,5 C 19,3 km/h (3 Bft)
02.01.2023 01:26 11,0 C 10,0 C 78 % 1014,9 hPa 0,0 l/m 17,7 km/h (3 Bft) S-SO 157 0 min 0,0 UV-I 0 W/m 7,3 C 5,3 C 24,1 km/h (4 Bft)
02.01.2023 01:27 11,0 C 10,0 C 78 % 1014,9 hPa 0,0 l/m 20,9 km/h (4 Bft) S 180 0 min 0,0 UV-I 0 W/m 7,3 C 4,3 C 29,0 km/h (5 Bft)
02.01.2023 01:28 11,0 C 10,0 C 78 % 1014,8 hPa 0,0 l/m 16,1 km/h (3 Bft) S 180 0 min 0,0 UV-I 0 W/m 7,3 C 5,9 C 30,6 km/h (5 Bft)
02.01.2023 01:29 11,0 C 10,0 C 78 % 1014,9 hPa 0,0 l/m 19,3 km/h (3 Bft) S 180 0 min 0,0 UV-I 0 W/m 7,3 C 4,8 C 25,7 km/h (4 Bft)
02.01.2023 01:30 11,0 C 10,0 C 78 % 1014,8 hPa 0,0 l/m 19,3 km/h (3 Bft) S 180 0 min 0,0 UV-I 0 W/m 7,3 C 4,8 C 27,4 km/h (4 Bft)
02.01.2023 01:31 11,0 C 10,0 C 78 % 1014,9 hPa 0,0 l/m 20,9 km/h (4 Bft) S 180 0 min 0,0 UV-I 0 W/m 7,3 C 4,3 C 25,7 km/h (4 Bft)
02.01.2023 01:32 11,0 C 10,0 C 78 % 1014,8 hPa 0,0 l/m 19,3 km/h (3 Bft) S 180 0 min 0,0 UV-I 0 W/m 7,3 C 4,8 C 25,7 km/h (4 Bft)
02.01.2023 01:33 11,0 C 10,0 C 78 % 1014,8 hPa 0,0 l/m 19,3 km/h (3 Bft) S-SO 157 0 min 0,0 UV-I 0 W/m 7,3 C 4,8 C 24,1 km/h (4 Bft)
02.01.2023 01:34 11,0 C 10,0 C 78 % 1014,8 hPa 0,0 l/m 14,5 km/h (3 Bft) S 180 0 min 0,0 UV-I 0 W/m 7,3 C 6,5 C 20,9 km/h (4 Bft)
02.01.2023 01:35 11,0 C 10,0 C 78 % 1014,7 hPa 0,0 l/m 14,5 km/h (3 Bft) S 180 0 min 0,0 UV-I 0 W/m 7,3 C 6,5 C 19,3 km/h (3 Bft)
02.01.2023 01:36 11,1 C 10,0 C 78 % 1014,8 hPa 0,0 l/m 12,9 km/h (3 Bft) S 180 0 min 0,0 UV-I 0 W/m 7,4 C 7,4 C 20,9 km/h (4 Bft)
02.01.2023 01:37 11,0 C 10,0 C 78 % 1014,7 hPa 0,0 l/m 16,1 km/h (3 Bft) S 180 0 min 0,0 UV-I 0 W/m 7,3 C 5,9 C 32,2 km/h (5 Bft)
02.01.2023 01:38 10,9 C 10,0 C 78 % 1014,8 hPa 0,0 l/m 17,7 km/h (3 Bft) S 180 0 min 0,0 UV-I 0 W/m 7,2 C 5,2 C 30,6 km/h (5 Bft)
02.01.2023 01:39 10,9 C 10,0 C 78 % 1014,8 hPa 0,0 l/m 16,1 km/h (3 Bft) S 180 0 min 0,0 UV-I 0 W/m 7,2 C 5,8 C 24,1 km/h (4 Bft)
02.01.2023 01:40 10,9 C 10,0 C 78 % 1014,8 hPa 0,0 l/m 19,3 km/h (3 Bft) S 180 0 min 0,0 UV-I 0 W/m 7,2 C 4,7 C 33,8 km/h (5 Bft)
02.01.2023 01:41 10,9 C 10,0 C 78 % 1015,0 hPa 0,0 l/m 22,5 km/h (4 Bft) S 180 0 min 0,0 UV-I 0 W/m 7,2 C 3,7 C 32,2 km/h (5 Bft)
02.01.2023 01:42 10,9 C 10,0 C 78 % 1014,8 hPa 0,0 l/m 16,1 km/h (3 Bft) S-SO 157 0 min 0,0 UV-I 0 W/m 7,2 C 5,8 C 25,7 km/h (4 Bft)
02.01.2023 01:43 10,9 C 10,0 C 78 % 1014,8 hPa 0,0 l/m 16,1 km/h (3 Bft) S-SO 157 0 min 0,0 UV-I 0 W/m 7,2 C 5,8 C 22,5 km/h (4 Bft)
02.01.2023 01:44 10,9 C 10,0 C 78 % 1014,8 hPa 0,0 l/m 17,7 km/h (3 Bft) S 180 0 min 0,0 UV-I 0 W/m 7,2 C 5,2 C 24,1 km/h (4 Bft)
02.01.2023 01:45 10,9 C 10,0 C 78 % 1014,7 hPa 0,0 l/m 14,5 km/h (3 Bft) S 180 0 min 0,0 UV-I 0 W/m 7,2 C 6,4 C 25,7 km/h (4 Bft)
02.01.2023 01:46 10,9 C 10,0 C 78 % 1014,8 hPa 0,0 l/m 16,1 km/h (3 Bft) S 180 0 min 0,0 UV-I 0 W/m 7,2 C 5,8 C 22,5 km/h (4 Bft)
02.01.2023 01:47 10,9 C 9,4 C 78 % 1014,7 hPa 0,0 l/m 16,1 km/h (3 Bft) S 180 0 min 0,0 UV-I 0 W/m 7,2 C 5,8 C 22,5 km/h (4 Bft)
02.01.2023 01:48 10,8 C 9,4 C 78 % 1014,8 hPa 0,0 l/m 19,3 km/h (3 Bft) S 180 0 min 0,0 UV-I 0 W/m 7,1 C 4,5 C 29,0 km/h (5 Bft)
02.01.2023 01:49 10,8 C 10,0 C 78 % 1015,0 hPa 0,0 l/m 19,3 km/h (3 Bft) S-SO 157 0 min 0,0 UV-I 0 W/m 7,1 C 4,5 C 27,4 km/h (4 Bft)
02.01.2023 01:50 10,8 C 10,0 C 78 % 1014,9 hPa 0,0 l/m 17,7 km/h (3 Bft) S 180 0 min 0,0 UV-I 0 W/m 7,1 C 5,1 C 27,4 km/h (4 Bft)
02.01.2023 01:51 10,8 C 10,0 C 78 % 1014,8 hPa 0,0 l/m 14,5 km/h (3 Bft) S 180 0 min 0,0 UV-I 0 W/m 7,1 C 6,3 C 19,3 km/h (3 Bft)
02.01.2023 01:52 10,8 C 9,4 C 78 % 1014,8 hPa 0,0 l/m 12,9 km/h (3 Bft) S-SO 157 0 min 0,0 UV-I 0 W/m 7,1 C 7,0 C 17,7 km/h (3 Bft)
02.01.2023 01:53 10,8 C 9,4 C 78 % 1014,6 hPa 0,0 l/m 16,1 km/h (3 Bft) S 180 0 min 0,0 UV-I 0 W/m 7,1 C 5,7 C 22,5 km/h (4 Bft)
02.01.2023 01:54 10,8 C 9,4 C 78 % 1014,7 hPa 0,0 l/m 12,9 km/h (3 Bft) S 180 0 min 0,0 UV-I 0 W/m 7,1 C 7,0 C 17,7 km/h (3 Bft)
02.01.2023 01:55 10,8 C 9,4 C 78 % 1014,8 hPa 0,0 l/m 17,7 km/h (3 Bft) S 180 0 min 0,0 UV-I 0 W/m 7,1 C 5,1 C 30,6 km/h (5 Bft)
02.01.2023 01:56 10,7 C 9,4 C 78 % 1014,8 hPa 0,0 l/m 16,1 km/h (3 Bft) S 180 0 min 0,0 UV-I 0 W/m 7,0 C 5,5 C 22,5 km/h (4 Bft)
02.01.2023 01:57 10,7 C 9,4 C 79 % 1014,9 hPa 0,0 l/m 14,5 km/h (3 Bft) S 180 0 min 0,0 UV-I 0 W/m 7,2 C 6,2 C 20,9 km/h (4 Bft)
02.01.2023 01:58 10,7 C 9,4 C 79 % 1014,7 hPa 0,0 l/m 14,5 km/h (3 Bft) S 180 0 min 0,0 UV-I 0 W/m 7,2 C 6,2 C 20,9 km/h (4 Bft)
02.01.2023 01:59 10,7 C 9,4 C 79 % 1014,7 hPa 0,0 l/m 19,3 km/h (3 Bft) S 180 0 min 0,0 UV-I 0 W/m 7,2 C 4,4 C 27,4 km/h (4 Bft)
02.01.2023 02:00 10,7 C 9,4 C 79 % 1014,7 hPa 0,0 l/m 19,3 km/h (3 Bft) S 180 0 min 0,0 UV-I 0 W/m 7,2 C 4,4 C 25,7 km/h (4 Bft)
02.01.2023 02:01 10,7 C 10,0 C 79 % 1014,8 hPa 0,0 l/m 19,3 km/h (3 Bft) S 180 0 min 0,0 UV-I 0 W/m 7,2 C 4,4 C 30,6 km/h (5 Bft)
02.01.2023 02:02 10,7 C 10,0 C 79 % 1014,7 hPa 0,0 l/m 16,1 km/h (3 Bft) S 180 0 min 0,0 UV-I 0 W/m 7,2 C 5,5 C 27,4 km/h (4 Bft)
02.01.2023 02:03 10,8 C 9,4 C 79 % 1014,7 hPa 0,0 l/m 17,7 km/h (3 Bft) S 180 0 min 0,0 UV-I 0 W/m 7,3 C 5,1 C 24,1 km/h (4 Bft)
02.01.2023 02:04 10,7 C 9,4 C 79 % 1014,7 hPa 0,0 l/m 22,5 km/h (4 Bft) S-SO 157 0 min 0,0 UV-I 0 W/m 7,2 C 3,4 C 29,0 km/h (5 Bft)
02.01.2023 02:05 10,7 C 10,0 C 79 % 1014,7 hPa 0,0 l/m 20,9 km/h (4 Bft) S 180 0 min 0,0 UV-I 0 W/m 7,2 C 3,9 C 32,2 km/h (5 Bft)
02.01.2023 02:06 10,7 C 10,0 C 78 % 1014,8 hPa 0,0 l/m 17,7 km/h (3 Bft) S 180 0 min 0,0 UV-I 0 W/m 7,0 C 5,0 C 24,1 km/h (4 Bft)
02.01.2023 02:07 10,8 C 9,4 C 78 % 1014,7 hPa 0,0 l/m 14,5 km/h (3 Bft) S 180 0 min 0,0 UV-I 0 W/m 7,1 C 6,3 C 22,5 km/h (4 Bft)
02.01.2023 02:08 10,7 C 9,4 C 78 % 1014,7 hPa 0,0 l/m 20,9 km/h (4 Bft) S-SW 202 0 min 0,0 UV-I 0 W/m 7,0 C 3,9 C 30,6 km/h (5 Bft)
02.01.2023 02:09 10,7 C 9,4 C 78 % 1014,9 hPa 0,0 l/m 19,3 km/h (3 Bft) S 180 0 min 0,0 UV-I 0 W/m 7,0 C 4,4 C 25,7 km/h (4 Bft)
02.01.2023 02:10 10,7 C 9,4 C 78 % 1014,9 hPa 0,0 l/m 16,1 km/h (3 Bft) S-SO 157 0 min 0,0 UV-I 0 W/m 7,0 C 5,5 C 25,7 km/h (4 Bft)
02.01.2023 02:11 10,7 C 9,4 C 78 % 1014,8 hPa 0,0 l/m 12,9 km/h (3 Bft) S 180 0 min 0,0 UV-I 0 W/m 7,0 C 6,9 C 22,5 km/h (4 Bft)
02.01.2023 02:12 10,7 C 9,4 C 78 % 1014,9 hPa 0,0 l/m 17,7 km/h (3 Bft) S 180 0 min 0,0 UV-I 0 W/m 7,0 C 5,0 C 29,0 km/h (5 Bft)
02.01.2023 02:13 10,7 C 9,4 C 78 % 1014,9 hPa 0,0 l/m 16,1 km/h (3 Bft) S 180 0 min 0,0 UV-I 0 W/m 7,0 C 5,5 C 25,7 km/h (4 Bft)
02.01.2023 02:14 10,6 C 9,4 C 78 % 1014,9 hPa 0,0 l/m 11,3 km/h (2 Bft) S 180 0 min 0,0 UV-I 0 W/m 6,9 C 7,6 C 17,7 km/h (3 Bft)
02.01.2023 02:15 10,7 C 9,4 C 79 % 1014,9 hPa 0,0 l/m 16,1 km/h (3 Bft) S 180 0 min 0,0 UV-I 0 W/m 7,2 C 5,5 C 22,5 km/h (4 Bft)
02.01.2023 02:16 10,6 C 9,4 C 79 % 1014,9 hPa 0,0 l/m 16,1 km/h (3 Bft) S 180 0 min 0,0 UV-I 0 W/m 7,1 C 5,4 C 22,5 km/h (4 Bft)
02.01.2023 02:17 10,6 C 9,4 C 79 % 1014,8 hPa 0,0 l/m 14,5 km/h (3 Bft) S 180 0 min 0,0 UV-I 0 W/m 7,1 C 6,1 C 19,3 km/h (3 Bft)
02.01.2023 02:18 10,6 C 9,4 C 78 % 1014,9 hPa 0,0 l/m 16,1 km/h (3 Bft) S 180 0 min 0,0 UV-I 0 W/m 6,9 C 5,4 C 24,1 km/h (4 Bft)
02.01.2023 02:19 10,6 C 9,4 C 79 % 1014,8 hPa 0,0 l/m 16,1 km/h (3 Bft) S-SO 157 0 min 0,0 UV-I 0 W/m 7,1 C 5,4 C 19,3 km/h (3 Bft)
02.01.2023 02:20 10,6 C 9,4 C 79 % 1014,6 hPa 0,0 l/m 14,5 km/h (3 Bft) S 180 0 min 0,0 UV-I 0 W/m 7,1 C 6,1 C 19,3 km/h (3 Bft)
02.01.2023 02:21 10,6 C 9,4 C 79 % 1014,8 hPa 0,0 l/m 16,1 km/h (3 Bft) S 180 0 min 0,0 UV-I 0 W/m 7,1 C 5,4 C 24,1 km/h (4 Bft)
02.01.2023 02:22 10,6 C 9,4 C 79 % 1014,9 hPa 0,0 l/m 20,9 km/h (4 Bft) S 180 0 min 0,0 UV-I 0 W/m 7,1 C 3,8 C 30,6 km/h (5 Bft)
02.01.2023 02:23 10,6 C 9,4 C 79 % 1014,7 hPa 0,0 l/m 11,3 km/h (2 Bft) S 180 0 min 0,0 UV-I 0 W/m 7,1 C 7,6 C 20,9 km/h (4 Bft)
02.01.2023 02:24 10,6 C 9,4 C 79 % 1014,7 hPa 0,0 l/m 14,5 km/h (3 Bft) S 180 0 min 0,0 UV-I 0 W/m 7,1 C 6,1 C 24,1 km/h (4 Bft)
02.01.2023 02:25 10,6 C 9,4 C 79 % 1014,7 hPa 0,0 l/m 17,7 km/h (3 Bft) S 180 0 min 0,0 UV-I 0 W/m 7,1 C 4,8 C 29,0 km/h (5 Bft)
02.01.2023 02:26 10,5 C 9,4 C 79 % 1014,7 hPa 0,0 l/m 11,3 km/h (2 Bft) S 180 0 min 0,0 UV-I 0 W/m 7,0 C 7,4 C 14,5 km/h (3 Bft)
02.01.2023 02:27 10,5 C 9,4 C 79 % 1014,6 hPa 0,0 l/m 20,9 km/h (4 Bft) S 180 0 min 0,0 UV-I 0 W/m 7,0 C 3,7 C 33,8 km/h (5 Bft)
02.01.2023 02:28 10,5 C 9,4 C 78 % 1014,7 hPa 0,0 l/m 14,5 km/h (3 Bft) S 180 0 min 0,0 UV-I 0 W/m 6,8 C 5,9 C 20,9 km/h (4 Bft)
02.01.2023 02:29 10,5 C 9,4 C 79 % 1014,7 hPa 0,0 l/m 14,5 km/h (3 Bft) S-SO 157 0 min 0,0 UV-I 0 W/m 7,0 C 5,9 C 19,3 km/h (3 Bft)
02.01.2023 02:30 10,6 C 9,4 C 78 % 1014,7 hPa 0,0 l/m 16,1 km/h (3 Bft) S 180 0 min 0,0 UV-I 0 W/m 6,9 C 5,4 C 24,1 km/h (4 Bft)
02.01.2023 02:31 10,5 C 9,4 C 79 % 1014,7 hPa 0,0 l/m 16,1 km/h (3 Bft) S 180 0 min 0,0 UV-I 0 W/m 7,0 C 5,3 C 20,9 km/h (4 Bft)
02.01.2023 02:32 10,6 C 9,4 C 78 % 1014,7 hPa 0,0 l/m 19,3 km/h (3 Bft) S 180 0 min 0,0 UV-I 0 W/m 6,9 C 4,3 C 27,4 km/h (4 Bft)
02.01.2023 02:33 10,6 C 9,4 C 78 % 1014,6 hPa 0,0 l/m 14,5 km/h (3 Bft) S 180 0 min 0,0 UV-I 0 W/m 6,9 C 6,1 C 17,7 km/h (3 Bft)
02.01.2023 02:34 10,6 C 10,0 C 79 % 1014,7 hPa 0,0 l/m 17,7 km/h (3 Bft) S 180 0 min 0,0 UV-I 0 W/m 7,1 C 4,8 C 24,1 km/h (4 Bft)
02.01.2023 02:35 10,6 C 10,0 C 78 % 1014,7 hPa 0,0 l/m 16,1 km/h (3 Bft) S 180 0 min 0,0 UV-I 0 W/m 6,9 C 5,4 C 29,0 km/h (5 Bft)
02.01.2023 02:36 10,7 C 10,0 C 78 % 1014,7 hPa 0,0 l/m 17,7 km/h (3 Bft) S-SO 157 0 min 0,0 UV-I 0 W/m 7,0 C 5,0 C 25,7 km/h (4 Bft)
02.01.2023 02:37 10,7 C 10,0 C 78 % 1014,6 hPa 0,0 l/m 17,7 km/h (3 Bft) S-SO 157 0 min 0,0 UV-I 0 W/m 7,0 C 5,0 C 27,4 km/h (4 Bft)
02.01.2023 02:38 10,7 C 10,0 C 78 % 1014,7 hPa 0,0 l/m 14,5 km/h (3 Bft) S-SW 202 0 min 0,0 UV-I 0 W/m 7,0 C 6,2 C 27,4 km/h (4 Bft)
02.01.2023 02:39 10,8 C 10,0 C 78 % 1014,7 hPa 0,0 l/m 20,9 km/h (4 Bft) S 180 0 min 0,0 UV-I 0 W/m 7,1 C 4,0 C 30,6 km/h (5 Bft)
02.01.2023 02:40 10,8 C 10,0 C 78 % 1014,6 hPa 0,0 l/m 17,7 km/h (3 Bft) S 180 0 min 0,0 UV-I 0 W/m 7,1 C 5,1 C 27,4 km/h (4 Bft)
02.01.2023 02:41 10,8 C 10,0 C 78 % 1014,7 hPa 0,0 l/m 16,1 km/h (3 Bft) S 180 0 min 0,0 UV-I 0 W/m 7,1 C 5,7 C 24,1 km/h (4 Bft)
02.01.2023 02:42 10,8 C 10,0 C 78 % 1014,7 hPa 0,0 l/m 20,9 km/h (4 Bft) S-SW 202 0 min 0,0 UV-I 0 W/m 7,1 C 4,0 C 30,6 km/h (5 Bft)
02.01.2023 02:43 10,8 C 10,0 C 78 % 1014,7 hPa 0,0 l/m 19,3 km/h (3 Bft) S 180 0 min 0,0 UV-I 0 W/m 7,1 C 4,5 C 25,7 km/h (4 Bft)
02.01.2023 02:44 10,9 C 10,0 C 77 % 1014,7 hPa 0,0 l/m 17,7 km/h (3 Bft) S 180 0 min 0,0 UV-I 0 W/m 7,0 C 5,2 C 22,5 km/h (4 Bft)
02.01.2023 02:45 10,8 C 10,0 C 77 % 1014,6 hPa 0,0 l/m 16,1 km/h (3 Bft) S 180 0 min 0,0 UV-I 0 W/m 6,9 C 5,7 C 20,9 km/h (4 Bft)
02.01.2023 02:46 10,8 C 10,0 C 77 % 1014,7 hPa 0,0 l/m 22,5 km/h (4 Bft) S-SO 157 0 min 0,0 UV-I 0 W/m 6,9 C 3,6 C 35,4 km/h (5 Bft)
02.01.2023 02:47 10,9 C 10,0 C 78 % 1014,6 hPa 0,0 l/m 14,5 km/h (3 Bft) S-SO 157 0 min 0,0 UV-I 0 W/m 7,2 C 6,4 C 25,7 km/h (4 Bft)
02.01.2023 02:48 10,9 C 10,0 C 78 % 1014,7 hPa 0,0 l/m 17,7 km/h (3 Bft) S 180 0 min 0,0 UV-I 0 W/m 7,2 C 5,2 C 24,1 km/h (4 Bft)
02.01.2023 02:49 10,9 C 10,0 C 77 % 1014,8 hPa 0,0 l/m 17,7 km/h (3 Bft) S 180 0 min 0,0 UV-I 0 W/m 7,0 C 5,2 C 27,4 km/h (4 Bft)
02.01.2023 02:50 10,9 C 10,0 C 77 % 1014,7 hPa 0,0 l/m 17,7 km/h (3 Bft) S 180 0 min 0,0 UV-I 0 W/m 7,0 C 5,2 C 27,4 km/h (4 Bft)
02.01.2023 02:51 10,9 C 10,0 C 78 % 1014,8 hPa 0,0 l/m 19,3 km/h (3 Bft) S 180 0 min 0,0 UV-I 0 W/m 7,2 C 4,7 C 35,4 km/h (5 Bft)
02.01.2023 02:52 10,9 C 10,0 C 77 % 1014,9 hPa 0,0 l/m 19,3 km/h (3 Bft) S 180 0 min 0,0 UV-I 0 W/m 7,0 C 4,7 C 27,4 km/h (4 Bft)
02.01.2023 02:53 10,9 C 10,6 C 77 % 1014,7 hPa 0,0 l/m 19,3 km/h (3 Bft) S 180 0 min 0,0 UV-I 0 W/m 7,0 C 4,7 C 37,0 km/h (5 Bft)
02.01.2023 02:54 10,9 C 10,0 C 77 % 1014,7 hPa 0,0 l/m 17,7 km/h (3 Bft) S 180 0 min 0,0 UV-I 0 W/m 7,0 C 5,2 C 32,2 km/h (5 Bft)
02.01.2023 02:55 10,9 C 10,6 C 77 % 1014,8 hPa 0,0 l/m 20,9 km/h (4 Bft) S 180 0 min 0,0 UV-I 0 W/m 7,0 C 4,2 C 29,0 km/h (5 Bft)
02.01.2023 02:56 10,9 C 10,6 C 77 % 1014,8 hPa 0,0 l/m 19,3 km/h (3 Bft) S-SO 157 0 min 0,0 UV-I 0 W/m 7,0 C 4,7 C 33,8 km/h (5 Bft)
02.01.2023 02:57 10,9 C 10,6 C 77 % 1014,8 hPa 0,0 l/m 19,3 km/h (3 Bft) S 180 0 min 0,0 UV-I 0 W/m 7,0 C 4,7 C 29,0 km/h (5 Bft)
02.01.2023 02:58 10,9 C 10,6 C 77 % 1014,8 hPa 0,0 l/m 22,5 km/h (4 Bft) S 180 0 min 0,0 UV-I 0 W/m 7,0 C 3,7 C 30,6 km/h (5 Bft)
02.01.2023 02:59 11,0 C 10,6 C 77 % 1014,7 hPa 0,0 l/m 22,5 km/h (4 Bft) S-SO 157 0 min 0,0 UV-I 0 W/m 7,1 C 3,8 C 32,2 km/h (5 Bft)
02.01.2023 03:00 11,1 C 10,6 C 77 % 1014,9 hPa 0,0 l/m 22,5 km/h (4 Bft) S-SO 157 0 min 0,0 UV-I 0 W/m 7,2 C 4,0 C 30,6 km/h (5 Bft)
02.01.2023 03:01 11,0 C 10,6 C 76 % 1014,9 hPa 0,0 l/m 19,3 km/h (3 Bft) S 180 0 min 0,0 UV-I 0 W/m 6,9 C 4,8 C 35,4 km/h (5 Bft)
02.01.2023 03:02 11,1 C 10,6 C 76 % 1014,9 hPa 0,0 l/m 19,3 km/h (3 Bft) S 180 0 min 0,0 UV-I 0 W/m 7,0 C 4,9 C 25,7 km/h (4 Bft)
02.01.2023 03:03 11,1 C 10,6 C 76 % 1014,8 hPa 0,0 l/m 16,1 km/h (3 Bft) S 180 0 min 0,0 UV-I 0 W/m 7,0 C 6,0 C 27,4 km/h (4 Bft)
02.01.2023 03:04 11,1 C 10,6 C 76 % 1014,8 hPa 0,0 l/m 16,1 km/h (3 Bft) S 180 0 min 0,0 UV-I 0 W/m 7,0 C 6,0 C 22,5 km/h (4 Bft)
02.01.2023 03:05 11,1 C 10,6 C 76 % 1015,0 hPa 0,0 l/m 19,3 km/h (3 Bft) S-SO 157 0 min 0,0 UV-I 0 W/m 7,0 C 4,9 C 32,2 km/h (5 Bft)
02.01.2023 03:06 11,1 C 10,6 C 76 % 1014,7 hPa 0,0 l/m 17,7 km/h (3 Bft) S-SO 157 0 min 0,0 UV-I 0 W/m 7,0 C 5,5 C 24,1 km/h (4 Bft)
02.01.2023 03:07 11,1 C 10,6 C 76 % 1014,7 hPa 0,0 l/m 16,1 km/h (3 Bft) S 180 0 min 0,0 UV-I 0 W/m 7,0 C 6,0 C 24,1 km/h (4 Bft)
02.01.2023 03:08 11,1 C 10,6 C 76 % 1014,7 hPa 0,0 l/m 20,9 km/h (4 Bft) S 180 0 min 0,0 UV-I 0 W/m 7,0 C 4,4 C 37,0 km/h (5 Bft)
02.01.2023 03:09 11,1 C 10,6 C 76 % 1014,7 hPa 0,0 l/m 19,3 km/h (3 Bft) S 180 0 min 0,0 UV-I 0 W/m 7,0 C 4,9 C 27,4 km/h (4 Bft)
02.01.2023 03:10 11,1 C 10,6 C 76 % 1014,8 hPa 0,0 l/m 19,3 km/h (3 Bft) S-SW 202 0 min 0,0 UV-I 0 W/m 7,0 C 4,9 C 32,2 km/h (5 Bft)
02.01.2023 03:11 11,1 C 10,6 C 76 % 1014,7 hPa 0,0 l/m 17,7 km/h (3 Bft) S-SO 157 0 min 0,0 UV-I 0 W/m 7,0 C 5,5 C 37,0 km/h (5 Bft)
02.01.2023 03:12 11,2 C 10,6 C 76 % 1014,8 hPa 0,0 l/m 20,9 km/h (4 Bft) S-SO 157 0 min 0,0 UV-I 0 W/m 7,1 C 4,6 C 32,2 km/h (5 Bft)
02.01.2023 03:13 11,2 C 10,6 C 76 % 1014,7 hPa 0,0 l/m 20,9 km/h (4 Bft) S 180 0 min 0,0 UV-I 0 W/m 7,1 C 4,6 C 29,0 km/h (5 Bft)
02.01.2023 03:14 11,2 C 10,6 C 76 % 1014,7 hPa 0,0 l/m 20,9 km/h (4 Bft) S 180 0 min 0,0 UV-I 0 W/m 7,1 C 4,6 C 38,6 km/h (5 Bft)
02.01.2023 03:15 11,2 C 10,6 C 76 % 1014,8 hPa 0,0 l/m 24,1 km/h (4 Bft) S 180 0 min 0,0 UV-I 0 W/m 7,1 C 3,7 C 33,8 km/h (5 Bft)
02.01.2023 03:16 11,2 C 10,6 C 76 % 1014,6 hPa 0,0 l/m 16,1 km/h (3 Bft) S 180 0 min 0,0 UV-I 0 W/m 7,1 C 6,2 C 24,1 km/h (4 Bft)
02.01.2023 03:17 11,2 C 10,6 C 75 % 1014,7 hPa 0,0 l/m 16,1 km/h (3 Bft) S 180 0 min 0,0 UV-I 0 W/m 6,9 C 6,2 C 22,5 km/h (4 Bft)
02.01.2023 03:18 11,2 C 10,6 C 75 % 1014,8 hPa 0,0 l/m 20,9 km/h (4 Bft) S-SW 202 0 min 0,0 UV-I 0 W/m 6,9 C 4,6 C 29,0 km/h (5 Bft)
02.01.2023 03:19 11,2 C 10,6 C 75 % 1014,7 hPa 0,0 l/m 19,3 km/h (3 Bft) S-SO 157 0 min 0,0 UV-I 0 W/m 6,9 C 5,1 C 29,0 km/h (5 Bft)
02.01.2023 03:20 11,2 C 10,6 C 76 % 1014,7 hPa 0,0 l/m 16,1 km/h (3 Bft) S-SO 157 0 min 0,0 UV-I 0 W/m 7,1 C 6,2 C 25,7 km/h (4 Bft)
02.01.2023 03:21 11,2 C 10,6 C 76 % 1014,8 hPa 0,0 l/m 14,5 km/h (3 Bft) S 180 0 min 0,0 UV-I 0 W/m 7,1 C 6,8 C 22,5 km/h (4 Bft)
02.01.2023 03:22 11,2 C 10,0 C 76 % 1014,8 hPa 0,0 l/m 22,5 km/h (4 Bft) S 180 0 min 0,0 UV-I 0 W/m 7,1 C 4,1 C 32,2 km/h (5 Bft)
02.01.2023 03:23 11,2 C 10,0 C 76 % 1014,7 hPa 0,0 l/m 22,5 km/h (4 Bft) S-SO 157 0 min 0,0 UV-I 0 W/m 7,1 C 4,1 C 32,2 km/h (5 Bft)
02.01.2023 03:24 11,2 C 10,0 C 75 % 1014,6 hPa 0,0 l/m 25,7 km/h (4 Bft) S 180 0 min 0,0 UV-I 0 W/m 6,9 C 3,3 C 33,8 km/h (5 Bft)
02.01.2023 03:25 11,2 C 10,0 C 75 % 1014,6 hPa 0,0 l/m 17,7 km/h (3 Bft) S 180 0 min 0,0 UV-I 0 W/m 6,9 C 5,6 C 25,7 km/h (4 Bft)
02.01.2023 03:26 11,2 C 10,0 C 75 % 1014,6 hPa 0,0 l/m 27,4 km/h (4 Bft) S 180 0 min 0,0 UV-I 0 W/m 6,9 C 2,9 C 33,8 km/h (5 Bft)
02.01.2023 03:27 11,1 C 10,0 C 75 % 1014,6 hPa 0,0 l/m 22,5 km/h (4 Bft) S 180 0 min 0,0 UV-I 0 W/m 6,8 C 4,0 C 29,0 km/h (5 Bft)
02.01.2023 03:28 11,1 C 10,0 C 75 % 1014,6 hPa 0,0 l/m 17,7 km/h (3 Bft) S-SO 157 0 min 0,0 UV-I 0 W/m 6,8 C 5,5 C 25,7 km/h (4 Bft)
02.01.2023 03:29 11,1 C 10,0 C 75 % 1014,7 hPa 0,0 l/m 12,9 km/h (3 Bft) S-SO 157 0 min 0,0 UV-I 0 W/m 6,8 C 7,4 C 17,7 km/h (3 Bft)
02.01.2023 03:30 11,1 C 10,0 C 75 % 1014,7 hPa 0,0 l/m 16,1 km/h (3 Bft) S 180 0 min 0,0 UV-I 0 W/m 6,8 C 6,0 C 25,7 km/h (4 Bft)
02.01.2023 03:31 11,1 C 10,0 C 76 % 1014,7 hPa 0,0 l/m 16,1 km/h (3 Bft) S-SO 157 0 min 0,0 UV-I 0 W/m 7,0 C 6,0 C 25,7 km/h (4 Bft)
02.01.2023 03:32 11,0 C 10,0 C 76 % 1014,8 hPa 0,0 l/m 14,5 km/h (3 Bft) S 180 0 min 0,0 UV-I 0 W/m 6,9 C 6,5 C 19,3 km/h (3 Bft)
02.01.2023 03:33 10,9 C 10,0 C 76 % 1014,6 hPa 0,0 l/m 17,7 km/h (3 Bft) S 180 0 min 0,0 UV-I 0 W/m 6,8 C 5,2 C 24,1 km/h (4 Bft)
02.01.2023 03:34 10,9 C 10,0 C 76 % 1014,6 hPa 0,0 l/m 19,3 km/h (3 Bft) S 180 0 min 0,0 UV-I 0 W/m 6,8 C 4,7 C 25,7 km/h (4 Bft)
02.01.2023 03:35 10,9 C 10,0 C 76 % 1014,7 hPa 0,0 l/m 19,3 km/h (3 Bft) S-SO 157 0 min 0,0 UV-I 0 W/m 6,8 C 4,7 C 29,0 km/h (5 Bft)
02.01.2023 03:36 10,9 C 10,0 C 76 % 1014,5 hPa 0,0 l/m 24,1 km/h (4 Bft) S 180 0 min 0,0 UV-I 0 W/m 6,8 C 3,3 C 40,2 km/h (6 Bft)
02.01.2023 03:37 10,9 C 10,0 C 76 % 1014,6 hPa 0,0 l/m 17,7 km/h (3 Bft) S 180 0 min 0,0 UV-I 0 W/m 6,8 C 5,2 C 24,1 km/h (4 Bft)
02.01.2023 03:38 10,9 C 10,0 C 76 % 1014,6 hPa 0,0 l/m 16,1 km/h (3 Bft) S-SO 157 0 min 0,0 UV-I 0 W/m 6,8 C 5,8 C 24,1 km/h (4 Bft)
02.01.2023 03:39 10,9 C 10,0 C 76 % 1014,6 hPa 0,0 l/m 16,1 km/h (3 Bft) S 180 0 min 0,0 UV-I 0 W/m 6,8 C 5,8 C 25,7 km/h (4 Bft)
02.01.2023 03:40 10,9 C 10,0 C 76 % 1014,6 hPa 0,0 l/m 24,1 km/h (4 Bft) S-SO 157 0 min 0,0 UV-I 0 W/m 6,8 C 3,3 C 37,0 km/h (5 Bft)
02.01.2023 03:41 10,9 C 10,0 C 76 % 1014,8 hPa 0,0 l/m 20,9 km/h (4 Bft) S-SO 157 0 min 0,0 UV-I 0 W/m 6,8 C 4,2 C 32,2 km/h (5 Bft)
02.01.2023 03:42 10,9 C 10,0 C 76 % 1014,7 hPa 0,0 l/m 17,7 km/h (3 Bft) S 180 0 min 0,0 UV-I 0 W/m 6,8 C 5,2 C 38,6 km/h (5 Bft)
02.01.2023 03:43 10,9 C 10,0 C 76 % 1014,8 hPa 0,0 l/m 19,3 km/h (3 Bft) S 180 0 min 0,0 UV-I 0 W/m 6,8 C 4,7 C 27,4 km/h (4 Bft)
02.01.2023 03:44 10,9 C 10,0 C 76 % 1014,7 hPa 0,0 l/m 24,1 km/h (4 Bft) S 180 0 min 0,0 UV-I 0 W/m 6,8 C 3,3 C 33,8 km/h (5 Bft)
02.01.2023 03:45 11,0 C 10,6 C 75 % 1014,5 hPa 0,0 l/m 17,7 km/h (3 Bft) S 180 0 min 0,0 UV-I 0 W/m 6,7 C 5,3 C 35,4 km/h (5 Bft)
02.01.2023 03:46 11,0 C 10,0 C 75 % 1014,5 hPa 0,0 l/m 19,3 km/h (3 Bft) S 180 0 min 0,0 UV-I 0 W/m 6,7 C 4,8 C 25,7 km/h (4 Bft)
02.01.2023 03:47 11,1 C 10,0 C 75 % 1014,5 hPa 0,0 l/m 16,1 km/h (3 Bft) S 180 0 min 0,0 UV-I 0 W/m 6,8 C 6,0 C 19,3 km/h (3 Bft)
02.01.2023 03:48 11,0 C 10,0 C 75 % 1014,5 hPa 0,0 l/m 17,7 km/h (3 Bft) S 180 0 min 0,0 UV-I 0 W/m 6,7 C 5,3 C 22,5 km/h (4 Bft)
02.01.2023 03:49 11,1 C 10,0 C 75 % 1014,5 hPa 0,0 l/m 22,5 km/h (4 Bft) S 180 0 min 0,0 UV-I 0 W/m 6,8 C 4,0 C 33,8 km/h (5 Bft)
02.01.2023 03:50 11,0 C 10,0 C 75 % 1014,5 hPa 0,0 l/m 22,5 km/h (4 Bft) S 180 0 min 0,0 UV-I 0 W/m 6,7 C 3,8 C 29,0 km/h (5 Bft)
02.01.2023 03:51 11,0 C 10,0 C 75 % 1014,5 hPa 0,0 l/m 16,1 km/h (3 Bft) S 180 0 min 0,0 UV-I 0 W/m 6,7 C 5,9 C 22,5 km/h (4 Bft)
02.01.2023 03:52 10,9 C 10,0 C 75 % 1014,5 hPa 0,0 l/m 20,9 km/h (4 Bft) S 180 0 min 0,0 UV-I 0 W/m 6,6 C 4,2 C 33,8 km/h (5 Bft)
02.01.2023 03:53 10,9 C 10,0 C 75 % 1014,6 hPa 0,0 l/m 24,1 km/h (4 Bft) S-SO 157 0 min 0,0 UV-I 0 W/m 6,6 C 3,3 C 38,6 km/h (5 Bft)
02.01.2023 03:54 10,9 C 10,0 C 75 % 1015,0 hPa 0,0 l/m 20,9 km/h (4 Bft) S 180 0 min 0,0 UV-I 0 W/m 6,6 C 4,2 C 33,8 km/h (5 Bft)
02.01.2023 03:55 10,9 C 10,0 C 75 % 1014,6 hPa 0,0 l/m 22,5 km/h (4 Bft) S 180 0 min 0,0 UV-I 0 W/m 6,6 C 3,7 C 32,2 km/h (5 Bft)
02.01.2023 03:56 10,9 C 10,0 C 75 % 1014,5 hPa 0,0 l/m 17,7 km/h (3 Bft) S 180 0 min 0,0 UV-I 0 W/m 6,6 C 5,2 C 24,1 km/h (4 Bft)
02.01.2023 03:57 10,9 C 9,4 C 75 % 1014,5 hPa 0,0 l/m 17,7 km/h (3 Bft) S 180 0 min 0,0 UV-I 0 W/m 6,6 C 5,2 C 24,1 km/h (4 Bft)
02.01.2023 03:58 10,9 C 9,4 C 75 % 1014,5 hPa 0,0 l/m 22,5 km/h (4 Bft) S 180 0 min 0,0 UV-I 0 W/m 6,6 C 3,7 C 38,6 km/h (5 Bft)
02.01.2023 03:59 10,9 C 9,4 C 75 % 1014,5 hPa 0,0 l/m 20,9 km/h (4 Bft) S 180 0 min 0,0 UV-I 0 W/m 6,6 C 4,2 C 32,2 km/h (5 Bft)
02.01.2023 04:00 10,8 C 10,0 C 75 % 1014,6 hPa 0,0 l/m 19,3 km/h (3 Bft) S-SO 157 0 min 0,0 UV-I 0 W/m 6,5 C 4,5 C 25,7 km/h (4 Bft)
02.01.2023 04:01 10,8 C 10,0 C 75 % 1014,5 hPa 0,0 l/m 16,1 km/h (3 Bft) S-SW 202 0 min 0,0 UV-I 0 W/m 6,5 C 5,7 C 24,1 km/h (4 Bft)
02.01.2023 04:02 10,8 C 10,0 C 76 % 1014,5 hPa 0,0 l/m 17,7 km/h (3 Bft) S 180 0 min 0,0 UV-I 0 W/m 6,7 C 5,1 C 27,4 km/h (4 Bft)
02.01.2023 04:03 10,8 C 9,4 C 76 % 1014,6 hPa 0,0 l/m 16,1 km/h (3 Bft) S 180 0 min 0,0 UV-I 0 W/m 6,7 C 5,7 C 27,4 km/h (4 Bft)
02.01.2023 04:04 10,8 C 9,4 C 76 % 1014,5 hPa 0,0 l/m 17,7 km/h (3 Bft) S 180 0 min 0,0 UV-I 0 W/m 6,7 C 5,1 C 29,0 km/h (5 Bft)
02.01.2023 04:05 10,8 C 9,4 C 76 % 1014,4 hPa 0,0 l/m 16,1 km/h (3 Bft) S 180 0 min 0,0 UV-I 0 W/m 6,7 C 5,7 C 22,5 km/h (4 Bft)
02.01.2023 04:06 10,8 C 9,4 C 76 % 1014,5 hPa 0,0 l/m 19,3 km/h (3 Bft) S-SO 157 0 min 0,0 UV-I 0 W/m 6,7 C 4,5 C 33,8 km/h (5 Bft)
02.01.2023 04:07 10,8 C 9,4 C 76 % 1014,6 hPa 0,0 l/m 20,9 km/h (4 Bft) S 180 0 min 0,0 UV-I 0 W/m 6,7 C 4,0 C 30,6 km/h (5 Bft)
02.01.2023 04:08 10,7 C 10,0 C 76 % 1014,6 hPa 0,0 l/m 16,1 km/h (3 Bft) S 180 0 min 0,0 UV-I 0 W/m 6,6 C 5,5 C 22,5 km/h (4 Bft)
02.01.2023 04:09 10,7 C 10,0 C 76 % 1014,5 hPa 0,0 l/m 14,5 km/h (3 Bft) S 180 0 min 0,0 UV-I 0 W/m 6,6 C 6,2 C 20,9 km/h (4 Bft)
02.01.2023 04:10 10,7 C 10,0 C 76 % 1014,5 hPa 0,0 l/m 14,5 km/h (3 Bft) S 180 0 min 0,0 UV-I 0 W/m 6,6 C 6,2 C 19,3 km/h (3 Bft)
02.01.2023 04:11 10,8 C 9,4 C 76 % 1014,5 hPa 0,0 l/m 17,7 km/h (3 Bft) S 180 0 min 0,0 UV-I 0 W/m 6,7 C 5,1 C 25,7 km/h (4 Bft)
02.01.2023 04:12 10,7 C 9,4 C 76 % 1014,6 hPa 0,0 l/m 19,3 km/h (3 Bft) S 180 0 min 0,0 UV-I 0 W/m 6,6 C 4,4 C 32,2 km/h (5 Bft)
02.01.2023 04:13 10,7 C 10,0 C 76 % 1014,6 hPa 0,0 l/m 22,5 km/h (4 Bft) S 180 0 min 0,0 UV-I 0 W/m 6,6 C 3,4 C 32,2 km/h (5 Bft)
02.01.2023 04:14 10,8 C 10,0 C 76 % 1014,6 hPa 0,0 l/m 24,1 km/h (4 Bft) S 180 0 min 0,0 UV-I 0 W/m 6,7 C 3,1 C 37,0 km/h (5 Bft)
02.01.2023 04:15 10,8 C 10,0 C 76 % 1014,6 hPa 0,0 l/m 17,7 km/h (3 Bft) S 180 0 min 0,0 UV-I 0 W/m 6,7 C 5,1 C 27,4 km/h (4 Bft)
02.01.2023 04:16 10,8 C 10,0 C 76 % 1014,5 hPa 0,0 l/m 19,3 km/h (3 Bft) S 180 0 min 0,0 UV-I 0 W/m 6,7 C 4,5 C 29,0 km/h (5 Bft)
02.01.2023 04:17 10,8 C 9,4 C 76 % 1014,6 hPa 0,0 l/m 19,3 km/h (3 Bft) S 180 0 min 0,0 UV-I 0 W/m 6,7 C 4,5 C 35,4 km/h (5 Bft)
02.01.2023 04:18 10,7 C 10,0 C 76 % 1014,4 hPa 0,0 l/m 20,9 km/h (4 Bft) S 180 0 min 0,0 UV-I 0 W/m 6,6 C 3,9 C 37,0 km/h (5 Bft)
02.01.2023 04:19 10,8 C 10,0 C 76 % 1014,6 hPa 0,0 l/m 17,7 km/h (3 Bft) S 180 0 min 0,0 UV-I 0 W/m 6,7 C 5,1 C 22,5 km/h (4 Bft)
02.01.2023 04:20 10,8 C 10,0 C 76 % 1014,6 hPa 0,0 l/m 20,9 km/h (4 Bft) S 180 0 min 0,0 UV-I 0 W/m 6,7 C 4,0 C 30,6 km/h (5 Bft)
02.01.2023 04:21 10,8 C 10,0 C 76 % 1014,7 hPa 0,0 l/m 29,0 km/h (5 Bft) S 180 0 min 0,0 UV-I 0 W/m 6,7 C 2,0 C 35,4 km/h (5 Bft)
02.01.2023 04:22 10,8 C 10,0 C 76 % 1014,7 hPa 0,0 l/m 22,5 km/h (4 Bft) S 180 0 min 0,0 UV-I 0 W/m 6,7 C 3,6 C 32,2 km/h (5 Bft)
02.01.2023 04:23 10,8 C 10,0 C 76 % 1014,6 hPa 0,0 l/m 20,9 km/h (4 Bft) S 180 0 min 0,0 UV-I 0 W/m 6,7 C 4,0 C 29,0 km/h (5 Bft)
02.01.2023 04:24 10,8 C 10,0 C 76 % 1014,6 hPa 0,0 l/m 19,3 km/h (3 Bft) S 180 0 min 0,0 UV-I 0 W/m 6,7 C 4,5 C 25,7 km/h (4 Bft)
02.01.2023 04:25 10,8 C 10,0 C 76 % 1014,6 hPa 0,0 l/m 17,7 km/h (3 Bft) S 180 0 min 0,0 UV-I 0 W/m 6,7 C 5,1 C 30,6 km/h (5 Bft)
02.01.2023 04:26 10,8 C 10,0 C 76 % 1014,6 hPa 0,0 l/m 19,3 km/h (3 Bft) S 180 0 min 0,0 UV-I 0 W/m 6,7 C 4,5 C 27,4 km/h (4 Bft)
02.01.2023 04:27 10,8 C 10,0 C 76 % 1014,5 hPa 0,0 l/m 17,7 km/h (3 Bft) S 180 0 min 0,0 UV-I 0 W/m 6,7 C 5,1 C 25,7 km/h (4 Bft)
02.01.2023 04:28 10,8 C 10,0 C 76 % 1014,7 hPa 0,0 l/m 20,9 km/h (4 Bft) S 180 0 min 0,0 UV-I 0 W/m 6,7 C 4,0 C 32,2 km/h (5 Bft)
02.01.2023 04:29 10,8 C 10,0 C 76 % 1014,6 hPa 0,0 l/m 19,3 km/h (3 Bft) S 180 0 min 0,0 UV-I 0 W/m 6,7 C 4,5 C 33,8 km/h (5 Bft)
02.01.2023 04:30 10,8 C 10,0 C 76 % 1014,5 hPa 0,0 l/m 16,1 km/h (3 Bft) S 180 0 min 0,0 UV-I 0 W/m 6,7 C 5,7 C 22,5 km/h (4 Bft)
02.01.2023 04:31 10,8 C 10,0 C 76 % 1014,6 hPa 0,0 l/m 17,7 km/h (3 Bft) S 180 0 min 0,0 UV-I 0 W/m 6,7 C 5,1 C 29,0 km/h (5 Bft)
02.01.2023 04:32 10,8 C 10,0 C 76 % 1014,5 hPa 0,0 l/m 16,1 km/h (3 Bft) S-SO 157 0 min 0,0 UV-I 0 W/m 6,7 C 5,7 C 25,7 km/h (4 Bft)
02.01.2023 04:33 10,8 C 10,0 C 76 % 1014,6 hPa 0,0 l/m 25,7 km/h (4 Bft) S 180 0 min 0,0 UV-I 0 W/m 6,7 C 2,7 C 40,2 km/h (6 Bft)
02.01.2023 04:34 10,8 C 10,0 C 76 % 1014,7 hPa 0,0 l/m 25,7 km/h (4 Bft) S 180 0 min 0,0 UV-I 0 W/m 6,7 C 2,7 C 38,6 km/h (5 Bft)
02.01.2023 04:35 10,8 C 10,0 C 76 % 1014,8 hPa 0,0 l/m 20,9 km/h (4 Bft) S 180 0 min 0,0 UV-I 0 W/m 6,7 C 4,0 C 33,8 km/h (5 Bft)
02.01.2023 04:36 10,8 C 10,0 C 76 % 1014,6 hPa 0,0 l/m 17,7 km/h (3 Bft) S-SW 202 0 min 0,0 UV-I 0 W/m 6,7 C 5,1 C 29,0 km/h (5 Bft)
02.01.2023 04:37 10,9 C 10,0 C 76 % 1014,6 hPa 0,0 l/m 17,7 km/h (3 Bft) S 180 0 min 0,0 UV-I 0 W/m 6,8 C 5,2 C 29,0 km/h (5 Bft)
02.01.2023 04:38 10,9 C 10,0 C 76 % 1014,6 hPa 0,0 l/m 16,1 km/h (3 Bft) S 180 0 min 0,0 UV-I 0 W/m 6,8 C 5,8 C 30,6 km/h (5 Bft)
02.01.2023 04:39 10,9 C 10,0 C 76 % 1014,7 hPa 0,0 l/m 17,7 km/h (3 Bft) S 180 0 min 0,0 UV-I 0 W/m 6,8 C 5,2 C 27,4 km/h (4 Bft)
02.01.2023 04:40 10,9 C 10,0 C 76 % 1014,7 hPa 0,0 l/m 17,7 km/h (3 Bft) S-SW 202 0 min 0,0 UV-I 0 W/m 6,8 C 5,2 C 27,4 km/h (4 Bft)
02.01.2023 04:41 10,9 C 10,0 C 76 % 1014,6 hPa 0,0 l/m 19,3 km/h (3 Bft) S 180 0 min 0,0 UV-I 0 W/m 6,8 C 4,7 C 29,0 km/h (5 Bft)
02.01.2023 04:42 10,9 C 10,0 C 76 % 1014,7 hPa 0,0 l/m 17,7 km/h (3 Bft) S 180 0 min 0,0 UV-I 0 W/m 6,8 C 5,2 C 22,5 km/h (4 Bft)
02.01.2023 04:43 10,9 C 10,0 C 75 % 1014,7 hPa 0,0 l/m 19,3 km/h (3 Bft) S 180 0 min 0,0 UV-I 0 W/m 6,6 C 4,7 C 27,4 km/h (4 Bft)
02.01.2023 04:44 10,9 C 10,0 C 75 % 1014,6 hPa 0,0 l/m 19,3 km/h (3 Bft) S 180 0 min 0,0 UV-I 0 W/m 6,6 C 4,7 C 29,0 km/h (5 Bft)
02.01.2023 04:45 10,9 C 10,6 C 75 % 1014,7 hPa 0,0 l/m 20,9 km/h (4 Bft) S 180 0 min 0,0 UV-I 0 W/m 6,6 C 4,2 C 29,0 km/h (5 Bft)
02.01.2023 04:46 10,9 C 10,6 C 75 % 1014,7 hPa 0,0 l/m 27,4 km/h (4 Bft) S 180 0 min 0,0 UV-I 0 W/m 6,6 C 2,5 C 43,5 km/h (6 Bft)
02.01.2023 04:47 10,9 C 10,6 C 75 % 1014,7 hPa 0,0 l/m 19,3 km/h (3 Bft) S 180 0 min 0,0 UV-I 0 W/m 6,6 C 4,7 C 41,8 km/h (6 Bft)
02.01.2023 04:48 11,0 C 10,6 C 75 % 1014,7 hPa 0,0 l/m 20,9 km/h (4 Bft) S 180 0 min 0,0 UV-I 0 W/m 6,7 C 4,3 C 27,4 km/h (4 Bft)
02.01.2023 04:49 11,0 C 10,6 C 75 % 1014,7 hPa 0,0 l/m 19,3 km/h (3 Bft) S 180 0 min 0,0 UV-I 0 W/m 6,7 C 4,8 C 27,4 km/h (4 Bft)
02.01.2023 04:50 11,0 C 10,6 C 75 % 1014,7 hPa 0,0 l/m 17,7 km/h (3 Bft) S 180 0 min 0,0 UV-I 0 W/m 6,7 C 5,3 C 29,0 km/h (5 Bft)
02.01.2023 04:51 11,0 C 10,0 C 75 % 1014,7 hPa 0,0 l/m 22,5 km/h (4 Bft) S-SO 157 0 min 0,0 UV-I 0 W/m 6,7 C 3,8 C 30,6 km/h (5 Bft)
02.01.2023 04:52 11,1 C 10,6 C 75 % 1014,6 hPa 0,0 l/m 22,5 km/h (4 Bft) S-SO 157 0 min 0,0 UV-I 0 W/m 6,8 C 4,0 C 32,2 km/h (5 Bft)
02.01.2023 04:53 11,1 C 10,6 C 75 % 1014,9 hPa 0,0 l/m 19,3 km/h (3 Bft) S 180 0 min 0,0 UV-I 0 W/m 6,8 C 4,9 C 29,0 km/h (5 Bft)
02.01.2023 04:54 11,1 C 10,0 C 75 % 1014,8 hPa 0,0 l/m 22,5 km/h (4 Bft) S 180 0 min 0,0 UV-I 0 W/m 6,8 C 4,0 C 32,2 km/h (5 Bft)
02.01.2023 04:55 11,0 C 10,6 C 75 % 1014,9 hPa 0,0 l/m 16,1 km/h (3 Bft) S 180 0 min 0,0 UV-I 0 W/m 6,7 C 5,9 C 20,9 km/h (4 Bft)
02.01.2023 04:56 11,1 C 10,0 C 75 % 1014,8 hPa 0,0 l/m 19,3 km/h (3 Bft) S 180 0 min 0,0 UV-I 0 W/m 6,8 C 4,9 C 30,6 km/h (5 Bft)
02.01.2023 04:57 11,1 C 10,0 C 75 % 1014,8 hPa 0,0 l/m 20,9 km/h (4 Bft) S 180 0 min 0,0 UV-I 0 W/m 6,8 C 4,4 C 32,2 km/h (5 Bft)
02.01.2023 04:58 11,0 C 10,0 C 75 % 1014,9 hPa 0,0 l/m 17,7 km/h (3 Bft) S 180 0 min 0,0 UV-I 0 W/m 6,7 C 5,3 C 33,8 km/h (5 Bft)
02.01.2023 04:59 11,1 C 10,0 C 75 % 1014,7 hPa 0,0 l/m 20,9 km/h (4 Bft) S 180 0 min 0,0 UV-I 0 W/m 6,8 C 4,4 C 29,0 km/h (5 Bft)
02.01.2023 05:00 11,0 C 10,0 C 75 % 1014,8 hPa 0,0 l/m 19,3 km/h (3 Bft) S 180 0 min 0,0 UV-I 0 W/m 6,7 C 4,8 C 29,0 km/h (5 Bft)
02.01.2023 05:01 11,0 C 10,0 C 75 % 1014,8 hPa 0,0 l/m 14,5 km/h (3 Bft) S 180 0 min 0,0 UV-I 0 W/m 6,7 C 6,5 C 20,9 km/h (4 Bft)
02.01.2023 05:02 10,9 C 10,0 C 75 % 1014,9 hPa 0,0 l/m 16,1 km/h (3 Bft) S-SO 157 0 min 0,0 UV-I 0 W/m 6,6 C 5,8 C 25,7 km/h (4 Bft)
02.01.2023 05:03 10,9 C 10,0 C 75 % 1014,9 hPa 0,0 l/m 17,7 km/h (3 Bft) S 180 0 min 0,0 UV-I 0 W/m 6,6 C 5,2 C 25,7 km/h (4 Bft)
02.01.2023 05:04 10,9 C 10,0 C 75 % 1014,8 hPa 0,0 l/m 17,7 km/h (3 Bft) S 180 0 min 0,0 UV-I 0 W/m 6,6 C 5,2 C 27,4 km/h (4 Bft)
02.01.2023 05:05 10,9 C 10,0 C 75 % 1014,9 hPa 0,0 l/m 12,9 km/h (3 Bft) S 180 0 min 0,0 UV-I 0 W/m 6,6 C 7,1 C 19,3 km/h (3 Bft)
02.01.2023 05:06 10,9 C 10,0 C 75 % 1015,0 hPa 0,0 l/m 16,1 km/h (3 Bft) S 180 0 min 0,0 UV-I 0 W/m 6,6 C 5,8 C 24,1 km/h (4 Bft)
02.01.2023 05:07 10,9 C 10,0 C 75 % 1014,8 hPa 0,0 l/m 14,5 km/h (3 Bft) S 180 0 min 0,0 UV-I 0 W/m 6,6 C 6,4 C 24,1 km/h (4 Bft)
02.01.2023 05:08 10,9 C 10,0 C 75 % 1014,8 hPa 0,0 l/m 16,1 km/h (3 Bft) S 180 0 min 0,0 UV-I 0 W/m 6,6 C 5,8 C 22,5 km/h (4 Bft)
02.01.2023 05:09 10,9 C 10,0 C 75 % 1014,9 hPa 0,0 l/m 17,7 km/h (3 Bft) S 180 0 min 0,0 UV-I 0 W/m 6,6 C 5,2 C 27,4 km/h (4 Bft)
02.01.2023 05:10 10,9 C 10,0 C 75 % 1014,9 hPa 0,0 l/m 14,5 km/h (3 Bft) S 180 0 min 0,0 UV-I 0 W/m 6,6 C 6,4 C 22,5 km/h (4 Bft)
02.01.2023 05:11 10,8 C 10,0 C 75 % 1015,0 hPa 0,0 l/m 16,1 km/h (3 Bft) S 180 0 min 0,0 UV-I 0 W/m 6,5 C 5,7 C 22,5 km/h (4 Bft)
02.01.2023 05:12 10,8 C 10,0 C 75 % 1014,9 hPa 0,0 l/m 12,9 km/h (3 Bft) S 180 0 min 0,0 UV-I 0 W/m 6,5 C 7,0 C 17,7 km/h (3 Bft)
02.01.2023 05:13 10,8 C 10,0 C 75 % 1014,9 hPa 0,0 l/m 16,1 km/h (3 Bft) S 180 0 min 0,0 UV-I 0 W/m 6,5 C 5,7 C 25,7 km/h (4 Bft)
02.01.2023 05:14 10,8 C 10,0 C 75 % 1014,8 hPa 0,0 l/m 20,9 km/h (4 Bft) S 180 0 min 0,0 UV-I 0 W/m 6,5 C 4,0 C 32,2 km/h (5 Bft)
02.01.2023 05:15 10,8 C 10,0 C 75 % 1014,9 hPa 0,0 l/m 19,3 km/h (3 Bft) S 180 0 min 0,0 UV-I 0 W/m 6,5 C 4,5 C 29,0 km/h (5 Bft)
02.01.2023 05:16 10,8 C 10,0 C 75 % 1014,9 hPa 0,0 l/m 16,1 km/h (3 Bft) SO 135 0 min 0,0 UV-I 0 W/m 6,5 C 5,7 C 29,0 km/h (5 Bft)
02.01.2023 05:17 10,8 C 10,0 C 75 % 1015,0 hPa 0,0 l/m 17,7 km/h (3 Bft) S-SO 157 0 min 0,0 UV-I 0 W/m 6,5 C 5,1 C 25,7 km/h (4 Bft)
02.01.2023 05:18 10,8 C 10,0 C 75 % 1015,0 hPa 0,0 l/m 14,5 km/h (3 Bft) S 180 0 min 0,0 UV-I 0 W/m 6,5 C 6,3 C 22,5 km/h (4 Bft)
02.01.2023 05:19 10,8 C 10,0 C 75 % 1015,1 hPa 0,0 l/m 20,9 km/h (4 Bft) S 180 0 min 0,0 UV-I 0 W/m 6,5 C 4,0 C 30,6 km/h (5 Bft)
02.01.2023 05:20 10,8 C 10,0 C 75 % 1015,0 hPa 0,0 l/m 19,3 km/h (3 Bft) S 180 0 min 0,0 UV-I 0 W/m 6,5 C 4,5 C 30,6 km/h (5 Bft)
02.01.2023 05:21 10,8 C 10,0 C 75 % 1015,0 hPa 0,0 l/m 16,1 km/h (3 Bft) S-SO 157 0 min 0,0 UV-I 0 W/m 6,5 C 5,7 C 24,1 km/h (4 Bft)
02.01.2023 05:22 10,8 C 10,0 C 76 % 1015,0 hPa 0,0 l/m 14,5 km/h (3 Bft) S 180 0 min 0,0 UV-I 0 W/m 6,7 C 6,3 C 24,1 km/h (4 Bft)
02.01.2023 05:23 10,8 C 10,0 C 76 % 1015,2 hPa 0,0 l/m 17,7 km/h (3 Bft) S 180 0 min 0,0 UV-I 0 W/m 6,7 C 5,1 C 29,0 km/h (5 Bft)
02.01.2023 05:24 10,8 C 9,4 C 76 % 1015,1 hPa 0,0 l/m 19,3 km/h (3 Bft) S 180 0 min 0,0 UV-I 0 W/m 6,7 C 4,5 C 30,6 km/h (5 Bft)
02.01.2023 05:25 10,8 C 9,4 C 76 % 1015,1 hPa 0,0 l/m 12,9 km/h (3 Bft) S 180 0 min 0,0 UV-I 0 W/m 6,7 C 7,0 C 16,1 km/h (3 Bft)
02.01.2023 05:26 10,8 C 9,4 C 76 % 1015,0 hPa 0,0 l/m 17,7 km/h (3 Bft) S 180 0 min 0,0 UV-I 0 W/m 6,7 C 5,1 C 24,1 km/h (4 Bft)
02.01.2023 05:27 10,8 C 9,4 C 76 % 1015,1 hPa 0,0 l/m 19,3 km/h (3 Bft) S 180 0 min 0,0 UV-I 0 W/m 6,7 C 4,5 C 25,7 km/h (4 Bft)
02.01.2023 05:28 10,7 C 9,4 C 77 % 1015,0 hPa 0,0 l/m 16,1 km/h (3 Bft) S 180 0 min 0,0 UV-I 0 W/m 6,8 C 5,5 C 22,5 km/h (4 Bft)
02.01.2023 05:29 10,7 C 9,4 C 77 % 1015,0 hPa 0,0 l/m 20,9 km/h (4 Bft) S-SW 202 0 min 0,0 UV-I 0 W/m 6,8 C 3,9 C 27,4 km/h (4 Bft)
02.01.2023 05:30 10,7 C 9,4 C 76 % 1015,1 hPa 0,0 l/m 19,3 km/h (3 Bft) S 180 0 min 0,0 UV-I 0 W/m 6,6 C 4,4 C 27,4 km/h (4 Bft)
02.01.2023 05:31 10,7 C 9,4 C 76 % 1015,2 hPa 0,0 l/m 19,3 km/h (3 Bft) S 180 0 min 0,0 UV-I 0 W/m 6,6 C 4,4 C 29,0 km/h (5 Bft)
02.01.2023 05:32 10,7 C 9,4 C 76 % 1015,1 hPa 0,0 l/m 17,7 km/h (3 Bft) S 180 0 min 0,0 UV-I 0 W/m 6,6 C 5,0 C 24,1 km/h (4 Bft)
02.01.2023 05:33 10,7 C 9,4 C 77 % 1015,3 hPa 0,0 l/m 22,5 km/h (4 Bft) S-SW 202 0 min 0,0 UV-I 0 W/m 6,8 C 3,4 C 32,2 km/h (5 Bft)
02.01.2023 05:34 10,7 C 8,9 C 77 % 1015,2 hPa 0,0 l/m 22,5 km/h (4 Bft) S 180 0 min 0,0 UV-I 0 W/m 6,8 C 3,4 C 30,6 km/h (5 Bft)
02.01.2023 05:35 10,7 C 8,9 C 77 % 1015,2 hPa 0,0 l/m 22,5 km/h (4 Bft) S 180 0 min 0,0 UV-I 0 W/m 6,8 C 3,4 C 33,8 km/h (5 Bft)
02.01.2023 05:36 10,6 C 8,9 C 77 % 1015,3 hPa 0,0 l/m 22,5 km/h (4 Bft) S 180 0 min 0,0 UV-I 0 W/m 6,7 C 3,3 C 32,2 km/h (5 Bft)
02.01.2023 05:37 10,6 C 8,3 C 77 % 1015,3 hPa 0,0 l/m 19,3 km/h (3 Bft) S-SW 202 0 min 0,0 UV-I 0 W/m 6,7 C 4,3 C 27,4 km/h (4 Bft)
02.01.2023 05:38 10,6 C 8,3 C 78 % 1015,3 hPa 0,0 l/m 17,7 km/h (3 Bft) S 180 0 min 0,0 UV-I 0 W/m 6,9 C 4,8 C 22,5 km/h (4 Bft)
02.01.2023 05:39 10,6 C 8,3 C 78 % 1015,2 hPa 0,0 l/m 19,3 km/h (3 Bft) S 180 0 min 0,0 UV-I 0 W/m 6,9 C 4,3 C 29,0 km/h (5 Bft)
02.01.2023 05:40 10,5 C 8,3 C 78 % 1015,1 hPa 0,0 l/m 20,9 km/h (4 Bft) S 180 0 min 0,0 UV-I 0 W/m 6,8 C 3,7 C 30,6 km/h (5 Bft)
02.01.2023 05:41 10,5 C 8,3 C 78 % 1015,2 hPa 0,0 l/m 20,9 km/h (4 Bft) S 180 0 min 0,0 UV-I 0 W/m 6,8 C 3,7 C 29,0 km/h (5 Bft)
02.01.2023 05:42 10,4 C 8,3 C 78 % 1015,3 hPa 0,0 l/m 20,9 km/h (4 Bft) S-SW 202 0 min 0,0 UV-I 0 W/m 6,7 C 3,5 C 29,0 km/h (5 Bft)
02.01.2023 05:43 10,4 C 8,3 C 78 % 1015,2 hPa 0,0 l/m 14,5 km/h (3 Bft) S 180 0 min 0,0 UV-I 0 W/m 6,7 C 5,8 C 20,9 km/h (4 Bft)
02.01.2023 05:44 10,4 C 8,3 C 79 % 1015,2 hPa 0,0 l/m 19,3 km/h (3 Bft) S 180 0 min 0,0 UV-I 0 W/m 6,9 C 4,0 C 30,6 km/h (5 Bft)
02.01.2023 05:45 10,3 C 8,3 C 79 % 1015,2 hPa 0,0 l/m 16,1 km/h (3 Bft) S 180 0 min 0,0 UV-I 0 W/m 6,8 C 5,1 C 24,1 km/h (4 Bft)
02.01.2023 05:46 10,3 C 8,3 C 79 % 1015,3 hPa 0,0 l/m 17,7 km/h (3 Bft) S 180 0 min 0,0 UV-I 0 W/m 6,8 C 4,5 C 25,7 km/h (4 Bft)
02.01.2023 05:47 10,3 C 8,3 C 79 % 1015,1 hPa 0,0 l/m 17,7 km/h (3 Bft) S-SW 202 0 min 0,0 UV-I 0 W/m 6,8 C 4,5 C 27,4 km/h (4 Bft)
02.01.2023 05:48 10,2 C 8,3 C 79 % 1015,1 hPa 0,0 l/m 19,3 km/h (3 Bft) S 180 0 min 0,0 UV-I 0 W/m 6,7 C 3,8 C 22,5 km/h (4 Bft)
02.01.2023 05:49 10,2 C 8,3 C 79 % 1015,2 hPa 0,0 l/m 19,3 km/h (3 Bft) S-SW 202 0 min 0,0 UV-I 0 W/m 6,7 C 3,8 C 24,1 km/h (4 Bft)
02.01.2023 05:50 10,2 C 8,3 C 80 % 1015,2 hPa 0,0 l/m 17,7 km/h (3 Bft) S-SW 202 0 min 0,0 UV-I 0 W/m 6,9 C 4,3 C 22,5 km/h (4 Bft)
02.01.2023 05:51 10,2 C 8,3 C 80 % 1015,1 hPa 0,0 l/m 17,7 km/h (3 Bft) S-SW 202 0 min 0,0 UV-I 0 W/m 6,9 C 4,3 C 24,1 km/h (4 Bft)
02.01.2023 05:52 10,1 C 8,3 C 80 % 1015,2 hPa 0,2 l/m 20,9 km/h (4 Bft) S 180 0 min 0,0 UV-I 0 W/m 6,8 C 3,1 C 25,7 km/h (4 Bft)
02.01.2023 05:53 10,1 C 8,3 C 80 % 1015,1 hPa 0,0 l/m 17,7 km/h (3 Bft) S 180 0 min 0,0 UV-I 0 W/m 6,8 C 4,2 C 24,1 km/h (4 Bft)
02.01.2023 05:54 10,1 C 8,3 C 80 % 1015,0 hPa 0,0 l/m 11,3 km/h (2 Bft) S 180 0 min 0,0 UV-I 0 W/m 6,8 C 7,0 C 14,5 km/h (3 Bft)
02.01.2023 05:55 10,1 C 8,3 C 80 % 1015,1 hPa 0,0 l/m 12,9 km/h (3 Bft) S-SW 202 0 min 0,0 UV-I 0 W/m 6,8 C 6,2 C 19,3 km/h (3 Bft)
02.01.2023 05:56 10,0 C 8,3 C 80 % 1015,1 hPa 0,0 l/m 16,1 km/h (3 Bft) S-SW 202 0 min 0,0 UV-I 0 W/m 6,7 C 4,7 C 24,1 km/h (4 Bft)
02.01.2023 05:57 10,0 C 8,3 C 80 % 1015,1 hPa 0,0 l/m 20,9 km/h (4 Bft) S 180 0 min 0,0 UV-I 0 W/m 6,7 C 3,0 C 37,0 km/h (5 Bft)
02.01.2023 05:58 9,9 C 8,3 C 80 % 1015,2 hPa 0,0 l/m 14,5 km/h (3 Bft) S-SW 202 0 min 0,0 UV-I 0 W/m 6,6 C 5,2 C 20,9 km/h (4 Bft)
02.01.2023 05:59 9,9 C 7,8 C 81 % 1015,1 hPa 0,0 l/m 17,7 km/h (3 Bft) S 180 0 min 0,0 UV-I 0 W/m 6,8 C 4,0 C 24,1 km/h (4 Bft)
02.01.2023 06:00 9,9 C 7,8 C 81 % 1015,1 hPa 0,0 l/m 14,5 km/h (3 Bft) S 180 0 min 0,0 UV-I 0 W/m 6,8 C 5,2 C 19,3 km/h (3 Bft)
02.01.2023 06:01 9,9 C 8,3 C 81 % 1015,2 hPa 0,0 l/m 20,9 km/h (4 Bft) S 180 0 min 0,0 UV-I 0 W/m 6,8 C 2,9 C 29,0 km/h (5 Bft)
02.01.2023 06:02 9,9 C 8,3 C 81 % 1015,2 hPa 0,0 l/m 14,5 km/h (3 Bft) S 180 0 min 0,0 UV-I 0 W/m 6,8 C 5,2 C 22,5 km/h (4 Bft)
02.01.2023 06:03 9,9 C 8,3 C 81 % 1015,2 hPa 0,0 l/m 19,3 km/h (3 Bft) S 180 0 min 0,0 UV-I 0 W/m 6,8 C 3,4 C 25,7 km/h (4 Bft)
02.01.2023 06:04 9,9 C 8,3 C 81 % 1015,2 hPa 0,0 l/m 20,9 km/h (4 Bft) S 180 0 min 0,0 UV-I 0 W/m 6,8 C 2,9 C 35,4 km/h (5 Bft)
02.01.2023 06:05 9,8 C 8,3 C 81 % 1015,3 hPa 0,0 l/m 17,7 km/h (3 Bft) S 180 0 min 0,0 UV-I 0 W/m 6,7 C 3,8 C 24,1 km/h (4 Bft)
02.01.2023 06:06 9,9 C 8,3 C 81 % 1015,4 hPa 0,0 l/m 16,1 km/h (3 Bft) S-SW 202 0 min 0,0 UV-I 0 W/m 6,8 C 4,6 C 22,5 km/h (4 Bft)
02.01.2023 06:07 9,9 C 8,3 C 81 % 1015,3 hPa 0,0 l/m 16,1 km/h (3 Bft) S-SW 202 0 min 0,0 UV-I 0 W/m 6,8 C 4,6 C 22,5 km/h (4 Bft)
02.01.2023 06:08 9,8 C 8,3 C 81 % 1015,2 hPa 0,0 l/m 16,1 km/h (3 Bft) S 180 0 min 0,0 UV-I 0 W/m 6,7 C 4,4 C 22,5 km/h (4 Bft)
02.01.2023 06:09 9,8 C 8,3 C 81 % 1015,5 hPa 0,0 l/m 16,1 km/h (3 Bft) S 180 0 min 0,0 UV-I 0 W/m 6,7 C 4,4 C 22,5 km/h (4 Bft)
02.01.2023 06:10 9,8 C 8,3 C 81 % 1015,4 hPa 0,0 l/m 16,1 km/h (3 Bft) S 180 0 min 0,0 UV-I 0 W/m 6,7 C 4,4 C 27,4 km/h (4 Bft)
02.01.2023 06:11 9,8 C 8,3 C 81 % 1015,4 hPa 0,0 l/m 14,5 km/h (3 Bft) S 180 0 min 0,0 UV-I 0 W/m 6,7 C 5,1 C 19,3 km/h (3 Bft)
02.01.2023 06:12 9,8 C 8,3 C 81 % 1015,3 hPa 0,0 l/m 16,1 km/h (3 Bft) S 180 0 min 0,0 UV-I 0 W/m 6,7 C 4,4 C 22,5 km/h (4 Bft)
02.01.2023 06:13 9,8 C 8,3 C 81 % 1015,3 hPa 0,0 l/m 14,5 km/h (3 Bft) S 180 0 min 0,0 UV-I 0 W/m 6,7 C 5,1 C 19,3 km/h (3 Bft)
02.01.2023 06:14 9,8 C 8,3 C 81 % 1015,3 hPa 0,0 l/m 17,7 km/h (3 Bft) S 180 0 min 0,0 UV-I 0 W/m 6,7 C 3,8 C 27,4 km/h (4 Bft)
02.01.2023 06:15 9,8 C 8,3 C 81 % 1015,4 hPa 0,0 l/m 14,5 km/h (3 Bft) S-SW 202 0 min 0,0 UV-I 0 W/m 6,7 C 5,1 C 19,3 km/h (3 Bft)
02.01.2023 06:16 9,8 C 8,3 C 81 % 1015,3 hPa 0,0 l/m 17,7 km/h (3 Bft) S 180 0 min 0,0 UV-I 0 W/m 6,7 C 3,8 C 25,7 km/h (4 Bft)
02.01.2023 06:17 9,8 C 8,3 C 81 % 1015,4 hPa 0,0 l/m 16,1 km/h (3 Bft) S 180 0 min 0,0 UV-I 0 W/m 6,7 C 4,4 C 20,9 km/h (4 Bft)
02.01.2023 06:18 9,8 C 8,3 C 82 % 1015,4 hPa 0,0 l/m 14,5 km/h (3 Bft) S 180 0 min 0,0 UV-I 0 W/m 6,9 C 5,1 C 19,3 km/h (3 Bft)
02.01.2023 06:19 9,7 C 8,3 C 82 % 1015,2 hPa 0,0 l/m 16,1 km/h (3 Bft) S-SW 202 0 min 0,0 UV-I 0 W/m 6,8 C 4,3 C 25,7 km/h (4 Bft)
02.01.2023 06:20 9,7 C 8,3 C 82 % 1015,2 hPa 0,0 l/m 14,5 km/h (3 Bft) S 180 0 min 0,0 UV-I 0 W/m 6,8 C 5,0 C 20,9 km/h (4 Bft)
02.01.2023 06:21 9,7 C 8,3 C 82 % 1015,2 hPa 0,0 l/m 17,7 km/h (3 Bft) S 180 0 min 0,0 UV-I 0 W/m 6,8 C 3,7 C 24,1 km/h (4 Bft)
02.01.2023 06:22 9,7 C 8,3 C 82 % 1015,2 hPa 0,0 l/m 14,5 km/h (3 Bft) S 180 0 min 0,0 UV-I 0 W/m 6,8 C 5,0 C 19,3 km/h (3 Bft)
02.01.2023 06:23 9,7 C 8,3 C 82 % 1015,4 hPa 0,0 l/m 14,5 km/h (3 Bft) S 180 0 min 0,0 UV-I 0 W/m 6,8 C 5,0 C 22,5 km/h (4 Bft)
02.01.2023 06:24 9,7 C 8,3 C 82 % 1015,3 hPa 0,0 l/m 17,7 km/h (3 Bft) S 180 0 min 0,0 UV-I 0 W/m 6,8 C 3,7 C 27,4 km/h (4 Bft)
02.01.2023 06:25 9,6 C 8,3 C 82 % 1015,3 hPa 0,0 l/m 17,7 km/h (3 Bft) S 180 0 min 0,0 UV-I 0 W/m 6,7 C 3,6 C 24,1 km/h (4 Bft)
02.01.2023 06:26 9,6 C 8,3 C 82 % 1015,3 hPa 0,0 l/m 16,1 km/h (3 Bft) S 180 0 min 0,0 UV-I 0 W/m 6,7 C 4,2 C 24,1 km/h (4 Bft)
02.01.2023 06:27 9,6 C 8,3 C 82 % 1015,5 hPa 0,0 l/m 17,7 km/h (3 Bft) S 180 0 min 0,0 UV-I 0 W/m 6,7 C 3,6 C 24,1 km/h (4 Bft)
02.01.2023 06:28 9,6 C 7,8 C 82 % 1015,5 hPa 0,0 l/m 16,1 km/h (3 Bft) S 180 0 min 0,0 UV-I 0 W/m 6,7 C 4,2 C 24,1 km/h (4 Bft)
02.01.2023 06:29 9,6 C 8,3 C 82 % 1015,5 hPa 0,0 l/m 14,5 km/h (3 Bft) S 180 0 min 0,0 UV-I 0 W/m 6,7 C 4,9 C 24,1 km/h (4 Bft)
02.01.2023 06:30 9,6 C 8,3 C 82 % 1015,5 hPa 0,0 l/m 16,1 km/h (3 Bft) S 180 0 min 0,0 UV-I 0 W/m 6,7 C 4,2 C 27,4 km/h (4 Bft)
02.01.2023 06:31 9,6 C 8,3 C 82 % 1015,5 hPa 0,0 l/m 14,5 km/h (3 Bft) S 180 0 min 0,0 UV-I 0 W/m 6,7 C 4,9 C 20,9 km/h (4 Bft)
02.01.2023 06:32 9,6 C 8,3 C 82 % 1015,5 hPa 0,0 l/m 16,1 km/h (3 Bft) S 180 0 min 0,0 UV-I 0 W/m 6,7 C 4,2 C 20,9 km/h (4 Bft)
02.01.2023 06:33 9,6 C 8,3 C 82 % 1015,5 hPa 0,0 l/m 16,1 km/h (3 Bft) S 180 0 min 0,0 UV-I 0 W/m 6,7 C 4,2 C 24,1 km/h (4 Bft)
02.01.2023 06:34 9,6 C 8,3 C 82 % 1015,6 hPa 0,0 l/m 20,9 km/h (4 Bft) S 180 0 min 0,0 UV-I 0 W/m 6,7 C 2,5 C 32,2 km/h (5 Bft)
02.01.2023 06:35 9,6 C 8,3 C 82 % 1015,5 hPa 0,0 l/m 16,1 km/h (3 Bft) S 180 0 min 0,0 UV-I 0 W/m 6,7 C 4,2 C 20,9 km/h (4 Bft)
02.01.2023 06:36 9,6 C 8,3 C 82 % 1015,6 hPa 0,0 l/m 19,3 km/h (3 Bft) S 180 0 min 0,0 UV-I 0 W/m 6,7 C 3,0 C 29,0 km/h (5 Bft)
02.01.2023 06:37 9,6 C 8,3 C 82 % 1015,7 hPa 0,0 l/m 22,5 km/h (4 Bft) S 180 0 min 0,0 UV-I 0 W/m 6,7 C 2,0 C 35,4 km/h (5 Bft)
02.01.2023 06:38 9,6 C 8,3 C 82 % 1015,5 hPa 0,0 l/m 16,1 km/h (3 Bft) S 180 0 min 0,0 UV-I 0 W/m 6,7 C 4,2 C 25,7 km/h (4 Bft)
02.01.2023 06:39 9,6 C 8,3 C 82 % 1015,5 hPa 0,0 l/m 17,7 km/h (3 Bft) S 180 0 min 0,0 UV-I 0 W/m 6,7 C 3,6 C 29,0 km/h (5 Bft)
02.01.2023 06:40 9,6 C 8,3 C 82 % 1015,5 hPa 0,0 l/m 20,9 km/h (4 Bft) S 180 0 min 0,0 UV-I 0 W/m 6,7 C 2,5 C 29,0 km/h (5 Bft)
02.01.2023 06:41 9,6 C 8,3 C 82 % 1015,5 hPa 0,0 l/m 20,9 km/h (4 Bft) S-SW 202 0 min 0,0 UV-I 0 W/m 6,7 C 2,5 C 32,2 km/h (5 Bft)
02.01.2023 06:42 9,6 C 7,8 C 82 % 1015,6 hPa 0,0 l/m 19,3 km/h (3 Bft) S 180 0 min 0,0 UV-I 0 W/m 6,7 C 3,0 C 25,7 km/h (4 Bft)
02.01.2023 06:43 9,6 C 7,8 C 82 % 1015,5 hPa 0,0 l/m 14,5 km/h (3 Bft) S 180 0 min 0,0 UV-I 0 W/m 6,7 C 4,9 C 17,7 km/h (3 Bft)
02.01.2023 06:44 9,6 C 7,8 C 82 % 1015,6 hPa 0,0 l/m 16,1 km/h (3 Bft) S 180 0 min 0,0 UV-I 0 W/m 6,7 C 4,2 C 17,7 km/h (3 Bft)
02.01.2023 06:45 9,6 C 7,8 C 82 % 1015,5 hPa 0,0 l/m 20,9 km/h (4 Bft) S 180 0 min 0,0 UV-I 0 W/m 6,7 C 2,5 C 30,6 km/h (5 Bft)
02.01.2023 06:46 9,6 C 7,8 C 83 % 1015,6 hPa 0,0 l/m 14,5 km/h (3 Bft) S 180 0 min 0,0 UV-I 0 W/m 6,9 C 4,9 C 20,9 km/h (4 Bft)
02.01.2023 06:47 9,6 C 7,8 C 83 % 1015,5 hPa 0,0 l/m 16,1 km/h (3 Bft) S 180 0 min 0,0 UV-I 0 W/m 6,9 C 4,2 C 24,1 km/h (4 Bft)
02.01.2023 06:48 9,6 C 7,8 C 83 % 1015,5 hPa 0,0 l/m 19,3 km/h (3 Bft) S 180 0 min 0,0 UV-I 0 W/m 6,9 C 3,0 C 32,2 km/h (5 Bft)
02.01.2023 06:49 9,6 C 7,8 C 83 % 1015,6 hPa 0,0 l/m 16,1 km/h (3 Bft) S 180 0 min 0,0 UV-I 0 W/m 6,9 C 4,2 C 24,1 km/h (4 Bft)
02.01.2023 06:50 9,6 C 7,8 C 83 % 1015,5 hPa 0,0 l/m 16,1 km/h (3 Bft) S 180 0 min 0,0 UV-I 0 W/m 6,9 C 4,2 C 24,1 km/h (4 Bft)
02.01.2023 06:51 9,5 C 7,8 C 83 % 1015,5 hPa 0,0 l/m 19,3 km/h (3 Bft) S 180 0 min 0,0 UV-I 0 W/m 6,8 C 2,9 C 27,4 km/h (4 Bft)
02.01.2023 06:52 9,5 C 7,8 C 83 % 1015,6 hPa 0,0 l/m 16,1 km/h (3 Bft) S 180 0 min 0,0 UV-I 0 W/m 6,8 C 4,1 C 24,1 km/h (4 Bft)
02.01.2023 06:53 9,5 C 7,8 C 83 % 1015,6 hPa 0,0 l/m 19,3 km/h (3 Bft) S 180 0 min 0,0 UV-I 0 W/m 6,8 C 2,9 C 29,0 km/h (5 Bft)
02.01.2023 06:54 9,4 C 7,8 C 83 % 1015,6 hPa 0,0 l/m 14,5 km/h (3 Bft) S 180 0 min 0,0 UV-I 0 W/m 6,7 C 4,6 C 22,5 km/h (4 Bft)
02.01.2023 06:55 9,4 C 7,8 C 83 % 1015,5 hPa 0,0 l/m 16,1 km/h (3 Bft) S 180 0 min 0,0 UV-I 0 W/m 6,7 C 3,9 C 20,9 km/h (4 Bft)
02.01.2023 06:56 9,4 C 7,8 C 83 % 1015,5 hPa 0,0 l/m 14,5 km/h (3 Bft) S-SO 157 0 min 0,0 UV-I 0 W/m 6,7 C 4,6 C 20,9 km/h (4 Bft)
02.01.2023 06:57 9,4 C 7,8 C 83 % 1015,5 hPa 0,0 l/m 20,9 km/h (4 Bft) S 180 0 min 0,0 UV-I 0 W/m 6,7 C 2,2 C 29,0 km/h (5 Bft)
02.01.2023 06:58 9,4 C 7,8 C 83 % 1015,6 hPa 0,0 l/m 19,3 km/h (3 Bft) S 180 0 min 0,0 UV-I 0 W/m 6,7 C 2,7 C 30,6 km/h (5 Bft)
02.01.2023 06:59 9,4 C 7,8 C 83 % 1015,6 hPa 0,0 l/m 17,7 km/h (3 Bft) S 180 0 min 0,0 UV-I 0 W/m 6,7 C 3,3 C 25,7 km/h (4 Bft)
02.01.2023 07:00 9,4 C 7,8 C 83 % 1015,5 hPa 0,0 l/m 16,1 km/h (3 Bft) S 180 0 min 0,0 UV-I 0 W/m 6,7 C 3,9 C 22,5 km/h (4 Bft)
02.01.2023 07:01 9,4 C 7,8 C 83 % 1015,6 hPa 0,0 l/m 19,3 km/h (3 Bft) S 180 0 min 0,0 UV-I 0 W/m 6,7 C 2,7 C 25,7 km/h (4 Bft)
02.01.2023 07:02 9,4 C 7,8 C 83 % 1015,5 hPa 0,0 l/m 16,1 km/h (3 Bft) S 180 0 min 0,0 UV-I 0 W/m 6,7 C 3,9 C 22,5 km/h (4 Bft)
02.01.2023 07:03 9,4 C 7,8 C 84 % 1015,6 hPa 0,0 l/m 17,7 km/h (3 Bft) S-SO 157 0 min 0,0 UV-I 0 W/m 6,8 C 3,3 C 24,1 km/h (4 Bft)
02.01.2023 07:04 9,4 C 7,8 C 84 % 1015,5 hPa 0,0 l/m 14,5 km/h (3 Bft) S 180 0 min 0,0 UV-I 0 W/m 6,8 C 4,6 C 19,3 km/h (3 Bft)
02.01.2023 07:05 9,4 C 7,8 C 84 % 1015,5 hPa 0,0 l/m 14,5 km/h (3 Bft) S 180 0 min 0,0 UV-I 0 W/m 6,8 C 4,6 C 19,3 km/h (3 Bft)
02.01.2023 07:06 9,4 C 7,8 C 84 % 1015,5 hPa 0,0 l/m 17,7 km/h (3 Bft) S 180 0 min 0,0 UV-I 0 W/m 6,8 C 3,3 C 22,5 km/h (4 Bft)
02.01.2023 07:07 9,4 C 7,8 C 84 % 1015,6 hPa 0,0 l/m 16,1 km/h (3 Bft) S 180 0 min 0,0 UV-I 0 W/m 6,8 C 3,9 C 22,5 km/h (4 Bft)
02.01.2023 07:08 9,4 C 7,8 C 84 % 1015,6 hPa 0,0 l/m 17,7 km/h (3 Bft) S 180 0 min 0,0 UV-I 0 W/m 6,8 C 3,3 C 29,0 km/h (5 Bft)
02.01.2023 07:09 9,3 C 7,8 C 84 % 1015,6 hPa 0,0 l/m 17,7 km/h (3 Bft) S 180 0 min 0,0 UV-I 0 W/m 6,7 C 3,2 C 24,1 km/h (4 Bft)
02.01.2023 07:10 9,3 C 7,8 C 84 % 1015,6 hPa 0,0 l/m 16,1 km/h (3 Bft) S-SW 202 0 min 0,0 UV-I 0 W/m 6,7 C 3,8 C 29,0 km/h (5 Bft)
02.01.2023 07:11 9,3 C 7,8 C 84 % 1015,6 hPa 0,0 l/m 17,7 km/h (3 Bft) S 180 0 min 0,0 UV-I 0 W/m 6,7 C 3,2 C 25,7 km/h (4 Bft)
02.01.2023 07:12 9,3 C 7,8 C 84 % 1015,6 hPa 0,0 l/m 20,9 km/h (4 Bft) S 180 0 min 0,0 UV-I 0 W/m 6,7 C 2,1 C 32,2 km/h (5 Bft)
02.01.2023 07:13 9,3 C 7,8 C 84 % 1015,6 hPa 0,0 l/m 14,5 km/h (3 Bft) S 180 0 min 0,0 UV-I 0 W/m 6,7 C 4,5 C 24,1 km/h (4 Bft)
02.01.2023 07:14 9,3 C 7,8 C 84 % 1015,6 hPa 0,0 l/m 20,9 km/h (4 Bft) S 180 0 min 0,0 UV-I 0 W/m 6,7 C 2,1 C 27,4 km/h (4 Bft)
02.01.2023 07:15 9,3 C 7,8 C 84 % 1015,6 hPa 0,0 l/m 14,5 km/h (3 Bft) S 180 0 min 0,0 UV-I 0 W/m 6,7 C 4,5 C 22,5 km/h (4 Bft)
02.01.2023 07:16 9,3 C 7,8 C 84 % 1015,7 hPa 0,0 l/m 12,9 km/h (3 Bft) S 180 0 min 0,0 UV-I 0 W/m 6,7 C 5,3 C 17,7 km/h (3 Bft)
02.01.2023 07:17 9,3 C 7,8 C 84 % 1015,7 hPa 0,0 l/m 16,1 km/h (3 Bft) S 180 0 min 0,0 UV-I 0 W/m 6,7 C 3,8 C 27,4 km/h (4 Bft)
02.01.2023 07:18 9,3 C 7,8 C 84 % 1015,6 hPa 0,0 l/m 12,9 km/h (3 Bft) S 180 0 min 0,0 UV-I 0 W/m 6,7 C 5,3 C 22,5 km/h (4 Bft)
02.01.2023 07:19 9,3 C 7,8 C 84 % 1015,6 hPa 0,0 l/m 14,5 km/h (3 Bft) S-SW 202 0 min 0,0 UV-I 0 W/m 6,7 C 4,5 C 17,7 km/h (3 Bft)
02.01.2023 07:20 9,3 C 7,8 C 84 % 1015,6 hPa 0,0 l/m 14,5 km/h (3 Bft) S 180 0 min 0,0 UV-I 0 W/m 6,7 C 4,5 C 19,3 km/h (3 Bft)
02.01.2023 07:21 9,2 C 7,8 C 84 % 1015,6 hPa 0,0 l/m 17,7 km/h (3 Bft) S 180 0 min 0,0 UV-I 0 W/m 6,6 C 3,1 C 22,5 km/h (4 Bft)
02.01.2023 07:22 9,2 C 7,8 C 84 % 1015,5 hPa 0,0 l/m 16,1 km/h (3 Bft) S-SW 202 0 min 0,0 UV-I 0 W/m 6,6 C 3,7 C 20,9 km/h (4 Bft)
02.01.2023 07:23 9,2 C 7,8 C 84 % 1015,6 hPa 0,0 l/m 16,1 km/h (3 Bft) S 180 0 min 0,0 UV-I 0 W/m 6,6 C 3,7 C 24,1 km/h (4 Bft)
02.01.2023 07:24 9,2 C 7,8 C 84 % 1015,7 hPa 0,0 l/m 12,9 km/h (3 Bft) S 180 0 min 0,0 UV-I 0 W/m 6,6 C 5,1 C 17,7 km/h (3 Bft)
02.01.2023 07:25 9,2 C 7,8 C 84 % 1015,6 hPa 0,0 l/m 16,1 km/h (3 Bft) S 180 0 min 0,0 UV-I 0 W/m 6,6 C 3,7 C 22,5 km/h (4 Bft)
02.01.2023 07:26 9,2 C 7,8 C 85 % 1015,7 hPa 0,0 l/m 14,5 km/h (3 Bft) S 180 0 min 0,0 UV-I 0 W/m 6,8 C 4,4 C 24,1 km/h (4 Bft)
02.01.2023 07:27 9,1 C 7,8 C 85 % 1015,7 hPa 0,0 l/m 12,9 km/h (3 Bft) S 180 0 min 0,0 UV-I 0 W/m 6,7 C 5,0 C 19,3 km/h (3 Bft)
02.01.2023 07:28 9,2 C 7,8 C 85 % 1015,7 hPa 0,0 l/m 14,5 km/h (3 Bft) S 180 0 min 0,0 UV-I 0 W/m 6,8 C 4,4 C 19,3 km/h (3 Bft)
02.01.2023 07:29 9,1 C 7,8 C 85 % 1015,7 hPa 0,0 l/m 20,9 km/h (4 Bft) S 180 0 min 0,0 UV-I 0 W/m 6,7 C 1,8 C 27,4 km/h (4 Bft)
02.01.2023 07:30 9,1 C 7,8 C 85 % 1015,5 hPa 0,0 l/m 16,1 km/h (3 Bft) S 180 0 min 0,0 UV-I 0 W/m 6,7 C 3,6 C 24,1 km/h (4 Bft)
02.01.2023 07:31 9,1 C 7,8 C 85 % 1015,5 hPa 0,0 l/m 14,5 km/h (3 Bft) S 180 0 min 0,0 UV-I 0 W/m 6,7 C 4,3 C 25,7 km/h (4 Bft)
02.01.2023 07:32 9,1 C 7,8 C 85 % 1015,5 hPa 0,0 l/m 14,5 km/h (3 Bft) S 180 0 min 0,0 UV-I 0 W/m 6,7 C 4,3 C 19,3 km/h (3 Bft)
02.01.2023 07:33 9,1 C 7,8 C 85 % 1015,5 hPa 0,0 l/m 19,3 km/h (3 Bft) S 180 0 min 0,0 UV-I 0 W/m 6,7 C 2,4 C 24,1 km/h (4 Bft)
02.01.2023 07:34 9,1 C 7,8 C 85 % 1015,6 hPa 0,0 l/m 14,5 km/h (3 Bft) S 180 0 min 0,0 UV-I 0 W/m 6,7 C 4,3 C 19,3 km/h (3 Bft)
02.01.2023 07:35 9,1 C 7,8 C 85 % 1015,5 hPa 0,0 l/m 16,1 km/h (3 Bft) S 180 0 min 0,0 UV-I 0 W/m 6,7 C 3,6 C 22,5 km/h (4 Bft)
02.01.2023 07:36 9,1 C 7,8 C 85 % 1015,5 hPa 0,0 l/m 17,7 km/h (3 Bft) S 180 0 min 0,0 UV-I 0 W/m 6,7 C 2,9 C 27,4 km/h (4 Bft)
02.01.2023 07:37 9,1 C 7,8 C 85 % 1015,5 hPa 0,0 l/m 17,7 km/h (3 Bft) S 180 0 min 0,0 UV-I 0 W/m 6,7 C 2,9 C 24,1 km/h (4 Bft)
02.01.2023 07:38 9,1 C 7,8 C 85 % 1015,6 hPa 0,0 l/m 14,5 km/h (3 Bft) S 180 0 min 0,0 UV-I 0 W/m 6,7 C 4,3 C 19,3 km/h (3 Bft)
02.01.2023 07:42 9,0 C 7,8 C 85 % 1015,6 hPa 0,0 l/m 17,1 km/h (3 Bft) S 178 0 min 0,0 UV-I 0 W/m 6,6 C 3,1 C 25,7 km/h (4 Bft)
02.01.2023 07:45 9,0 C 7,8 C 85 % 1015,7 hPa 0,0 l/m 16,2 km/h (3 Bft) S 169 0 min 0,0 UV-I 0 W/m 6,6 C 3,4 C 27,4 km/h (4 Bft)
02.01.2023 07:48 9,0 C 7,8 C 84 % 1015,7 hPa 0,0 l/m 19,7 km/h (3 Bft) S-SW 194 0 min 0,0 UV-I 0 W/m 6,4 C 2,1 C 30,6 km/h (5 Bft)
02.01.2023 07:51 9,0 C 7,8 C 85 % 1015,7 hPa 0,0 l/m 16,0 km/h (3 Bft) SW 223 0 min 0,0 UV-I 0 W/m 6,6 C 3,5 C 33,8 km/h (5 Bft)
02.01.2023 07:54 9,0 C 7,8 C 85 % 1015,7 hPa 0,0 l/m 15,8 km/h (3 Bft) S-SO 167 0 min 0,0 UV-I 0 W/m 6,6 C 3,6 C 27,4 km/h (4 Bft)
02.01.2023 07:57 9,1 C 7,8 C 85 % 1015,7 hPa 0,0 l/m 18,7 km/h (3 Bft) S-SO 165 0 min 0,0 UV-I 0 W/m 6,7 C 2,6 C 27,4 km/h (4 Bft)
02.01.2023 08:00 9,1 C 7,8 C 85 % 1015,8 hPa 0,0 l/m 17,7 km/h (3 Bft) S 179 0 min 0,0 UV-I 0 W/m 6,7 C 2,9 C 37,0 km/h (5 Bft)
02.01.2023 08:03 9,1 C 7,8 C 85 % 1015,7 hPa 0,0 l/m 17,9 km/h (3 Bft) S 184 0 min 0,0 UV-I 0 W/m 6,7 C 2,9 C 27,4 km/h (4 Bft)
02.01.2023 08:06 9,1 C 7,8 C 85 % 1015,9 hPa 0,0 l/m 17,9 km/h (3 Bft) S-SO 158 0 min 0,0 UV-I 0 W/m 6,7 C 2,9 C 33,8 km/h (5 Bft)
02.01.2023 08:09 9,0 C 7,8 C 85 % 1015,7 hPa 0,0 l/m 17,3 km/h (3 Bft) S 169 0 min 0,0 UV-I 0 W/m 6,6 C 3,0 C 30,6 km/h (5 Bft)
02.01.2023 08:12 9,0 C 7,8 C 85 % 1015,8 hPa 0,0 l/m 15,6 km/h (3 Bft) S-SW 200 0 min 0,0 UV-I 0 W/m 6,6 C 3,7 C 25,7 km/h (4 Bft)
02.01.2023 08:15 9,0 C 7,8 C 85 % 1015,9 hPa 0,0 l/m 17,2 km/h (3 Bft) S 187 0 min 0,0 UV-I 0 W/m 6,6 C 3,0 C 27,4 km/h (4 Bft)
02.01.2023 08:18 9,0 C 8,3 C 85 % 1015,8 hPa 0,0 l/m 17,9 km/h (3 Bft) S 182 0 min 0,0 UV-I 0 W/m 6,6 C 2,7 C 30,6 km/h (5 Bft)
02.01.2023 08:21 9,1 C 8,3 C 85 % 1015,8 hPa 0,0 l/m 19,0 km/h (3 Bft) S-SO 163 0 min 0,0 UV-I 0 W/m 6,7 C 2,5 C 32,2 km/h (5 Bft)
02.01.2023 08:24 9,1 C 8,3 C 85 % 1015,8 hPa 0,0 l/m 21,4 km/h (4 Bft) S 180 0 min 0,0 UV-I 0 W/m 6,7 C 1,7 C 33,8 km/h (5 Bft)
02.01.2023 08:27 9,1 C 8,3 C 85 % 1015,9 hPa 0,0 l/m 19,3 km/h (3 Bft) SW 215 0 min 0,0 UV-I 0 W/m 6,7 C 2,4 C 32,2 km/h (5 Bft)
02.01.2023 08:30 9,1 C 8,3 C 84 % 1015,8 hPa 0,0 l/m 19,6 km/h (3 Bft) S 186 0 min 0,0 UV-I 0 W/m 6,5 C 2,3 C 40,2 km/h (6 Bft)
02.01.2023 08:33 9,2 C 7,8 C 84 % 1015,9 hPa 0,2 l/m 20,6 km/h (4 Bft) S-SW 192 0 min 0,0 UV-I 0 W/m 6,6 C 2,1 C 40,2 km/h (6 Bft)
02.01.2023 08:36 9,2 C 8,3 C 84 % 1015,9 hPa 0,0 l/m 17,6 km/h (3 Bft) S-SW 206 0 min 0,0 UV-I 0 W/m 6,6 C 3,1 C 32,2 km/h (5 Bft)
02.01.2023 08:39 9,1 C 8,3 C 85 % 1016,2 hPa 0,0 l/m 20,7 km/h (4 Bft) S 182 0 min 0,0 UV-I 0 W/m 6,7 C 1,9 C 33,8 km/h (5 Bft)
02.01.2023 08:42 9,2 C 8,3 C 85 % 1016,0 hPa 0,0 l/m 21,5 km/h (4 Bft) S 181 0 min 0,0 UV-I 0 W/m 6,8 C 1,8 C 30,6 km/h (5 Bft)
02.01.2023 08:45 9,3 C 8,3 C 85 % 1016,2 hPa 0,0 l/m 19,4 km/h (3 Bft) S 183 0 min 0,0 UV-I 0 W/m 6,9 C 2,6 C 35,4 km/h (5 Bft)
02.01.2023 08:48 9,3 C 8,3 C 85 % 1016,3 hPa 0,0 l/m 24,5 km/h (4 Bft) S 175 0 min 0,0 UV-I 0 W/m 6,9 C 1,0 C 35,4 km/h (5 Bft)
02.01.2023 08:51 9,3 C 8,3 C 85 % 1016,6 hPa 0,0 l/m 22,3 km/h (4 Bft) S 184 0 min 0,0 UV-I 0 W/m 6,9 C 1,7 C 38,6 km/h (5 Bft)
02.01.2023 08:54 9,3 C 8,3 C 85 % 1016,5 hPa 0,0 l/m 22,0 km/h (4 Bft) S 186 0 min 0,0 UV-I 0 W/m 6,9 C 1,7 C 33,8 km/h (5 Bft)
02.01.2023 08:57 9,3 C 8,3 C 85 % 1016,7 hPa 0,0 l/m 22,3 km/h (4 Bft) S-SW 202 0 min 0,0 UV-I 5 W/m 6,9 C 1,7 C 37,0 km/h (5 Bft)
02.01.2023 09:00 9,4 C 8,3 C 85 % 1017,1 hPa 0,0 l/m 25,2 km/h (4 Bft) S-SW 196 0 min 0,0 UV-I 6 W/m 7,0 C 1,0 C 41,8 km/h (6 Bft)
02.01.2023 09:03 9,4 C 8,3 C 85 % 1016,6 hPa 0,0 l/m 20,0 km/h (4 Bft) SW 216 0 min 0,0 UV-I 5 W/m 7,0 C 2,5 C 35,4 km/h (5 Bft)
02.01.2023 09:06 9,3 C 8,3 C 85 % 1016,7 hPa 0,0 l/m 23,2 km/h (4 Bft) S-SO 165 0 min 0,0 UV-I 5 W/m 6,9 C 1,4 C 38,6 km/h (5 Bft)
02.01.2023 09:09 9,4 C 8,3 C 85 % 1016,7 hPa 0,0 l/m 20,0 km/h (4 Bft) S-SO 158 0 min 0,0 UV-I 0 W/m 7,0 C 2,5 C 33,8 km/h (5 Bft)
02.01.2023 09:12 9,3 C 8,3 C 85 % 1016,7 hPa 0,0 l/m 22,2 km/h (4 Bft) S 181 0 min 0,0 UV-I 4 W/m 6,9 C 1,7 C 41,8 km/h (6 Bft)
02.01.2023 09:15 9,3 C 8,3 C 85 % 1016,8 hPa 0,0 l/m 20,0 km/h (4 Bft) S 174 0 min 0,0 UV-I 7 W/m 6,9 C 2,4 C 33,8 km/h (5 Bft)
02.01.2023 09:18 9,3 C 8,3 C 85 % 1016,7 hPa 0,0 l/m 21,2 km/h (4 Bft) S 178 0 min 0,0 UV-I 10 W/m 6,9 C 2,0 C 35,4 km/h (5 Bft)
02.01.2023 09:21 9,3 C 8,3 C 85 % 1016,7 hPa 0,0 l/m 23,1 km/h (4 Bft) O-SO 121 0 min 0,0 UV-I 11 W/m 6,9 C 1,4 C 35,4 km/h (5 Bft)
02.01.2023 09:24 9,3 C 8,3 C 85 % 1016,9 hPa 0,0 l/m 19,0 km/h (3 Bft) SW 227 0 min 0,0 UV-I 9 W/m 6,9 C 2,7 C 33,8 km/h (5 Bft)
02.01.2023 09:27 9,3 C 8,3 C 86 % 1016,8 hPa 0,0 l/m 20,7 km/h (4 Bft) S-SW 205 0 min 0,0 UV-I 15 W/m 7,1 C 2,2 C 30,6 km/h (5 Bft)
02.01.2023 09:30 9,2 C 8,3 C 86 % 1016,9 hPa 0,0 l/m 20,3 km/h (4 Bft) S-SW 213 0 min 0,0 UV-I 17 W/m 7,0 C 2,2 C 33,8 km/h (5 Bft)
02.01.2023 09:33 9,2 C 8,3 C 86 % 1017,0 hPa 0,0 l/m 20,5 km/h (4 Bft) SW 214 0 min 0,0 UV-I 12 W/m 7,0 C 2,1 C 32,2 km/h (5 Bft)
02.01.2023 09:36 9,2 C 7,8 C 86 % 1017,0 hPa 0,0 l/m 18,0 km/h (3 Bft) SW 218 0 min 0,0 UV-I 11 W/m 7,0 C 3,0 C 25,7 km/h (4 Bft)
02.01.2023 09:39 9,2 C 7,8 C 87 % 1017,0 hPa 0,0 l/m 16,7 km/h (3 Bft) S 181 0 min 0,0 UV-I 10 W/m 7,2 C 3,5 C 24,1 km/h (4 Bft)
02.01.2023 09:42 9,1 C 7,8 C 87 % 1017,1 hPa 0,0 l/m 21,2 km/h (4 Bft) S 190 0 min 0,0 UV-I 8 W/m 7,1 C 1,7 C 33,8 km/h (5 Bft)
02.01.2023 09:45 9,1 C 7,8 C 87 % 1017,1 hPa 0,2 l/m 21,0 km/h (4 Bft) S-SW 193 0 min 0,0 UV-I 12 W/m 7,1 C 1,8 C 33,8 km/h (5 Bft)
02.01.2023 09:48 9,1 C 7,8 C 87 % 1017,2 hPa 0,2 l/m 19,8 km/h (3 Bft) SW 215 0 min 0,0 UV-I 10 W/m 7,1 C 2,2 C 29,0 km/h (5 Bft)
02.01.2023 09:51 9,0 C 7,8 C 88 % 1017,2 hPa 0,0 l/m 16,6 km/h (3 Bft) S-SW 194 0 min 0,0 UV-I 9 W/m 7,1 C 3,3 C 29,0 km/h (5 Bft)
02.01.2023 09:54 8,9 C 7,8 C 88 % 1017,3 hPa 0,2 l/m 18,2 km/h (3 Bft) SW 221 0 min 0,0 UV-I 12 W/m 7,0 C 2,5 C 24,1 km/h (4 Bft)
02.01.2023 09:57 8,9 C 7,8 C 88 % 1017,4 hPa 0,0 l/m 12,0 km/h (2 Bft) S-SW 200 0 min 0,0 UV-I 13 W/m 7,0 C 5,2 C 20,9 km/h (4 Bft)
02.01.2023 10:00 8,9 C 7,8 C 89 % 1017,4 hPa 0,2 l/m 16,4 km/h (3 Bft) S-SW 192 0 min 0,0 UV-I 18 W/m 7,2 C 3,2 C 29,0 km/h (5 Bft)
02.01.2023 10:03 8,8 C 7,8 C 89 % 1017,5 hPa 0,0 l/m 15,3 km/h (3 Bft) S 185 0 min 0,0 UV-I 20 W/m 7,1 C 3,5 C 24,1 km/h (4 Bft)
02.01.2023 10:06 8,8 C 7,8 C 89 % 1017,6 hPa 0,2 l/m 14,9 km/h (3 Bft) S-SW 194 0 min 0,0 UV-I 22 W/m 7,1 C 3,7 C 22,5 km/h (4 Bft)
02.01.2023 10:09 8,7 C 7,8 C 89 % 1017,6 hPa 0,0 l/m 17,8 km/h (3 Bft) S-SW 204 0 min 0,0 UV-I 29 W/m 7,0 C 2,4 C 25,7 km/h (4 Bft)
02.01.2023 10:12 8,7 C 7,8 C 89 % 1017,6 hPa 0,2 l/m 17,1 km/h (3 Bft) S 190 0 min 0,0 UV-I 32 W/m 7,0 C 2,7 C 27,4 km/h (4 Bft)
02.01.2023 10:15 8,7 C 7,8 C 89 % 1017,7 hPa 0,2 l/m 17,7 km/h (3 Bft) SW 221 0 min 0,0 UV-I 24 W/m 7,0 C 2,4 C 27,4 km/h (4 Bft)
02.01.2023 10:18 8,6 C 7,8 C 89 % 1017,7 hPa 0,2 l/m 16,2 km/h (3 Bft) SW 219 0 min 0,0 UV-I 15 W/m 6,9 C 2,9 C 24,1 km/h (4 Bft)
02.01.2023 10:21 8,6 C 7,8 C 89 % 1017,7 hPa 0,2 l/m 14,5 km/h (3 Bft) S-SW 192 0 min 0,0 UV-I 17 W/m 6,9 C 3,7 C 22,5 km/h (4 Bft)
02.01.2023 10:24 8,6 C 7,8 C 90 % 1017,8 hPa 0,0 l/m 12,4 km/h (3 Bft) SW 215 0 min 0,0 UV-I 13 W/m 7,1 C 4,7 C 22,5 km/h (4 Bft)
02.01.2023 10:27 8,6 C 7,8 C 90 % 1017,8 hPa 0,2 l/m 17,7 km/h (3 Bft) S-SW 211 0 min 0,0 UV-I 12 W/m 7,1 C 2,3 C 25,7 km/h (4 Bft)
02.01.2023 10:30 8,6 C 7,8 C 90 % 1017,8 hPa 0,0 l/m 15,1 km/h (3 Bft) SW 225 0 min 0,0 UV-I 11 W/m 7,1 C 3,4 C 20,9 km/h (4 Bft)
02.01.2023 10:33 8,6 C 7,8 C 90 % 1017,9 hPa 0,0 l/m 10,1 km/h (2 Bft) W-SW 254 0 min 0,0 UV-I 9 W/m 7,1 C 6,0 C 14,5 km/h (3 Bft)
02.01.2023 10:36 8,6 C 7,8 C 90 % 1018,0 hPa 0,0 l/m 9,5 km/h (2 Bft) SW 221 0 min 0,0 UV-I 13 W/m 7,1 C 6,4 C 16,1 km/h (3 Bft)
02.01.2023 10:39 8,6 C 7,8 C 90 % 1017,9 hPa 0,2 l/m 6,9 km/h (2 Bft) S-SW 207 0 min 0,0 UV-I 11 W/m 7,1 C 8,2 C 11,3 km/h (2 Bft)
02.01.2023 10:42 8,6 C 7,8 C 90 % 1018,1 hPa 0,2 l/m 8,1 km/h (2 Bft) S-SW 205 0 min 0,0 UV-I 11 W/m 7,1 C 7,3 C 17,7 km/h (3 Bft)
02.01.2023 10:45 8,6 C 7,8 C 90 % 1018,2 hPa 0,2 l/m 7,6 km/h (2 Bft) S-SO 159 0 min 0,0 UV-I 17 W/m 7,1 C 7,7 C 19,3 km/h (3 Bft)
02.01.2023 10:48 8,6 C 7,8 C 90 % 1018,1 hPa 0,0 l/m 11,0 km/h (2 Bft) W-SW 247 0 min 0,0 UV-I 27 W/m 7,1 C 5,5 C 19,3 km/h (3 Bft)
02.01.2023 10:51 8,6 C 7,8 C 90 % 1018,4 hPa 0,0 l/m 13,6 km/h (3 Bft) S-SW 198 0 min 0,0 UV-I 32 W/m 7,1 C 4,1 C 24,1 km/h (4 Bft)
02.01.2023 10:54 8,5 C 7,8 C 90 % 1018,4 hPa 0,0 l/m 11,1 km/h (2 Bft) SW 215 0 min 0,0 UV-I 34 W/m 7,0 C 5,3 C 22,5 km/h (4 Bft)
02.01.2023 10:57 8,4 C 7,8 C 90 % 1018,4 hPa 0,0 l/m 12,4 km/h (3 Bft) W-SW 254 0 min 0,0 UV-I 32 W/m 6,9 C 4,5 C 20,9 km/h (4 Bft)
02.01.2023 11:00 8,4 C 7,8 C 90 % 1018,5 hPa 0,2 l/m 12,4 km/h (3 Bft) W-SW 257 0 min 0,0 UV-I 32 W/m 6,9 C 4,5 C 19,3 km/h (3 Bft)
02.01.2023 11:03 8,3 C 7,8 C 90 % 1018,4 hPa 0,0 l/m 12,0 km/h (2 Bft) S-SW 203 0 min 0,0 UV-I 34 W/m 6,8 C 4,6 C 22,5 km/h (4 Bft)
02.01.2023 11:06 8,2 C 7,2 C 90 % 1018,5 hPa 0,0 l/m 11,6 km/h (2 Bft) W-SW 240 0 min 0,0 UV-I 29 W/m 6,7 C 4,7 C 22,5 km/h (4 Bft)
02.01.2023 11:09 8,2 C 7,2 C 90 % 1018,5 hPa 0,0 l/m 9,5 km/h (2 Bft) S-SW 199 0 min 0,0 UV-I 26 W/m 6,7 C 5,9 C 17,7 km/h (3 Bft)
02.01.2023 11:12 8,1 C 7,2 C 90 % 1018,7 hPa 0,2 l/m 8,8 km/h (2 Bft) SW 225 0 min 0,0 UV-I 28 W/m 6,6 C 6,3 C 16,1 km/h (3 Bft)
02.01.2023 11:15 8,1 C 7,2 C 90 % 1018,6 hPa 0,0 l/m 7,7 km/h (2 Bft) SW 220 0 min 0,0 UV-I 33 W/m 6,6 C 7,1 C 16,1 km/h (3 Bft)
02.01.2023 11:18 8,1 C 7,2 C 90 % 1018,6 hPa 0,0 l/m 9,1 km/h (2 Bft) SW 234 0 min 0,0 UV-I 32 W/m 6,6 C 6,1 C 17,7 km/h (3 Bft)
02.01.2023 11:21 8,0 C 7,2 C 90 % 1018,6 hPa 0,2 l/m 10,3 km/h (2 Bft) SW 218 0 min 0,0 UV-I 38 W/m 6,5 C 5,2 C 16,1 km/h (3 Bft)
02.01.2023 11:24 8,0 C 7,2 C 90 % 1018,5 hPa 0,0 l/m 10,0 km/h (2 Bft) S-SW 205 0 min 0,0 UV-I 42 W/m 6,5 C 5,4 C 16,1 km/h (3 Bft)
02.01.2023 11:27 8,0 C 7,2 C 90 % 1018,6 hPa 0,0 l/m 10,5 km/h (2 Bft) SW 219 0 min 0,0 UV-I 43 W/m 6,5 C 5,1 C 16,1 km/h (3 Bft)
02.01.2023 11:30 8,0 C 7,2 C 90 % 1018,8 hPa 0,0 l/m 11,9 km/h (2 Bft) S-SW 192 0 min 0,0 UV-I 41 W/m 6,5 C 4,3 C 17,7 km/h (3 Bft)
02.01.2023 11:33 7,9 C 7,2 C 90 % 1018,6 hPa 0,0 l/m 11,5 km/h (2 Bft) SW 219 0 min 0,0 UV-I 39 W/m 6,4 C 4,4 C 16,1 km/h (3 Bft)
02.01.2023 11:36 8,0 C 7,2 C 90 % 1018,7 hPa 0,0 l/m 11,8 km/h (2 Bft) S-SW 196 0 min 0,0 UV-I 40 W/m 6,5 C 4,3 C 16,1 km/h (3 Bft)
02.01.2023 11:39 8,0 C 7,2 C 90 % 1018,6 hPa 0,2 l/m 10,1 km/h (2 Bft) S-SW 200 0 min 0,0 UV-I 41 W/m 6,5 C 5,3 C 14,5 km/h (3 Bft)
02.01.2023 11:42 8,0 C 7,2 C 90 % 1018,5 hPa 0,0 l/m 10,7 km/h (2 Bft) S-SW 205 0 min 0,0 UV-I 46 W/m 6,5 C 5,0 C 16,1 km/h (3 Bft)
02.01.2023 11:45 8,0 C 7,2 C 90 % 1018,5 hPa 0,0 l/m 13,4 km/h (3 Bft) S 170 0 min 0,0 UV-I 44 W/m 6,5 C 3,5 C 19,3 km/h (3 Bft)
02.01.2023 11:48 8,0 C 7,2 C 90 % 1018,5 hPa 0,0 l/m 12,4 km/h (3 Bft) S 187 0 min 0,0 UV-I 41 W/m 6,5 C 4,0 C 20,9 km/h (4 Bft)
02.01.2023 11:51 7,9 C 7,2 C 90 % 1018,5 hPa 0,0 l/m 12,8 km/h (3 Bft) S 186 0 min 0,0 UV-I 36 W/m 6,4 C 3,7 C 19,3 km/h (3 Bft)
02.01.2023 11:54 7,9 C 7,2 C 90 % 1018,5 hPa 0,0 l/m 13,2 km/h (3 Bft) S-SW 209 0 min 0,0 UV-I 33 W/m 6,4 C 3,5 C 19,3 km/h (3 Bft)
02.01.2023 11:57 7,9 C 7,2 C 90 % 1018,4 hPa 0,0 l/m 11,5 km/h (2 Bft) S 169 0 min 0,0 UV-I 38 W/m 6,4 C 4,4 C 20,9 km/h (4 Bft)
02.01.2023 12:00 7,9 C 7,2 C 90 % 1018,5 hPa 0,0 l/m 12,1 km/h (2 Bft) S-SW 209 0 min 0,0 UV-I 44 W/m 6,4 C 4,0 C 17,7 km/h (3 Bft)
02.01.2023 12:03 7,9 C 7,2 C 90 % 1018,5 hPa 0,0 l/m 11,6 km/h (2 Bft) S-SW 193 0 min 0,0 UV-I 45 W/m 6,4 C 4,3 C 19,3 km/h (3 Bft)
02.01.2023 12:06 7,8 C 7,2 C 90 % 1018,4 hPa 0,0 l/m 11,8 km/h (2 Bft) S-SW 205 0 min 0,0 UV-I 49 W/m 6,3 C 4,1 C 19,3 km/h (3 Bft)
02.01.2023 12:09 7,9 C 7,2 C 90 % 1018,4 hPa 0,0 l/m 11,6 km/h (2 Bft) S 173 0 min 0,0 UV-I 48 W/m 6,4 C 4,3 C 17,7 km/h (3 Bft)
02.01.2023 12:12 7,9 C 7,2 C 90 % 1018,4 hPa 0,0 l/m 10,1 km/h (2 Bft) S 187 0 min 0,0 UV-I 54 W/m 6,4 C 5,2 C 14,5 km/h (3 Bft)
02.01.2023 12:15 7,9 C 7,2 C 90 % 1018,3 hPa 0,0 l/m 10,1 km/h (2 Bft) S-SW 205 0 min 0,0 UV-I 57 W/m 6,4 C 5,2 C 14,5 km/h (3 Bft)
02.01.2023 12:18 7,9 C 7,8 C 90 % 1018,4 hPa 0,0 l/m 10,1 km/h (2 Bft) S 188 0 min 0,0 UV-I 65 W/m 6,4 C 5,2 C 16,1 km/h (3 Bft)
02.01.2023 12:21 7,9 C 7,8 C 90 % 1018,3 hPa 0,2 l/m 10,9 km/h (2 Bft) S-SW 208 0 min 0,0 UV-I 64 W/m 6,4 C 4,7 C 17,7 km/h (3 Bft)
02.01.2023 12:24 8,0 C 7,8 C 91 % 1018,3 hPa 0,0 l/m 10,0 km/h (2 Bft) S-SW 202 0 min 0,0 UV-I 71 W/m 6,6 C 5,4 C 17,7 km/h (3 Bft)
02.01.2023 12:27 8,1 C 7,8 C 91 % 1018,4 hPa 0,0 l/m 10,6 km/h (2 Bft) S 185 0 min 0,0 UV-I 75 W/m 6,7 C 5,1 C 24,1 km/h (4 Bft)
02.01.2023 12:30 8,1 C 7,8 C 91 % 1018,3 hPa 0,0 l/m 10,8 km/h (2 Bft) S-SO 167 0 min 0,0 UV-I 56 W/m 6,7 C 5,0 C 19,3 km/h (3 Bft)
02.01.2023 12:33 8,1 C 7,8 C 91 % 1018,3 hPa 0,0 l/m 12,9 km/h (3 Bft) S 169 0 min 0,0 UV-I 48 W/m 6,7 C 3,8 C 20,9 km/h (4 Bft)
02.01.2023 12:36 8,1 C 7,8 C 91 % 1018,4 hPa 0,0 l/m 10,7 km/h (2 Bft) S 183 0 min 0,0 UV-I 56 W/m 6,7 C 5,1 C 17,7 km/h (3 Bft)
02.01.2023 12:39 8,1 C 7,8 C 91 % 1018,5 hPa 0,0 l/m 13,1 km/h (3 Bft) S 186 0 min 0,0 UV-I 55 W/m 6,7 C 3,7 C 22,5 km/h (4 Bft)
02.01.2023 12:42 8,0 C 7,2 C 90 % 1018,5 hPa 0,0 l/m 14,2 km/h (3 Bft) S 183 0 min 0,0 UV-I 46 W/m 6,5 C 3,1 C 20,9 km/h (4 Bft)
02.01.2023 12:45 8,0 C 7,2 C 90 % 1018,4 hPa 0,0 l/m 14,1 km/h (3 Bft) S-SW 194 0 min 0,0 UV-I 44 W/m 6,5 C 3,1 C 24,1 km/h (4 Bft)
02.01.2023 12:48 7,9 C 7,2 C 90 % 1018,6 hPa 0,0 l/m 15,6 km/h (3 Bft) S-SW 194 0 min 0,0 UV-I 38 W/m 6,4 C 2,3 C 25,7 km/h (4 Bft)
02.01.2023 12:51 7,9 C 7,2 C 90 % 1018,8 hPa 0,0 l/m 19,3 km/h (3 Bft) S 175 0 min 0,0 UV-I 37 W/m 6,4 C 0,8 C 27,4 km/h (4 Bft)
02.01.2023 12:54 7,9 C 7,2 C 90 % 1018,7 hPa 0,0 l/m 17,7 km/h (3 Bft) S-SW 194 0 min 0,0 UV-I 35 W/m 6,4 C 1,4 C 29,0 km/h (5 Bft)
02.01.2023 12:57 7,9 C 7,2 C 90 % 1018,8 hPa 0,0 l/m 15,3 km/h (3 Bft) SW 220 0 min 0,0 UV-I 43 W/m 6,4 C 2,5 C 20,9 km/h (4 Bft)
02.01.2023 13:00 7,9 C 7,2 C 90 % 1018,8 hPa 0,0 l/m 14,6 km/h (3 Bft) S-SW 194 0 min 0,0 UV-I 53 W/m 6,4 C 2,8 C 20,9 km/h (4 Bft)
02.01.2023 13:03 7,9 C 7,2 C 90 % 1018,9 hPa 0,0 l/m 16,3 km/h (3 Bft) S-SW 206 0 min 0,0 UV-I 52 W/m 6,4 C 2,0 C 30,6 km/h (5 Bft)
02.01.2023 13:06 7,9 C 7,2 C 90 % 1018,9 hPa 0,0 l/m 14,0 km/h (3 Bft) S-SW 211 0 min 0,0 UV-I 51 W/m 6,4 C 3,1 C 20,9 km/h (4 Bft)
02.01.2023 13:09 7,9 C 7,2 C 90 % 1018,8 hPa 0,2 l/m 17,3 km/h (3 Bft) S-SW 196 0 min 0,0 UV-I 65 W/m 6,4 C 1,6 C 24,1 km/h (4 Bft)
02.01.2023 13:12 7,9 C 7,2 C 90 % 1018,7 hPa 0,0 l/m 18,0 km/h (3 Bft) S 190 0 min 0,1 UV-I 81 W/m 6,4 C 1,3 C 25,7 km/h (4 Bft)
02.01.2023 13:15 7,9 C 7,2 C 90 % 1018,8 hPa 0,0 l/m 15,1 km/h (3 Bft) S-SW 205 0 min 0,5 UV-I 88 W/m 6,4 C 2,5 C 25,7 km/h (4 Bft)
02.01.2023 13:18 7,9 C 7,2 C 90 % 1018,8 hPa 0,0 l/m 15,1 km/h (3 Bft) S-SW 195 0 min 0,1 UV-I 79 W/m 6,4 C 2,5 C 20,9 km/h (4 Bft)
02.01.2023 13:21 7,9 C 7,2 C 90 % 1018,7 hPa 0,0 l/m 16,6 km/h (3 Bft) S 175 0 min 0,0 UV-I 69 W/m 6,4 C 1,9 C 24,1 km/h (4 Bft)
02.01.2023 13:24 7,9 C 7,2 C 90 % 1018,8 hPa 0,0 l/m 15,7 km/h (3 Bft) S 172 0 min 0,0 UV-I 61 W/m 6,4 C 2,3 C 22,5 km/h (4 Bft)
02.01.2023 13:27 7,9 C 7,2 C 90 % 1018,9 hPa 0,0 l/m 15,2 km/h (3 Bft) S-SW 198 0 min 0,0 UV-I 49 W/m 6,4 C 2,5 C 24,1 km/h (4 Bft)
02.01.2023 13:30 7,8 C 7,2 C 90 % 1019,0 hPa 0,0 l/m 17,9 km/h (3 Bft) W-SW 237 0 min 0,0 UV-I 40 W/m 6,3 C 1,2 C 30,6 km/h (5 Bft)
02.01.2023 13:33 7,8 C 7,2 C 90 % 1019,0 hPa 0,0 l/m 15,9 km/h (3 Bft) S-SW 209 0 min 0,0 UV-I 38 W/m 6,3 C 2,1 C 22,5 km/h (4 Bft)
02.01.2023 13:36 7,8 C 7,2 C 90 % 1019,0 hPa 0,0 l/m 17,6 km/h (3 Bft) S 191 0 min 0,0 UV-I 35 W/m 6,3 C 1,4 C 27,4 km/h (4 Bft)
02.01.2023 13:39 7,8 C 7,2 C 90 % 1019,2 hPa 0,0 l/m 14,9 km/h (3 Bft) S 184 0 min 0,0 UV-I 27 W/m 6,3 C 2,5 C 24,1 km/h (4 Bft)
02.01.2023 13:42 7,8 C 7,2 C 90 % 1019,0 hPa 0,0 l/m 17,0 km/h (3 Bft) S 176 0 min 0,0 UV-I 30 W/m 6,3 C 1,6 C 25,7 km/h (4 Bft)
02.01.2023 13:45 7,8 C 7,2 C 90 % 1019,1 hPa 0,0 l/m 16,2 km/h (3 Bft) S-SW 213 0 min 0,0 UV-I 31 W/m 6,3 C 1,9 C 27,4 km/h (4 Bft)
02.01.2023 13:48 7,7 C 7,2 C 90 % 1019,2 hPa 0,0 l/m 15,7 km/h (3 Bft) S-SW 203 0 min 0,0 UV-I 34 W/m 6,2 C 2,0 C 25,7 km/h (4 Bft)
02.01.2023 13:51 7,8 C 7,2 C 90 % 1019,2 hPa 0,0 l/m 19,3 km/h (3 Bft) S-SW 201 0 min 0,0 UV-I 36 W/m 6,3 C 0,7 C 27,4 km/h (4 Bft)
02.01.2023 13:54 7,8 C 7,2 C 90 % 1019,3 hPa 0,0 l/m 17,9 km/h (3 Bft) S 173 0 min 0,0 UV-I 38 W/m 6,3 C 1,2 C 25,7 km/h (4 Bft)
02.01.2023 13:57 7,8 C 7,2 C 90 % 1018,9 hPa 0,0 l/m 17,8 km/h (3 Bft) S-SW 197 0 min 0,0 UV-I 65 W/m 6,3 C 1,3 C 32,2 km/h (5 Bft)
02.01.2023 14:00 7,8 C 7,2 C 90 % 1019,1 hPa 0,0 l/m 18,3 km/h (3 Bft) S 182 0 min 0,0 UV-I 53 W/m 6,3 C 1,1 C 27,4 km/h (4 Bft)
02.01.2023 14:03 7,8 C 7,2 C 90 % 1019,2 hPa 0,0 l/m 16,0 km/h (3 Bft) S-SO 163 0 min 0,0 UV-I 56 W/m 6,3 C 2,0 C 24,1 km/h (4 Bft)
02.01.2023 14:06 7,8 C 7,2 C 90 % 1019,2 hPa 0,0 l/m 14,2 km/h (3 Bft) S-SW 213 0 min 0,0 UV-I 54 W/m 6,3 C 2,8 C 20,9 km/h (4 Bft)
02.01.2023 14:09 7,8 C 7,2 C 90 % 1019,2 hPa 0,0 l/m 14,0 km/h (3 Bft) S-SW 197 0 min 0,0 UV-I 31 W/m 6,3 C 2,9 C 22,5 km/h (4 Bft)
02.01.2023 14:12 7,8 C 7,2 C 90 % 1019,4 hPa 0,0 l/m 11,9 km/h (2 Bft) S-SW 194 0 min 0,0 UV-I 21 W/m 6,3 C 4,0 C 22,5 km/h (4 Bft)
02.01.2023 14:15 7,8 C 7,2 C 90 % 1019,4 hPa 0,2 l/m 13,8 km/h (3 Bft) SW 232 0 min 0,0 UV-I 19 W/m 6,3 C 3,0 C 19,3 km/h (3 Bft)
02.01.2023 14:18 7,8 C 7,2 C 90 % 1019,6 hPa 0,0 l/m 16,4 km/h (3 Bft) W-SW 247 0 min 0,0 UV-I 32 W/m 6,3 C 1,8 C 30,6 km/h (5 Bft)
02.01.2023 14:21 7,8 C 7,2 C 90 % 1019,5 hPa 0,2 l/m 14,1 km/h (3 Bft) S-SW 196 0 min 0,0 UV-I 54 W/m 6,3 C 2,9 C 19,3 km/h (3 Bft)
02.01.2023 14:24 7,8 C 7,2 C 90 % 1019,3 hPa 0,0 l/m 16,5 km/h (3 Bft) S 174 0 min 0,0 UV-I 56 W/m 6,3 C 1,8 C 22,5 km/h (4 Bft)
02.01.2023 14:27 7,7 C 7,2 C 90 % 1019,2 hPa 0,0 l/m 13,2 km/h (3 Bft) S-SW 198 0 min 0,0 UV-I 41 W/m 6,2 C 3,2 C 20,9 km/h (4 Bft)
02.01.2023 14:30 7,7 C 7,2 C 90 % 1019,5 hPa 0,0 l/m 13,1 km/h (3 Bft) S-SW 212 0 min 0,0 UV-I 45 W/m 6,2 C 3,3 C 22,5 km/h (4 Bft)
02.01.2023 14:33 7,7 C 7,2 C 90 % 1019,5 hPa 0,0 l/m 14,3 km/h (3 Bft) SW 227 0 min 0,0 UV-I 51 W/m 6,2 C 2,7 C 22,5 km/h (4 Bft)
02.01.2023 14:36 7,7 C 7,2 C 90 % 1019,7 hPa 0,0 l/m 16,2 km/h (3 Bft) S-SW 204 0 min 0,0 UV-I 44 W/m 6,2 C 1,8 C 27,4 km/h (4 Bft)
02.01.2023 14:39 7,7 C 6,7 C 90 % 1019,5 hPa 0,0 l/m 18,6 km/h (3 Bft) S 190 0 min 0,0 UV-I 38 W/m 6,2 C 0,8 C 32,2 km/h (5 Bft)
02.01.2023 14:42 7,7 C 6,7 C 90 % 1019,5 hPa 0,0 l/m 14,8 km/h (3 Bft) S-SW 192 0 min 0,0 UV-I 35 W/m 6,2 C 2,4 C 22,5 km/h (4 Bft)
02.01.2023 14:45 7,6 C 6,7 C 90 % 1019,5 hPa 0,0 l/m 19,3 km/h (3 Bft) S 171 0 min 0,0 UV-I 31 W/m 6,1 C 0,4 C 29,0 km/h (5 Bft)
02.01.2023 14:48 7,6 C 6,7 C 90 % 1019,6 hPa 0,0 l/m 18,3 km/h (3 Bft) S 191 0 min 0,0 UV-I 29 W/m 6,1 C 0,8 C 25,7 km/h (4 Bft)
02.01.2023 14:51 7,6 C 6,7 C 90 % 1019,7 hPa 0,0 l/m 13,9 km/h (3 Bft) S-SW 195 0 min 0,0 UV-I 37 W/m 6,1 C 2,8 C 20,9 km/h (4 Bft)
02.01.2023 14:54 7,6 C 6,7 C 90 % 1019,7 hPa 0,0 l/m 12,4 km/h (3 Bft) S-SW 207 0 min 0,0 UV-I 47 W/m 6,1 C 3,5 C 19,3 km/h (3 Bft)
02.01.2023 14:57 7,6 C 6,7 C 90 % 1019,9 hPa 0,0 l/m 12,8 km/h (3 Bft) S-SW 198 0 min 0,0 UV-I 51 W/m 6,1 C 3,3 C 19,3 km/h (3 Bft)
02.01.2023 15:00 7,6 C 6,7 C 90 % 1019,8 hPa 0,0 l/m 14,5 km/h (3 Bft) S-SW 209 0 min 0,0 UV-I 36 W/m 6,1 C 2,5 C 24,1 km/h (4 Bft)
02.01.2023 15:03 7,6 C 6,7 C 90 % 1019,8 hPa 0,0 l/m 13,6 km/h (3 Bft) S-SW 193 0 min 0,0 UV-I 34 W/m 6,1 C 2,9 C 22,5 km/h (4 Bft)
02.01.2023 15:06 7,6 C 6,7 C 90 % 1019,8 hPa 0,0 l/m 15,4 km/h (3 Bft) S 188 0 min 0,0 UV-I 45 W/m 6,1 C 2,0 C 22,5 km/h (4 Bft)
02.01.2023 15:09 7,6 C 6,7 C 90 % 1019,8 hPa 0,0 l/m 14,0 km/h (3 Bft) S-SW 200 0 min 0,0 UV-I 41 W/m 6,1 C 2,7 C 20,9 km/h (4 Bft)
02.01.2023 15:12 7,6 C 6,7 C 90 % 1019,8 hPa 0,2 l/m 14,2 km/h (3 Bft) S-SW 193 0 min 0,0 UV-I 27 W/m 6,1 C 2,6 C 19,3 km/h (3 Bft)
02.01.2023 15:15 7,6 C 6,7 C 90 % 1019,9 hPa 0,0 l/m 14,5 km/h (3 Bft) S 190 0 min 0,0 UV-I 30 W/m 6,1 C 2,5 C 22,5 km/h (4 Bft)
02.01.2023 15:18 7,5 C 6,7 C 90 % 1019,9 hPa 0,0 l/m 12,1 km/h (2 Bft) S-SW 203 0 min 0,0 UV-I 36 W/m 6,0 C 3,6 C 19,3 km/h (3 Bft)
02.01.2023 15:21 7,5 C 6,7 C 90 % 1020,1 hPa 0,0 l/m 11,6 km/h (2 Bft) S-SW 209 0 min 0,0 UV-I 23 W/m 6,0 C 3,9 C 17,7 km/h (3 Bft)
02.01.2023 15:24 7,5 C 6,7 C 90 % 1020,2 hPa 0,0 l/m 12,3 km/h (3 Bft) S 181 0 min 0,0 UV-I 17 W/m 6,0 C 3,5 C 17,7 km/h (3 Bft)
02.01.2023 15:27 7,5 C 6,7 C 90 % 1020,2 hPa 0,0 l/m 12,8 km/h (3 Bft) SW 232 0 min 0,0 UV-I 13 W/m 6,0 C 3,2 C 19,3 km/h (3 Bft)
02.01.2023 15:30 7,4 C 6,7 C 90 % 1020,2 hPa 0,0 l/m 14,3 km/h (3 Bft) SW 217 0 min 0,0 UV-I 11 W/m 5,9 C 2,3 C 20,9 km/h (4 Bft)
02.01.2023 15:33 7,4 C 6,7 C 90 % 1020,3 hPa 0,0 l/m 14,6 km/h (3 Bft) S-SW 198 0 min 0,0 UV-I 9 W/m 5,9 C 2,2 C 20,9 km/h (4 Bft)
02.01.2023 15:36 7,4 C 6,7 C 90 % 1020,3 hPa 0,0 l/m 15,3 km/h (3 Bft) S-SW 196 0 min 0,0 UV-I 9 W/m 5,9 C 1,8 C 25,7 km/h (4 Bft)
02.01.2023 15:39 7,4 C 6,7 C 90 % 1020,4 hPa 0,0 l/m 15,1 km/h (3 Bft) S-SW 198 0 min 0,0 UV-I 11 W/m 5,9 C 1,9 C 25,7 km/h (4 Bft)
02.01.2023 15:42 7,4 C 6,7 C 91 % 1020,4 hPa 0,0 l/m 17,1 km/h (3 Bft) S-SW 205 0 min 0,0 UV-I 12 W/m 6,0 C 1,1 C 30,6 km/h (5 Bft)
02.01.2023 15:45 7,4 C 6,7 C 91 % 1020,4 hPa 0,0 l/m 18,8 km/h (3 Bft) S-SW 196 0 min 0,0 UV-I 11 W/m 6,0 C 0,4 C 27,4 km/h (4 Bft)
02.01.2023 15:48 7,4 C 6,7 C 90 % 1020,3 hPa 0,0 l/m 14,6 km/h (3 Bft) SW 227 0 min 0,0 UV-I 14 W/m 5,9 C 2,2 C 20,9 km/h (4 Bft)
02.01.2023 15:51 7,4 C 6,7 C 90 % 1020,5 hPa 0,0 l/m 15,4 km/h (3 Bft) S 177 0 min 0,0 UV-I 12 W/m 5,9 C 1,8 C 24,1 km/h (4 Bft)
02.01.2023 15:54 7,4 C 6,7 C 90 % 1020,7 hPa 0,0 l/m 15,6 km/h (3 Bft) S 180 0 min 0,0 UV-I 12 W/m 5,9 C 1,7 C 22,5 km/h (4 Bft)
02.01.2023 15:57 7,4 C 6,7 C 90 % 1020,7 hPa 0,0 l/m 15,1 km/h (3 Bft) S-SO 165 0 min 0,0 UV-I 12 W/m 5,9 C 1,9 C 20,9 km/h (4 Bft)
02.01.2023 16:00 7,4 C 6,7 C 90 % 1020,7 hPa 0,0 l/m 12,0 km/h (2 Bft) SW 223 0 min 0,0 UV-I 9 W/m 5,9 C 3,5 C 19,3 km/h (3 Bft)
02.01.2023 16:03 7,4 C 6,7 C 90 % 1020,8 hPa 0,0 l/m 12,8 km/h (3 Bft) S-SW 212 0 min 0,0 UV-I 6 W/m 5,9 C 3,1 C 19,3 km/h (3 Bft)
02.01.2023 16:06 7,4 C 6,7 C 90 % 1020,8 hPa 0,0 l/m 15,2 km/h (3 Bft) S-SW 202 0 min 0,0 UV-I 8 W/m 5,9 C 1,9 C 20,9 km/h (4 Bft)
02.01.2023 16:09 7,4 C 6,7 C 90 % 1020,9 hPa 0,0 l/m 14,3 km/h (3 Bft) S 171 0 min 0,0 UV-I 14 W/m 5,9 C 2,3 C 20,9 km/h (4 Bft)
02.01.2023 16:12 7,4 C 6,7 C 90 % 1020,9 hPa 0,0 l/m 15,8 km/h (3 Bft) W-SW 248 0 min 0,0 UV-I 14 W/m 5,9 C 1,6 C 25,7 km/h (4 Bft)
02.01.2023 16:15 7,4 C 6,7 C 90 % 1021,0 hPa 0,0 l/m 14,5 km/h (3 Bft) S-SW 209 0 min 0,0 UV-I 16 W/m 5,9 C 2,2 C 25,7 km/h (4 Bft)
02.01.2023 16:18 7,3 C 6,7 C 90 % 1021,1 hPa 0,2 l/m 21,3 km/h (4 Bft) S-SW 209 0 min 0,0 UV-I 17 W/m 5,8 C -0,7 C 32,2 km/h (5 Bft)
02.01.2023 16:21 7,3 C 6,7 C 90 % 1021,1 hPa 0,0 l/m 17,5 km/h (3 Bft) SW 220 0 min 0,0 UV-I 19 W/m 5,8 C 0,8 C 32,2 km/h (5 Bft)
02.01.2023 16:24 7,3 C 6,7 C 90 % 1021,1 hPa 0,0 l/m 17,2 km/h (3 Bft) S-SW 205 0 min 0,0 UV-I 20 W/m 5,8 C 0,9 C 27,4 km/h (4 Bft)
02.01.2023 16:27 7,3 C 6,7 C 90 % 1021,1 hPa 0,0 l/m 13,5 km/h (3 Bft) SW 225 0 min 0,0 UV-I 21 W/m 5,8 C 2,6 C 20,9 km/h (4 Bft)
02.01.2023 16:30 7,3 C 6,1 C 90 % 1021,1 hPa 0,0 l/m 16,1 km/h (3 Bft) SW 218 0 min 0,0 UV-I 12 W/m 5,8 C 1,4 C 25,7 km/h (4 Bft)
02.01.2023 16:33 7,3 C 6,1 C 90 % 1021,1 hPa 0,0 l/m 17,5 km/h (3 Bft) S 175 0 min 0,0 UV-I 9 W/m 5,8 C 0,8 C 27,4 km/h (4 Bft)
02.01.2023 16:36 7,2 C 6,1 C 90 % 1021,2 hPa 0,0 l/m 19,5 km/h (3 Bft) S 185 0 min 0,0 UV-I 7 W/m 5,7 C -0,1 C 27,4 km/h (4 Bft)
02.01.2023 16:39 7,2 C 6,1 C 90 % 1021,2 hPa 0,0 l/m 16,4 km/h (3 Bft) S 184 0 min 0,0 UV-I 6 W/m 5,7 C 1,1 C 25,7 km/h (4 Bft)
02.01.2023 16:42 7,2 C 6,1 C 89 % 1021,3 hPa 0,0 l/m 16,4 km/h (3 Bft) SW 223 0 min 0,0 UV-I 4 W/m 5,5 C 1,1 C 24,1 km/h (4 Bft)
02.01.2023 16:45 7,2 C 6,1 C 89 % 1021,4 hPa 0,0 l/m 14,5 km/h (3 Bft) SW 216 0 min 0,0 UV-I 0 W/m 5,5 C 2,0 C 20,9 km/h (4 Bft)
02.01.2023 16:48 7,2 C 6,1 C 90 % 1021,4 hPa 0,0 l/m 15,4 km/h (3 Bft) S 190 0 min 0,0 UV-I 0 W/m 5,7 C 1,6 C 20,9 km/h (4 Bft)
02.01.2023 16:51 7,2 C 6,1 C 90 % 1021,6 hPa 0,0 l/m 13,3 km/h (3 Bft) S 177 0 min 0,0 UV-I 0 W/m 5,7 C 2,6 C 22,5 km/h (4 Bft)
02.01.2023 16:54 7,1 C 6,1 C 90 % 1021,7 hPa 0,0 l/m 12,1 km/h (2 Bft) S 188 0 min 0,0 UV-I 0 W/m 5,6 C 3,1 C 17,7 km/h (3 Bft)
02.01.2023 16:57 7,1 C 6,1 C 90 % 1021,7 hPa 0,0 l/m 10,6 km/h (2 Bft) SW 219 0 min 0,0 UV-I 0 W/m 5,6 C 4,0 C 17,7 km/h (3 Bft)
02.01.2023 17:00 7,1 C 6,1 C 90 % 1021,8 hPa 0,0 l/m 14,2 km/h (3 Bft) S 185 0 min 0,0 UV-I 0 W/m 5,6 C 2,0 C 32,2 km/h (5 Bft)
02.01.2023 17:03 7,1 C 6,1 C 90 % 1021,9 hPa 0,0 l/m 17,0 km/h (3 Bft) S-SO 161 0 min 0,0 UV-I 0 W/m 5,6 C 0,7 C 29,0 km/h (5 Bft)
02.01.2023 17:06 7,1 C 6,1 C 90 % 1021,9 hPa 0,0 l/m 16,2 km/h (3 Bft) S-SW 213 0 min 0,0 UV-I 0 W/m 5,6 C 1,1 C 25,7 km/h (4 Bft)
02.01.2023 17:09 7,1 C 6,1 C 90 % 1021,9 hPa 0,0 l/m 14,7 km/h (3 Bft) S 189 0 min 0,0 UV-I 0 W/m 5,6 C 1,8 C 25,7 km/h (4 Bft)
02.01.2023 17:12 7,1 C 6,1 C 90 % 1022,0 hPa 0,0 l/m 14,8 km/h (3 Bft) S 189 0 min 0,0 UV-I 0 W/m 5,6 C 1,7 C 25,7 km/h (4 Bft)
02.01.2023 17:15 7,1 C 6,1 C 90 % 1022,1 hPa 0,0 l/m 13,7 km/h (3 Bft) S-SW 198 0 min 0,0 UV-I 0 W/m 5,6 C 2,3 C 17,7 km/h (3 Bft)
02.01.2023 17:18 7,1 C 6,1 C 90 % 1022,1 hPa 0,0 l/m 12,4 km/h (3 Bft) S-SW 193 0 min 0,0 UV-I 0 W/m 5,6 C 3,0 C 19,3 km/h (3 Bft)
02.01.2023 17:21 7,0 C 6,1 C 90 % 1022,1 hPa 0,0 l/m 12,8 km/h (3 Bft) S-SW 196 0 min 0,0 UV-I 0 W/m 5,5 C 2,6 C 17,7 km/h (3 Bft)
02.01.2023 17:24 6,9 C 6,1 C 90 % 1022,3 hPa 0,0 l/m 16,7 km/h (3 Bft) S-SW 205 0 min 0,0 UV-I 0 W/m 5,4 C 0,6 C 24,1 km/h (4 Bft)
02.01.2023 17:27 7,0 C 6,1 C 90 % 1022,5 hPa 0,0 l/m 15,0 km/h (3 Bft) S-SW 209 0 min 0,0 UV-I 0 W/m 5,5 C 1,5 C 22,5 km/h (4 Bft)
02.01.2023 17:30 7,0 C 6,1 C 90 % 1022,4 hPa 0,0 l/m 11,1 km/h (2 Bft) S 190 0 min 0,0 UV-I 0 W/m 5,5 C 3,6 C 17,7 km/h (3 Bft)
02.01.2023 17:33 6,9 C 6,1 C 90 % 1022,5 hPa 0,0 l/m 11,7 km/h (2 Bft) S-SW 206 0 min 0,0 UV-I 0 W/m 5,4 C 3,1 C 17,7 km/h (3 Bft)
02.01.2023 17:36 6,9 C 6,1 C 90 % 1022,5 hPa 0,0 l/m 11,2 km/h (2 Bft) S-SW 197 0 min 0,0 UV-I 0 W/m 5,4 C 3,4 C 17,7 km/h (3 Bft)
02.01.2023 17:39 6,9 C 6,1 C 90 % 1022,6 hPa 0,0 l/m 9,9 km/h (2 Bft) S-SW 198 0 min 0,0 UV-I 0 W/m 5,4 C 4,2 C 14,5 km/h (3 Bft)
02.01.2023 17:42 6,9 C 6,1 C 90 % 1022,6 hPa 0,0 l/m 13,3 km/h (3 Bft) SW 215 0 min 0,0 UV-I 0 W/m 5,4 C 2,2 C 20,9 km/h (4 Bft)
02.01.2023 17:45 6,9 C 6,1 C 90 % 1022,7 hPa 0,0 l/m 12,4 km/h (3 Bft) S-SW 211 0 min 0,0 UV-I 0 W/m 5,4 C 2,7 C 19,3 km/h (3 Bft)
02.01.2023 17:48 6,8 C 6,1 C 90 % 1022,7 hPa 0,0 l/m 10,2 km/h (2 Bft) SW 228 0 min 0,0 UV-I 0 W/m 5,3 C 3,9 C 19,3 km/h (3 Bft)
02.01.2023 17:51 6,8 C 6,1 C 90 % 1022,8 hPa 0,0 l/m 13,1 km/h (3 Bft) S-SW 202 0 min 0,0 UV-I 0 W/m 5,3 C 2,2 C 22,5 km/h (4 Bft)
02.01.2023 17:54 6,8 C 6,1 C 90 % 1022,6 hPa 0,0 l/m 12,1 km/h (2 Bft) S-SW 204 0 min 0,0 UV-I 0 W/m 5,3 C 2,8 C 17,7 km/h (3 Bft)
02.01.2023 17:57 6,8 C 6,1 C 90 % 1022,8 hPa 0,0 l/m 11,7 km/h (2 Bft) SW 232 0 min 0,0 UV-I 0 W/m 5,3 C 3,0 C 20,9 km/h (4 Bft)
02.01.2023 18:00 6,7 C 6,1 C 90 % 1023,0 hPa 0,0 l/m 12,6 km/h (3 Bft) S 180 0 min 0,0 UV-I 0 W/m 5,2 C 2,4 C 22,5 km/h (4 Bft)
02.01.2023 18:03 6,7 C 5,6 C 90 % 1023,0 hPa 0,0 l/m 10,7 km/h (2 Bft) W-SW 258 0 min 0,0 UV-I 0 W/m 5,2 C 3,5 C 20,9 km/h (4 Bft)
02.01.2023 18:06 6,7 C 5,6 C 90 % 1023,0 hPa 0,0 l/m 15,1 km/h (3 Bft) S-SW 206 0 min 0,0 UV-I 0 W/m 5,2 C 1,1 C 30,6 km/h (5 Bft)
02.01.2023 18:09 6,6 C 5,6 C 90 % 1023,1 hPa 0,0 l/m 12,6 km/h (3 Bft) SW 236 0 min 0,0 UV-I 0 W/m 5,1 C 2,3 C 24,1 km/h (4 Bft)
02.01.2023 18:12 6,6 C 5,6 C 90 % 1023,2 hPa 0,0 l/m 13,3 km/h (3 Bft) W-SW 239 0 min 0,0 UV-I 0 W/m 5,1 C 1,9 C 25,7 km/h (4 Bft)
02.01.2023 18:15 6,6 C 5,6 C 90 % 1023,1 hPa 0,0 l/m 14,2 km/h (3 Bft) SW 229 0 min 0,0 UV-I 0 W/m 5,1 C 1,4 C 27,4 km/h (4 Bft)
02.01.2023 18:18 6,6 C 5,6 C 90 % 1023,3 hPa 0,0 l/m 12,5 km/h (3 Bft) W-SW 237 0 min 0,0 UV-I 0 W/m 5,1 C 2,3 C 19,3 km/h (3 Bft)
02.01.2023 18:21 6,6 C 5,6 C 90 % 1023,3 hPa 0,0 l/m 10,6 km/h (2 Bft) SW 215 0 min 0,0 UV-I 0 W/m 5,1 C 3,4 C 16,1 km/h (3 Bft)
02.01.2023 18:24 6,6 C 5,6 C 90 % 1023,4 hPa 0,0 l/m 10,0 km/h (2 Bft) SW 224 0 min 0,0 UV-I 0 W/m 5,1 C 3,8 C 17,7 km/h (3 Bft)
02.01.2023 18:27 6,6 C 5,6 C 90 % 1023,4 hPa 0,0 l/m 9,6 km/h (2 Bft) W-SW 244 0 min 0,0 UV-I 0 W/m 5,1 C 4,1 C 20,9 km/h (4 Bft)
02.01.2023 18:30 6,6 C 5,6 C 90 % 1023,4 hPa 0,0 l/m 9,0 km/h (2 Bft) S-SW 211 0 min 0,0 UV-I 0 W/m 5,1 C 4,5 C 16,1 km/h (3 Bft)
02.01.2023 18:33 6,6 C 5,6 C 90 % 1023,4 hPa 0,0 l/m 11,9 km/h (2 Bft) SW 220 0 min 0,0 UV-I 0 W/m 5,1 C 2,7 C 19,3 km/h (3 Bft)
02.01.2023 18:36 6,6 C 5,6 C 90 % 1023,4 hPa 0,0 l/m 7,6 km/h (2 Bft) W-SW 252 0 min 0,0 UV-I 0 W/m 5,1 C 5,6 C 14,5 km/h (3 Bft)
02.01.2023 18:39 6,6 C 5,6 C 90 % 1023,5 hPa 0,0 l/m 8,1 km/h (2 Bft) SW 227 0 min 0,0 UV-I 0 W/m 5,1 C 5,2 C 17,7 km/h (3 Bft)
02.01.2023 18:42 6,6 C 5,6 C 90 % 1023,5 hPa 0,0 l/m 9,7 km/h (2 Bft) W-SW 240 0 min 0,0 UV-I 0 W/m 5,1 C 4,0 C 16,1 km/h (3 Bft)
02.01.2023 18:45 6,5 C 5,6 C 90 % 1023,6 hPa 0,2 l/m 10,6 km/h (2 Bft) S-SW 197 0 min 0,0 UV-I 0 W/m 5,0 C 3,3 C 19,3 km/h (3 Bft)
02.01.2023 18:48 6,5 C 5,6 C 90 % 1023,7 hPa 0,0 l/m 11,4 km/h (2 Bft) SW 235 0 min 0,0 UV-I 0 W/m 5,0 C 2,8 C 24,1 km/h (4 Bft)
02.01.2023 18:51 6,5 C 5,6 C 90 % 1023,7 hPa 0,0 l/m 7,9 km/h (2 Bft) S 189 0 min 0,0 UV-I 0 W/m 5,0 C 5,3 C 14,5 km/h (3 Bft)
02.01.2023 18:54 6,5 C 5,6 C 90 % 1023,7 hPa 0,0 l/m 7,4 km/h (2 Bft) S-SW 204 0 min 0,0 UV-I 0 W/m 5,0 C 5,7 C 12,9 km/h (3 Bft)
02.01.2023 18:57 6,5 C 5,6 C 90 % 1023,8 hPa 0,0 l/m 10,2 km/h (2 Bft) S-SW 209 0 min 0,0 UV-I 0 W/m 5,0 C 3,6 C 16,1 km/h (3 Bft)
02.01.2023 19:00 6,4 C 5,6 C 90 % 1023,9 hPa 0,0 l/m 8,9 km/h (2 Bft) SW 225 0 min 0,0 UV-I 0 W/m 4,9 C 4,4 C 14,5 km/h (3 Bft)
02.01.2023 19:03 6,4 C 5,6 C 90 % 1023,9 hPa 0,0 l/m 4,8 km/h (1 Bft) SW 219 0 min 0,0 UV-I 0 W/m 4,9 C 6,4 C 8,0 km/h (2 Bft)
02.01.2023 19:06 6,4 C 5,6 C 90 % 1023,9 hPa 0,2 l/m 8,3 km/h (2 Bft) S-SW 207 0 min 0,0 UV-I 0 W/m 4,9 C 4,8 C 19,3 km/h (3 Bft)
02.01.2023 19:09 6,3 C 5,6 C 90 % 1023,9 hPa 0,0 l/m 11,2 km/h (2 Bft) S-SW 207 0 min 0,0 UV-I 0 W/m 4,8 C 2,7 C 19,3 km/h (3 Bft)
02.01.2023 19:12 6,3 C 5,0 C 90 % 1023,9 hPa 0,0 l/m 13,7 km/h (3 Bft) SW 232 0 min 0,0 UV-I 0 W/m 4,8 C 1,3 C 22,5 km/h (4 Bft)
02.01.2023 19:15 6,2 C 5,0 C 90 % 1024,0 hPa 0,0 l/m 8,0 km/h (2 Bft) W 268 0 min 0,0 UV-I 0 W/m 4,7 C 4,9 C 12,9 km/h (3 Bft)
02.01.2023 19:18 6,2 C 5,0 C 90 % 1024,1 hPa 0,0 l/m 8,7 km/h (2 Bft) SW 225 0 min 0,0 UV-I 0 W/m 4,7 C 4,3 C 17,7 km/h (3 Bft)
02.01.2023 19:21 6,1 C 5,0 C 90 % 1024,2 hPa 0,0 l/m 10,5 km/h (2 Bft) S-SW 213 0 min 0,0 UV-I 0 W/m 4,6 C 3,0 C 22,5 km/h (4 Bft)
02.01.2023 19:24 6,2 C 5,0 C 90 % 1024,1 hPa 0,0 l/m 9,2 km/h (2 Bft) SW 228 0 min 0,0 UV-I 0 W/m 4,7 C 4,0 C 19,3 km/h (3 Bft)
02.01.2023 19:27 6,1 C 5,0 C 90 % 1024,2 hPa 0,0 l/m 9,4 km/h (2 Bft) S-SW 196 0 min 0,0 UV-I 0 W/m 4,6 C 3,7 C 16,1 km/h (3 Bft)
02.01.2023 19:30 6,1 C 5,0 C 90 % 1024,2 hPa 0,0 l/m 11,5 km/h (2 Bft) S-SW 193 0 min 0,0 UV-I 0 W/m 4,6 C 2,3 C 22,5 km/h (4 Bft)
02.01.2023 19:33 6,1 C 5,0 C 90 % 1024,2 hPa 0,0 l/m 12,4 km/h (3 Bft) S 187 0 min 0,0 UV-I 0 W/m 4,6 C 1,8 C 22,5 km/h (4 Bft)
02.01.2023 19:36 6,1 C 5,0 C 90 % 1024,3 hPa 0,0 l/m 17,0 km/h (3 Bft) SW 216 0 min 0,0 UV-I 0 W/m 4,6 C -0,5 C 25,7 km/h (4 Bft)
02.01.2023 19:39 6,1 C 5,0 C 90 % 1024,3 hPa 0,0 l/m 14,2 km/h (3 Bft) SW 215 0 min 0,0 UV-I 0 W/m 4,6 C 0,8 C 20,9 km/h (4 Bft)
02.01.2023 19:42 6,0 C 5,0 C 90 % 1024,3 hPa 0,0 l/m 18,2 km/h (3 Bft) W-SW 244 0 min 0,0 UV-I 0 W/m 4,5 C -1,2 C 27,4 km/h (4 Bft)
02.01.2023 19:45 5,9 C 5,0 C 89 % 1024,3 hPa 0,0 l/m 16,2 km/h (3 Bft) S-SW 198 0 min 0,0 UV-I 0 W/m 4,2 C -0,4 C 27,4 km/h (4 Bft)
02.01.2023 19:46 5,9 C 5,0 C 89 % 1024,3 hPa 0,0 l/m 14,5 km/h (3 Bft) S-SW 202 0 min 0,0 UV-I 0 W/m 4,2 C 0,4 C 22,5 km/h (4 Bft)
02.01.2023 19:47 5,9 C 5,0 C 89 % 1024,3 hPa 0,0 l/m 16,1 km/h (3 Bft) S-SW 202 0 min 0,0 UV-I 0 W/m 4,2 C -0,4 C 24,1 km/h (4 Bft)
02.01.2023 19:48 5,9 C 5,0 C 89 % 1024,3 hPa 0,0 l/m 12,9 km/h (3 Bft) S-SW 202 0 min 0,0 UV-I 0 W/m 4,2 C 1,3 C 19,3 km/h (3 Bft)
02.01.2023 19:49 5,9 C 5,0 C 89 % 1024,2 hPa 0,0 l/m 16,1 km/h (3 Bft) S-SW 202 0 min 0,0 UV-I 0 W/m 4,2 C -0,4 C 24,1 km/h (4 Bft)
02.01.2023 19:50 5,9 C 5,0 C 89 % 1024,2 hPa 0,0 l/m 17,7 km/h (3 Bft) S-SW 202 0 min 0,0 UV-I 0 W/m 4,2 C -1,1 C 25,7 km/h (4 Bft)
02.01.2023 19:51 5,9 C 5,0 C 89 % 1024,3 hPa 0,0 l/m 16,1 km/h (3 Bft) S-SW 202 0 min 0,0 UV-I 0 W/m 4,2 C -0,4 C 20,9 km/h (4 Bft)
02.01.2023 19:52 5,9 C 5,0 C 89 % 1024,3 hPa 0,0 l/m 14,5 km/h (3 Bft) S-SW 202 0 min 0,0 UV-I 0 W/m 4,2 C 0,4 C 22,5 km/h (4 Bft)
02.01.2023 19:53 5,9 C 5,0 C 89 % 1024,3 hPa 0,0 l/m 19,3 km/h (3 Bft) S-SW 202 0 min 0,0 UV-I 0 W/m 4,2 C -1,7 C 25,7 km/h (4 Bft)
02.01.2023 19:54 5,9 C 5,0 C 89 % 1024,3 hPa 0,0 l/m 17,7 km/h (3 Bft) S-SW 202 0 min 0,0 UV-I 0 W/m 4,2 C -1,1 C 24,1 km/h (4 Bft)
02.01.2023 19:55 5,9 C 5,0 C 89 % 1024,3 hPa 0,0 l/m 14,5 km/h (3 Bft) S-SW 202 0 min 0,0 UV-I 0 W/m 4,2 C 0,4 C 20,9 km/h (4 Bft)
02.01.2023 19:56 5,9 C 5,0 C 89 % 1024,4 hPa 0,0 l/m 14,5 km/h (3 Bft) S-SW 202 0 min 0,0 UV-I 0 W/m 4,2 C 0,4 C 20,9 km/h (4 Bft)
02.01.2023 19:57 5,9 C 5,0 C 89 % 1024,3 hPa 0,0 l/m 17,7 km/h (3 Bft) S-SW 202 0 min 0,0 UV-I 0 W/m 4,2 C -1,1 C 20,9 km/h (4 Bft)
02.01.2023 19:58 5,9 C 5,0 C 89 % 1024,4 hPa 0,0 l/m 17,7 km/h (3 Bft) SW 225 0 min 0,0 UV-I 0 W/m 4,2 C -1,1 C 22,5 km/h (4 Bft)
02.01.2023 19:59 5,9 C 5,0 C 89 % 1024,5 hPa 0,0 l/m 12,9 km/h (3 Bft) SW 225 0 min 0,0 UV-I 0 W/m 4,2 C 1,3 C 16,1 km/h (3 Bft)
02.01.2023 20:00 5,9 C 5,0 C 89 % 1024,4 hPa 0,0 l/m 16,1 km/h (3 Bft) S-SW 202 0 min 0,0 UV-I 0 W/m 4,2 C -0,4 C 22,5 km/h (4 Bft)
02.01.2023 20:01 5,9 C 5,0 C 89 % 1024,4 hPa 0,0 l/m 17,7 km/h (3 Bft) S-SW 202 0 min 0,0 UV-I 0 W/m 4,2 C -1,1 C 20,9 km/h (4 Bft)
02.01.2023 20:02 5,9 C 5,0 C 89 % 1024,4 hPa 0,0 l/m 14,5 km/h (3 Bft) S-SW 202 0 min 0,0 UV-I 0 W/m 4,2 C 0,4 C 20,9 km/h (4 Bft)
02.01.2023 20:03 5,9 C 5,0 C 89 % 1024,4 hPa 0,0 l/m 16,1 km/h (3 Bft) S-SW 202 0 min 0,0 UV-I 0 W/m 4,2 C -0,4 C 22,5 km/h (4 Bft)
02.01.2023 20:04 5,9 C 5,0 C 89 % 1024,4 hPa 0,0 l/m 16,1 km/h (3 Bft) S-SW 202 0 min 0,0 UV-I 0 W/m 4,2 C -0,4 C 20,9 km/h (4 Bft)
02.01.2023 20:05 6,0 C 5,0 C 89 % 1024,5 hPa 0,0 l/m 12,9 km/h (3 Bft) S-SW 202 0 min 0,0 UV-I 0 W/m 4,3 C 1,4 C 17,7 km/h (3 Bft)
02.01.2023 20:06 6,0 C 5,0 C 89 % 1024,4 hPa 0,0 l/m 16,1 km/h (3 Bft) S-SW 202 0 min 0,0 UV-I 0 W/m 4,3 C -0,2 C 25,7 km/h (4 Bft)
02.01.2023 20:07 6,0 C 5,0 C 89 % 1024,3 hPa 0,0 l/m 17,7 km/h (3 Bft) S-SW 202 0 min 0,0 UV-I 0 W/m 4,3 C -1,0 C 25,7 km/h (4 Bft)
02.01.2023 20:08 6,0 C 5,0 C 89 % 1024,3 hPa 0,0 l/m 17,7 km/h (3 Bft) S-SW 202 0 min 0,0 UV-I 0 W/m 4,3 C -1,0 C 20,9 km/h (4 Bft)
02.01.2023 20:09 6,1 C 5,0 C 89 % 1024,3 hPa 0,0 l/m 14,5 km/h (3 Bft) S-SW 202 0 min 0,0 UV-I 0 W/m 4,4 C 0,7 C 19,3 km/h (3 Bft)
02.01.2023 20:10 6,0 C 5,0 C 89 % 1024,2 hPa 0,0 l/m 14,5 km/h (3 Bft) S-SW 202 0 min 0,0 UV-I 0 W/m 4,3 C 0,5 C 17,7 km/h (3 Bft)
02.01.2023 20:11 6,1 C 5,0 C 89 % 1024,3 hPa 0,0 l/m 14,5 km/h (3 Bft) S-SW 202 0 min 0,0 UV-I 0 W/m 4,4 C 0,7 C 17,7 km/h (3 Bft)
02.01.2023 20:12 6,1 C 5,0 C 89 % 1024,2 hPa 0,0 l/m 16,1 km/h (3 Bft) S-SW 202 0 min 0,0 UV-I 0 W/m 4,4 C -0,1 C 19,3 km/h (3 Bft)
02.01.2023 20:13 6,0 C 5,0 C 89 % 1024,3 hPa 0,0 l/m 14,5 km/h (3 Bft) S-SW 202 0 min 0,0 UV-I 0 W/m 4,3 C 0,5 C 17,7 km/h (3 Bft)
02.01.2023 20:14 6,1 C 5,0 C 89 % 1024,4 hPa 0,0 l/m 16,1 km/h (3 Bft) S-SW 202 0 min 0,0 UV-I 0 W/m 4,4 C -0,1 C 22,5 km/h (4 Bft)
02.01.2023 20:15 6,1 C 5,0 C 89 % 1024,3 hPa 0,0 l/m 11,3 km/h (2 Bft) S-SW 202 0 min 0,0 UV-I 0 W/m 4,4 C 2,4 C 16,1 km/h (3 Bft)
02.01.2023 20:16 6,0 C 5,0 C 89 % 1024,4 hPa 0,0 l/m 12,9 km/h (3 Bft) S-SW 202 0 min 0,0 UV-I 0 W/m 4,3 C 1,4 C 19,3 km/h (3 Bft)
02.01.2023 20:17 6,0 C 5,0 C 89 % 1024,5 hPa 0,0 l/m 17,7 km/h (3 Bft) S-SW 202 0 min 0,0 UV-I 0 W/m 4,3 C -1,0 C 22,5 km/h (4 Bft)
02.01.2023 20:18 6,0 C 5,0 C 89 % 1024,4 hPa 0,0 l/m 16,1 km/h (3 Bft) SW 225 0 min 0,0 UV-I 0 W/m 4,3 C -0,2 C 19,3 km/h (3 Bft)
02.01.2023 20:19 5,9 C 5,0 C 89 % 1024,4 hPa 0,0 l/m 16,1 km/h (3 Bft) S-SW 202 0 min 0,0 UV-I 0 W/m 4,2 C -0,4 C 19,3 km/h (3 Bft)
02.01.2023 20:20 5,9 C 5,0 C 89 % 1024,5 hPa 0,0 l/m 9,7 km/h (2 Bft) SW 225 0 min 0,0 UV-I 0 W/m 4,2 C 3,3 C 12,9 km/h (3 Bft)
02.01.2023 20:21 5,9 C 5,0 C 89 % 1024,5 hPa 0,0 l/m 14,5 km/h (3 Bft) S-SW 202 0 min 0,0 UV-I 0 W/m 4,2 C 0,4 C 20,9 km/h (4 Bft)
02.01.2023 20:22 5,9 C 5,0 C 89 % 1024,5 hPa 0,0 l/m 16,1 km/h (3 Bft) S-SW 202 0 min 0,0 UV-I 0 W/m 4,2 C -0,4 C 20,9 km/h (4 Bft)
02.01.2023 20:23 6,0 C 5,0 C 89 % 1024,6 hPa 0,0 l/m 16,1 km/h (3 Bft) S-SW 202 0 min 0,0 UV-I 0 W/m 4,3 C -0,2 C 22,5 km/h (4 Bft)
02.01.2023 20:24 6,0 C 5,0 C 89 % 1024,6 hPa 0,0 l/m 16,1 km/h (3 Bft) S-SW 202 0 min 0,0 UV-I 0 W/m 4,3 C -0,2 C 20,9 km/h (4 Bft)
02.01.2023 20:25 6,0 C 5,0 C 89 % 1024,7 hPa 0,0 l/m 14,5 km/h (3 Bft) S-SW 202 0 min 0,0 UV-I 0 W/m 4,3 C 0,5 C 20,9 km/h (4 Bft)
02.01.2023 20:26 6,0 C 5,0 C 89 % 1024,7 hPa 0,0 l/m 16,1 km/h (3 Bft) S-SW 202 0 min 0,0 UV-I 0 W/m 4,3 C -0,2 C 20,9 km/h (4 Bft)
02.01.2023 20:27 6,0 C 5,0 C 89 % 1024,8 hPa 0,0 l/m 14,5 km/h (3 Bft) SW 225 0 min 0,0 UV-I 0 W/m 4,3 C 0,5 C 20,9 km/h (4 Bft)
02.01.2023 20:28 6,0 C 5,0 C 89 % 1024,8 hPa 0,0 l/m 12,9 km/h (3 Bft) SW 225 0 min 0,0 UV-I 0 W/m 4,3 C 1,4 C 24,1 km/h (4 Bft)
02.01.2023 20:29 6,0 C 5,0 C 89 % 1024,9 hPa 0,0 l/m 9,7 km/h (2 Bft) S-SW 202 0 min 0,0 UV-I 0 W/m 4,3 C 3,4 C 14,5 km/h (3 Bft)
02.01.2023 20:30 6,0 C 5,0 C 89 % 1024,8 hPa 0,0 l/m 12,9 km/h (3 Bft) S-SW 202 0 min 0,0 UV-I 0 W/m 4,3 C 1,4 C 20,9 km/h (4 Bft)
02.01.2023 20:31 6,0 C 5,0 C 89 % 1024,9 hPa 0,0 l/m 12,9 km/h (3 Bft) SW 225 0 min 0,0 UV-I 0 W/m 4,3 C 1,4 C 19,3 km/h (3 Bft)
02.01.2023 20:32 6,0 C 5,0 C 89 % 1024,9 hPa 0,0 l/m 12,9 km/h (3 Bft) W-SW 247 0 min 0,0 UV-I 0 W/m 4,3 C 1,4 C 17,7 km/h (3 Bft)
02.01.2023 20:33 6,0 C 5,0 C 89 % 1025,0 hPa 0,0 l/m 8,0 km/h (2 Bft) SW 225 0 min 0,0 UV-I 0 W/m 4,3 C 4,7 C 12,9 km/h (3 Bft)
02.01.2023 20:34 6,0 C 5,0 C 89 % 1025,0 hPa 0,0 l/m 6,4 km/h (2 Bft) W 270 0 min 0,0 UV-I 0 W/m 4,3 C 6,0 C 9,7 km/h (2 Bft)
02.01.2023 20:35 6,0 C 5,0 C 89 % 1025,0 hPa 0,0 l/m 8,0 km/h (2 Bft) SW 225 0 min 0,0 UV-I 0 W/m 4,3 C 4,7 C 16,1 km/h (3 Bft)
02.01.2023 20:36 6,0 C 5,0 C 90 % 1025,1 hPa 0,0 l/m 8,0 km/h (2 Bft) SW 225 0 min 0,0 UV-I 0 W/m 4,5 C 4,7 C 12,9 km/h (3 Bft)
02.01.2023 20:37 6,0 C 5,0 C 89 % 1025,0 hPa 0,0 l/m 14,5 km/h (3 Bft) W-SW 247 0 min 0,0 UV-I 0 W/m 4,3 C 0,5 C 20,9 km/h (4 Bft)
02.01.2023 20:38 6,0 C 5,0 C 89 % 1025,1 hPa 0,0 l/m 8,0 km/h (2 Bft) SW 225 0 min 0,0 UV-I 0 W/m 4,3 C 4,7 C 12,9 km/h (3 Bft)
02.01.2023 20:39 6,0 C 5,0 C 89 % 1025,1 hPa 0,0 l/m 9,7 km/h (2 Bft) W-SW 247 0 min 0,0 UV-I 0 W/m 4,3 C 3,4 C 16,1 km/h (3 Bft)
02.01.2023 20:40 6,0 C 5,0 C 90 % 1025,1 hPa 0,0 l/m 11,3 km/h (2 Bft) W-SW 247 0 min 0,0 UV-I 0 W/m 4,5 C 2,3 C 24,1 km/h (4 Bft)
02.01.2023 20:41 5,9 C 5,0 C 90 % 1025,2 hPa 0,0 l/m 12,9 km/h (3 Bft) SW 225 0 min 0,0 UV-I 0 W/m 4,4 C 1,3 C 24,1 km/h (4 Bft)
02.01.2023 20:42 5,9 C 5,0 C 89 % 1025,2 hPa 0,0 l/m 9,7 km/h (2 Bft) W-SW 247 0 min 0,0 UV-I 0 W/m 4,2 C 3,3 C 16,1 km/h (3 Bft)
02.01.2023 20:43 5,9 C 5,0 C 89 % 1025,3 hPa 0,0 l/m 9,7 km/h (2 Bft) SW 225 0 min 0,0 UV-I 0 W/m 4,2 C 3,3 C 16,1 km/h (3 Bft)
02.01.2023 20:44 5,9 C 5,0 C 89 % 1025,3 hPa 0,0 l/m 11,3 km/h (2 Bft) SW 225 0 min 0,0 UV-I 0 W/m 4,2 C 2,2 C 17,7 km/h (3 Bft)
02.01.2023 20:45 5,9 C 5,0 C 89 % 1025,4 hPa 0,0 l/m 9,7 km/h (2 Bft) W-SW 247 0 min 0,0 UV-I 0 W/m 4,2 C 3,3 C 16,1 km/h (3 Bft)
02.01.2023 20:46 5,9 C 5,0 C 89 % 1025,3 hPa 0,0 l/m 9,7 km/h (2 Bft) SW 225 0 min 0,0 UV-I 0 W/m 4,2 C 3,3 C 16,1 km/h (3 Bft)
02.01.2023 20:47 5,9 C 5,0 C 89 % 1025,3 hPa 0,0 l/m 14,5 km/h (3 Bft) W-SW 247 0 min 0,0 UV-I 0 W/m 4,2 C 0,4 C 22,5 km/h (4 Bft)
02.01.2023 20:48 5,9 C 5,0 C 89 % 1025,4 hPa 0,0 l/m 9,7 km/h (2 Bft) SW 225 0 min 0,0 UV-I 0 W/m 4,2 C 3,3 C 16,1 km/h (3 Bft)
02.01.2023 20:49 5,8 C 5,0 C 90 % 1025,3 hPa 0,0 l/m 9,7 km/h (2 Bft) SW 225 0 min 0,0 UV-I 0 W/m 4,3 C 3,2 C 12,9 km/h (3 Bft)
02.01.2023 20:50 5,9 C 5,0 C 89 % 1025,4 hPa 0,0 l/m 12,9 km/h (3 Bft) W-SW 247 0 min 0,0 UV-I 0 W/m 4,2 C 1,3 C 19,3 km/h (3 Bft)
02.01.2023 20:51 5,8 C 5,0 C 90 % 1025,4 hPa 0,0 l/m 14,5 km/h (3 Bft) SW 225 0 min 0,0 UV-I 0 W/m 4,3 C 0,3 C 20,9 km/h (4 Bft)
02.01.2023 20:52 5,8 C 5,0 C 90 % 1025,4 hPa 0,0 l/m 11,3 km/h (2 Bft) SW 225 0 min 0,0 UV-I 0 W/m 4,3 C 2,1 C 14,5 km/h (3 Bft)
02.01.2023 20:53 5,8 C 5,0 C 90 % 1025,4 hPa 0,0 l/m 12,9 km/h (3 Bft) SW 225 0 min 0,0 UV-I 0 W/m 4,3 C 1,2 C 19,3 km/h (3 Bft)
02.01.2023 20:54 5,8 C 5,0 C 90 % 1025,4 hPa 0,0 l/m 8,0 km/h (2 Bft) SW 225 0 min 0,0 UV-I 0 W/m 4,3 C 4,4 C 14,5 km/h (3 Bft)
02.01.2023 20:55 5,8 C 5,0 C 90 % 1025,4 hPa 0,0 l/m 8,0 km/h (2 Bft) SW 225 0 min 0,0 UV-I 0 W/m 4,3 C 4,4 C 12,9 km/h (3 Bft)
02.01.2023 20:56 5,8 C 5,0 C 90 % 1025,4 hPa 0,0 l/m 8,0 km/h (2 Bft) SW 225 0 min 0,0 UV-I 0 W/m 4,3 C 4,4 C 12,9 km/h (3 Bft)
02.01.2023 20:57 5,8 C 5,0 C 90 % 1025,4 hPa 0,2 l/m 12,9 km/h (3 Bft) S-SW 202 0 min 0,0 UV-I 0 W/m 4,3 C 1,2 C 17,7 km/h (3 Bft)
02.01.2023 20:58 5,8 C 5,0 C 90 % 1025,5 hPa 0,0 l/m 12,9 km/h (3 Bft) SW 225 0 min 0,0 UV-I 0 W/m 4,3 C 1,2 C 20,9 km/h (4 Bft)
02.01.2023 20:59 5,8 C 5,0 C 90 % 1025,5 hPa 0,0 l/m 8,0 km/h (2 Bft) SW 225 0 min 0,0 UV-I 0 W/m 4,3 C 4,4 C 11,3 km/h (2 Bft)
02.01.2023 21:00 5,8 C 5,0 C 90 % 1025,5 hPa 0,0 l/m 6,4 km/h (2 Bft) W-SW 247 0 min 0,0 UV-I 0 W/m 4,3 C 5,8 C 11,3 km/h (2 Bft)
02.01.2023 21:01 5,7 C 5,0 C 90 % 1025,4 hPa 0,0 l/m 11,3 km/h (2 Bft) SW 225 0 min 0,0 UV-I 0 W/m 4,2 C 2,0 C 17,7 km/h (3 Bft)
02.01.2023 21:02 5,7 C 5,0 C 90 % 1025,3 hPa 0,0 l/m 9,7 km/h (2 Bft) SW 225 0 min 0,0 UV-I 0 W/m 4,2 C 3,1 C 16,1 km/h (3 Bft)
02.01.2023 21:03 5,7 C 5,0 C 90 % 1025,3 hPa 0,0 l/m 9,7 km/h (2 Bft) SW 225 0 min 0,0 UV-I 0 W/m 4,2 C 3,1 C 17,7 km/h (3 Bft)
02.01.2023 21:04 5,7 C 5,0 C 90 % 1025,4 hPa 0,0 l/m 8,0 km/h (2 Bft) SW 225 0 min 0,0 UV-I 0 W/m 4,2 C 4,3 C 17,7 km/h (3 Bft)
02.01.2023 21:05 5,7 C 5,0 C 90 % 1025,4 hPa 0,0 l/m 12,9 km/h (3 Bft) S-SW 202 0 min 0,0 UV-I 0 W/m 4,2 C 1,0 C 22,5 km/h (4 Bft)
02.01.2023 21:06 5,7 C 5,0 C 90 % 1025,5 hPa 0,0 l/m 12,9 km/h (3 Bft) SW 225 0 min 0,0 UV-I 0 W/m 4,2 C 1,0 C 16,1 km/h (3 Bft)
02.01.2023 21:07 5,7 C 5,0 C 90 % 1025,4 hPa 0,0 l/m 11,3 km/h (2 Bft) SW 225 0 min 0,0 UV-I 0 W/m 4,2 C 2,0 C 17,7 km/h (3 Bft)
02.01.2023 21:08 5,7 C 5,0 C 90 % 1025,4 hPa 0,0 l/m 8,0 km/h (2 Bft) SW 225 0 min 0,0 UV-I 0 W/m 4,2 C 4,3 C 12,9 km/h (3 Bft)
02.01.2023 21:09 5,6 C 5,0 C 90 % 1025,4 hPa 0,0 l/m 9,7 km/h (2 Bft) SW 225 0 min 0,0 UV-I 0 W/m 4,1 C 2,9 C 14,5 km/h (3 Bft)
02.01.2023 21:12 5,7 C 5,0 C 90 % 1025,5 hPa 0,0 l/m 8,7 km/h (2 Bft) S-SW 210 0 min 0,0 UV-I 0 W/m 4,2 C 3,8 C 17,7 km/h (3 Bft)
02.01.2023 21:15 5,7 C 5,0 C 90 % 1025,5 hPa 0,0 l/m 9,3 km/h (2 Bft) W-SW 242 0 min 0,0 UV-I 0 W/m 4,2 C 3,3 C 19,3 km/h (3 Bft)
02.01.2023 21:18 5,6 C 5,0 C 90 % 1025,5 hPa 0,0 l/m 11,9 km/h (2 Bft) SW 221 0 min 0,0 UV-I 0 W/m 4,1 C 1,5 C 17,7 km/h (3 Bft)
02.01.2023 21:21 5,6 C 5,0 C 90 % 1025,5 hPa 0,0 l/m 11,5 km/h (2 Bft) SW 236 0 min 0,0 UV-I 0 W/m 4,1 C 1,8 C 19,3 km/h (3 Bft)
02.01.2023 21:24 5,6 C 5,0 C 90 % 1025,5 hPa 0,0 l/m 11,6 km/h (2 Bft) S-SW 203 0 min 0,0 UV-I 0 W/m 4,1 C 1,7 C 16,1 km/h (3 Bft)
02.01.2023 21:27 5,6 C 5,0 C 90 % 1025,5 hPa 0,0 l/m 11,8 km/h (2 Bft) SW 214 0 min 0,0 UV-I 0 W/m 4,1 C 1,6 C 25,7 km/h (4 Bft)
02.01.2023 21:30 5,6 C 5,0 C 90 % 1025,5 hPa 0,0 l/m 9,2 km/h (2 Bft) S 173 0 min 0,0 UV-I 0 W/m 4,1 C 3,3 C 17,7 km/h (3 Bft)
02.01.2023 21:33 5,5 C 4,4 C 90 % 1025,4 hPa 0,0 l/m 8,3 km/h (2 Bft) W-SW 238 0 min 0,0 UV-I 0 W/m 4,0 C 3,9 C 17,7 km/h (3 Bft)
02.01.2023 21:36 5,6 C 4,4 C 90 % 1025,4 hPa 0,0 l/m 8,2 km/h (2 Bft) SW 236 0 min 0,0 UV-I 0 W/m 4,1 C 4,1 C 16,1 km/h (3 Bft)
02.01.2023 21:39 5,5 C 4,4 C 90 % 1025,4 hPa 0,0 l/m 7,8 km/h (2 Bft) SW 235 0 min 0,0 UV-I 0 W/m 4,0 C 4,3 C 19,3 km/h (3 Bft)
02.01.2023 21:42 5,4 C 4,4 C 90 % 1025,4 hPa 0,0 l/m 8,7 km/h (2 Bft) S-SW 212 0 min 0,0 UV-I 0 W/m 3,9 C 3,5 C 12,9 km/h (3 Bft)
02.01.2023 21:45 5,4 C 4,4 C 90 % 1025,5 hPa 0,0 l/m 9,8 km/h (2 Bft) S-SW 204 0 min 0,0 UV-I 0 W/m 3,9 C 2,7 C 19,3 km/h (3 Bft)
02.01.2023 21:48 5,4 C 4,4 C 90 % 1025,4 hPa 0,0 l/m 8,4 km/h (2 Bft) SW 215 0 min 0,0 UV-I 0 W/m 3,9 C 3,7 C 12,9 km/h (3 Bft)
02.01.2023 21:51 5,4 C 4,4 C 90 % 1025,5 hPa 0,0 l/m 8,2 km/h (2 Bft) W-SW 242 0 min 0,0 UV-I 0 W/m 3,9 C 3,9 C 17,7 km/h (3 Bft)
02.01.2023 21:54 5,4 C 4,4 C 90 % 1025,5 hPa 0,0 l/m 10,6 km/h (2 Bft) S-SW 198 0 min 0,0 UV-I 0 W/m 3,9 C 2,1 C 20,9 km/h (4 Bft)
02.01.2023 21:57 5,4 C 4,4 C 90 % 1025,6 hPa 0,0 l/m 10,2 km/h (2 Bft) S-SW 201 0 min 0,0 UV-I 0 W/m 3,9 C 2,4 C 14,5 km/h (3 Bft)
02.01.2023 22:00 5,5 C 5,0 C 90 % 1025,8 hPa 0,0 l/m 8,0 km/h (2 Bft) S-SW 212 0 min 0,0 UV-I 0 W/m 4,0 C 4,1 C 12,9 km/h (3 Bft)
02.01.2023 22:03 5,5 C 5,0 C 90 % 1025,8 hPa 0,0 l/m 6,8 km/h (2 Bft) S-SW 202 0 min 0,0 UV-I 0 W/m 4,0 C 5,2 C 17,7 km/h (3 Bft)
02.01.2023 22:06 5,5 C 5,0 C 91 % 1026,0 hPa 0,0 l/m 7,8 km/h (2 Bft) SW 222 0 min 0,0 UV-I 0 W/m 4,2 C 4,3 C 14,5 km/h (3 Bft)
02.01.2023 22:09 5,5 C 5,0 C 91 % 1026,0 hPa 0,0 l/m 7,0 km/h (2 Bft) SW 223 0 min 0,0 UV-I 0 W/m 4,2 C 5,0 C 14,5 km/h (3 Bft)
02.01.2023 22:12 5,5 C 5,0 C 91 % 1026,0 hPa 0,0 l/m 5,4 km/h (1 Bft) S-SW 213 0 min 0,0 UV-I 0 W/m 4,2 C 5,5 C 9,7 km/h (2 Bft)
02.01.2023 22:15 5,5 C 5,0 C 91 % 1026,0 hPa 0,0 l/m 7,3 km/h (2 Bft) SW 217 0 min 0,0 UV-I 0 W/m 4,2 C 4,7 C 11,3 km/h (2 Bft)
02.01.2023 22:18 5,5 C 4,4 C 91 % 1026,1 hPa 0,0 l/m 8,8 km/h (2 Bft) W-SW 238 0 min 0,0 UV-I 0 W/m 4,2 C 3,5 C 17,7 km/h (3 Bft)
02.01.2023 22:21 5,4 C 4,4 C 90 % 1026,1 hPa 0,0 l/m 8,8 km/h (2 Bft) SW 214 0 min 0,0 UV-I 0 W/m 3,9 C 3,4 C 16,1 km/h (3 Bft)
02.01.2023 22:24 5,4 C 4,4 C 90 % 1026,1 hPa 0,0 l/m 9,5 km/h (2 Bft) W 272 0 min 0,0 UV-I 0 W/m 3,9 C 2,9 C 16,1 km/h (3 Bft)
02.01.2023 22:27 5,4 C 4,4 C 90 % 1026,2 hPa 0,0 l/m 9,5 km/h (2 Bft) W-SW 249 0 min 0,0 UV-I 0 W/m 3,9 C 2,9 C 20,9 km/h (4 Bft)
02.01.2023 22:30 5,4 C 4,4 C 91 % 1026,1 hPa 0,0 l/m 11,2 km/h (2 Bft) W-SW 244 0 min 0,0 UV-I 0 W/m 4,1 C 1,7 C 24,1 km/h (4 Bft)
02.01.2023 22:33 5,4 C 4,4 C 90 % 1026,3 hPa 0,0 l/m 13,0 km/h (3 Bft) W 259 0 min 0,0 UV-I 0 W/m 3,9 C 0,6 C 22,5 km/h (4 Bft)
02.01.2023 22:36 5,4 C 4,4 C 90 % 1026,2 hPa 0,0 l/m 12,9 km/h (3 Bft) W-SW 238 0 min 0,0 UV-I 0 W/m 3,9 C 0,7 C 22,5 km/h (4 Bft)
02.01.2023 22:39 5,4 C 4,4 C 90 % 1026,3 hPa 0,0 l/m 8,0 km/h (2 Bft) W-SW 243 0 min 0,0 UV-I 0 W/m 3,9 C 4,0 C 14,5 km/h (3 Bft)
02.01.2023 22:42 5,4 C 4,4 C 90 % 1026,3 hPa 0,0 l/m 7,0 km/h (2 Bft) SW 226 0 min 0,0 UV-I 0 W/m 3,9 C 4,9 C 12,9 km/h (3 Bft)
02.01.2023 22:45 5,4 C 4,4 C 90 % 1026,2 hPa 0,0 l/m 7,9 km/h (2 Bft) W-SW 250 0 min 0,0 UV-I 0 W/m 3,9 C 4,1 C 14,5 km/h (3 Bft)
02.01.2023 22:48 5,4 C 4,4 C 90 % 1026,3 hPa 0,0 l/m 9,0 km/h (2 Bft) SW 236 0 min 0,0 UV-I 0 W/m 3,9 C 3,2 C 16,1 km/h (3 Bft)
02.01.2023 22:51 5,3 C 4,4 C 90 % 1026,3 hPa 0,0 l/m 8,5 km/h (2 Bft) S-SW 198 0 min 0,0 UV-I 0 W/m 3,8 C 3,5 C 16,1 km/h (3 Bft)
02.01.2023 22:54 5,3 C 4,4 C 90 % 1026,4 hPa 0,0 l/m 8,4 km/h (2 Bft) SW 227 0 min 0,0 UV-I 0 W/m 3,8 C 3,6 C 17,7 km/h (3 Bft)
02.01.2023 22:57 5,3 C 4,4 C 90 % 1026,4 hPa 0,0 l/m 9,6 km/h (2 Bft) S-SW 192 0 min 0,0 UV-I 0 W/m 3,8 C 2,7 C 17,7 km/h (3 Bft)
02.01.2023 23:00 5,3 C 4,4 C 90 % 1026,4 hPa 0,0 l/m 9,2 km/h (2 Bft) SW 218 0 min 0,0 UV-I 0 W/m 3,8 C 3,0 C 19,3 km/h (3 Bft)
02.01.2023 23:03 5,3 C 4,4 C 90 % 1026,5 hPa 0,0 l/m 7,5 km/h (2 Bft) SW 228 0 min 0,0 UV-I 0 W/m 3,8 C 4,3 C 14,5 km/h (3 Bft)
02.01.2023 23:06 5,2 C 4,4 C 90 % 1026,7 hPa 0,0 l/m 8,7 km/h (2 Bft) SW 233 0 min 0,0 UV-I 0 W/m 3,7 C 3,3 C 14,5 km/h (3 Bft)
02.01.2023 23:09 5,2 C 4,4 C 90 % 1026,5 hPa 0,0 l/m 10,9 km/h (2 Bft) S-SW 209 0 min 0,0 UV-I 0 W/m 3,7 C 1,7 C 17,7 km/h (3 Bft)
02.01.2023 23:12 5,2 C 4,4 C 90 % 1026,6 hPa 0,0 l/m 13,3 km/h (3 Bft) SW 221 0 min 0,0 UV-I 0 W/m 3,7 C 0,2 C 25,7 km/h (4 Bft)
02.01.2023 23:15 5,2 C 4,4 C 90 % 1026,8 hPa 0,0 l/m 7,9 km/h (2 Bft) S-SW 208 0 min 0,0 UV-I 0 W/m 3,7 C 3,9 C 14,5 km/h (3 Bft)
02.01.2023 23:18 5,2 C 4,4 C 90 % 1026,8 hPa 0,0 l/m 7,9 km/h (2 Bft) SW 229 0 min 0,0 UV-I 0 W/m 3,7 C 3,9 C 14,5 km/h (3 Bft)
02.01.2023 23:21 5,1 C 4,4 C 90 % 1026,8 hPa 0,0 l/m 5,7 km/h (1 Bft) W 261 0 min 0,0 UV-I 0 W/m 3,6 C 5,1 C 14,5 km/h (3 Bft)
02.01.2023 23:24 5,1 C 4,4 C 90 % 1026,8 hPa 0,0 l/m 8,3 km/h (2 Bft) SW 229 0 min 0,0 UV-I 0 W/m 3,6 C 3,5 C 20,9 km/h (4 Bft)
02.01.2023 23:27 5,1 C 4,4 C 90 % 1026,7 hPa 0,0 l/m 10,4 km/h (2 Bft) SW 219 0 min 0,0 UV-I 0 W/m 3,6 C 1,9 C 17,7 km/h (3 Bft)
02.01.2023 23:30 5,1 C 3,9 C 90 % 1026,7 hPa 0,0 l/m 7,9 km/h (2 Bft) W-SW 255 0 min 0,0 UV-I 0 W/m 3,6 C 3,8 C 17,7 km/h (3 Bft)
02.01.2023 23:33 5,1 C 3,9 C 90 % 1026,8 hPa 0,0 l/m 10,2 km/h (2 Bft) SW 220 0 min 0,0 UV-I 0 W/m 3,6 C 2,0 C 16,1 km/h (3 Bft)
02.01.2023 23:36 5,0 C 3,9 C 90 % 1026,9 hPa 0,0 l/m 7,2 km/h (2 Bft) S-SW 204 0 min 0,0 UV-I 0 W/m 3,5 C 4,3 C 14,5 km/h (3 Bft)
02.01.2023 23:39 4,9 C 3,9 C 90 % 1027,0 hPa 0,0 l/m 8,2 km/h (2 Bft) S-SW 212 0 min 0,0 UV-I 0 W/m 3,4 C 3,3 C 14,5 km/h (3 Bft)
02.01.2023 23:42 4,9 C 3,9 C 90 % 1027,0 hPa 0,0 l/m 6,7 km/h (2 Bft) S-SW 199 0 min 0,0 UV-I 0 W/m 3,4 C 4,7 C 11,3 km/h (2 Bft)
02.01.2023 23:45 4,9 C 3,9 C 90 % 1027,0 hPa 0,0 l/m 5,3 km/h (1 Bft) W-SW 244 0 min 0,0 UV-I 0 W/m 3,4 C 4,9 C 11,3 km/h (2 Bft)
02.01.2023 23:48 4,8 C 3,9 C 90 % 1027,0 hPa 0,0 l/m 8,4 km/h (2 Bft) SW 219 0 min 0,0 UV-I 0 W/m 3,3 C 3,1 C 14,5 km/h (3 Bft)
02.01.2023 23:51 4,8 C 3,9 C 90 % 1027,0 hPa 0,0 l/m 6,6 km/h (2 Bft) S 182 0 min 0,0 UV-I 0 W/m 3,3 C 4,6 C 16,1 km/h (3 Bft)
02.01.2023 23:54 4,8 C 3,9 C 90 % 1027,1 hPa 0,0 l/m 6,6 km/h (2 Bft) S-SW 199 0 min 0,0 UV-I 0 W/m 3,3 C 4,6 C 9,7 km/h (2 Bft)
02.01.2023 23:57 4,9 C 3,9 C 90 % 1027,2 hPa 0,0 l/m 7,8 km/h (2 Bft) S-SW 202 0 min 0,0 UV-I 0 W/m 3,4 C 3,7 C 11,3 km/h (2 Bft)
02.01.2023 23:58 4,8 C 3,9 C 90 % 1027,1 hPa 0,0 l/m 8,0 km/h (2 Bft) S-SW 202 0 min 0,0 UV-I 0 W/m 3,3 C 3,4 C 9,7 km/h (2 Bft)
02.01.2023 23:59 4,8 C 3,9 C 90 % 1027,3 hPa 0,0 l/m 8,0 km/h (2 Bft) S-SW 202 0 min 0,0 UV-I 0 W/m 3,3 C 3,4 C 11,3 km/h (2 Bft)
_ Min-Zeit 23:45 23:30 03:17 04:05 - 19:03 - - - - - 23:48 19:53 19:03
Minimum _ 4,8 C 3,9 C 75 % 1014,4 hPa - 4,8 km/h (1 Bft) - - - - - 3,3 C -1,7 C 8,0 km/h (2 Bft)
_ Max-Zeit 00:00 00:00 12:24 23:59 05:52 04:21 - - 00:00 13:15 13:15 00:01 00:14 04:46
Maximum _ 11,6 C 10,6 C 91 % 1027,3 hPa 0,2 l/m 29,0 km/h
S (5 Bft)
- - 0 min 0,5 UV-I 88 W/m 7,9 C 8,5 C 43,5 km/h
S (6 Bft)
Durchschnitt _ 8,3 C 7,4 C 86 % 1019,2 hPa #5,6 l/m 14,8 km/h (3 Bft) S - #0 min. 0,2 UV-I 31 W/m 6,0 C 3,5 C 23,4 km/h (4 Bft)